GFSSGP_925_thetae_000.txt.gz
Theta_e
353 357 359 361 366 353 361 359 353 356 357 353 350 352 356 355 354 361 349 350 350 350 350 348 345 346 346 347 346 345 342 341 341 341 342 340 343 345 348 352 351 347 348 349 352 348 347 349 344
358 358 358 360 349 353 357 353 355 355 353 352 353 353 353 356 350 350 350 350 349 348 348 348 344 345 345 346 346 345 344 346 341 341 340 341 342 343 349 351 347 348 348 353 352 345 347 350 349
353 356 360 347 341 352 356 354 356 355 351 351 355 352 353 354 350 349 349 349 349 350 349 350 345 345 344 346 347 350 348 345 344 343 342 343 342 347 348 349 351 350 351 348 347 343 344 349 352
353 354 356 343 339 344 351 355 356 356 353 351 351 356 351 349 349 350 350 350 350 351 351 347 344 345 345 346 347 348 349 347 348 345 346 344 344 347 346 348 348 348 345 344 344 346 352 351 351
351 349 343 341 343 343 347 353 354 355 354 352 350 354 354 351 350 350 351 351 352 351 352 349 347 346 346 346 348 351 349 348 344 344 343 346 347 345 344 345 351 351 350 347 347 350 352 352 347
350 345 342 342 343 344 347 352 353 354 355 353 352 355 355 350 350 352 352 352 352 352 352 352 350 348 349 349 351 350 348 346 345 347 348 346 345 345 346 345 350 352 352 351 348 347 347 346 344
348 344 344 344 345 346 347 348 351 354 356 353 350 357 355 350 352 353 354 353 352 352 353 353 353 353 353 353 353 352 350 346 345 344 343 340 343 343 346 345 343 351 347 348 347 343 343 344 341
347 344 343 344 346 344 345 348 349 349 354 349 348 355 358 349 351 352 353 352 352 353 354 355 355 355 354 353 354 354 352 347 344 343 342 343 343 342 339 338 350 343 343 346 345 344 343 342 343
345 346 343 344 346 347 347 348 350 349 353 351 350 349 348 347 350 351 353 352 354 353 353 354 355 355 355 352 352 351 350 351 346 342 342 341 350 351 349 349 342 345 343 345 344 343 343 344 347
345 347 343 341 344 347 347 347 352 353 353 352 353 348 347 347 350 351 353 354 353 353 353 352 353 354 354 352 353 353 350 348 348 348 349 349 351 352 349 349 345 344 343 344 344 343 345 348 346
339 345 343 342 342 346 347 348 350 349 353 350 354 352 348 348 349 350 351 352 352 353 353 354 352 355 354 353 353 352 350 350 350 352 351 350 350 350 352 351 350 348 347 350 349 349 347 348 347
337 338 339 342 343 346 348 348 349 348 346 346 349 350 350 350 349 349 350 351 351 351 351 352 353 353 353 353 352 352 350 350 349 349 352 351 350 351 353 351 352 352 350 350 350 348 349 348 347
333 334 335 337 342 344 347 349 349 349 347 347 349 351 351 351 348 348 348 349 350 351 352 352 353 354 355 355 351 351 351 349 349 349 350 349 349 352 352 351 351 350 350 349 349 349 349 348 346
333 333 334 335 341 345 349 350 350 349 346 351 352 353 351 351 349 349 348 349 350 350 351 352 353 354 354 354 353 352 351 350 350 348 348 351 350 350 351 350 349 350 350 349 348 349 348 347 345
332 336 342 341 344 348 348 353 352 350 350 354 354 353 352 351 350 350 349 349 350 351 351 352 354 355 357 357 355 354 352 351 350 349 351 351 351 350 350 350 349 349 350 351 349 349 348 344 343
334 337 342 345 346 348 349 348 351 351 353 356 355 354 353 352 351 350 350 350 350 351 352 353 353 354 356 355 354 353 351 351 351 350 351 353 352 352 351 351 349 349 348 349 349 348 345 343 341
336 340 340 349 347 351 351 347 350 351 353 355 355 354 353 353 352 351 351 350 350 352 354 354 353 353 354 355 354 354 353 354 353 353 352 351 352 351 351 350 349 350 348 349 347 345 344 341 339
339 339 340 342 349 351 352 348 352 352 353 353 356 354 353 353 353 351 351 351 352 353 355 355 354 354 355 355 355 353 353 353 351 352 355 353 353 351 351 350 349 349 348 347 347 345 341 341 339
336 339 340 340 347 350 349 348 349 354 353 353 355 356 354 352 351 351 353 353 353 354 356 357 356 356 358 357 353 353 352 352 351 351 355 354 353 353 352 350 350 350 349 346 344 341 340 336 339
336 338 339 341 347 349 347 349 349 350 355 353 353 355 356 354 352 353 354 353 353 355 357 358 359 358 358 355 354 352 352 351 352 353 354 354 354 353 352 351 351 350 344 345 342 340 338 337 338
335 338 339 343 347 348 347 350 348 347 352 353 351 351 354 355 354 354 353 353 353 354 357 359 360 360 359 353 354 356 355 355 354 354 355 356 356 356 355 354 350 349 341 335 340 339 338 336 341
335 335 337 341 346 350 348 349 344 346 352 353 354 352 351 355 354 354 353 353 353 353 356 359 361 361 360 358 355 356 355 352 349 351 349 353 356 355 354 352 350 342 337 339 339 338 337 339 336
333 334 336 337 344 346 349 350 344 346 347 351 354 353 351 349 352 354 353 351 352 353 355 357 360 361 361 359 359 358 358 352 350 350 353 354 354 354 350 351 346 341 338 341 340 338 339 337 336
331 333 335 337 339 346 346 346 342 342 345 343 348 352 352 349 349 351 350 350 351 352 353 355 358 362 362 362 361 361 357 355 350 352 351 347 347 349 350 351 346 340 337 340 339 338 338 337 337
329 335 339 341 341 343 343 345 342 338 338 340 338 345 352 350 348 349 351 351 351 352 352 354 357 361 362 362 361 361 360 358 356 355 351 346 345 345 347 351 346 340 340 339 337 337 336 337 336
329 333 337 342 339 339 339 342 340 338 337 337 337 341 349 351 348 348 350 350 351 351 352 354 355 359 361 361 361 361 361 359 358 356 350 347 344 341 342 350 344 340 339 338 335 334 334 334 334
330 333 333 336 336 336 335 338 337 337 339 339 340 343 346 350 349 347 349 349 350 351 353 355 357 359 360 359 360 361 361 360 355 354 355 350 348 341 346 346 343 338 339 336 335 333 334 332 333
327 330 333 335 344 340 337 337 339 339 337 335 339 344 346 349 350 347 348 348 349 351 352 354 356 358 359 358 359 359 360 360 358 357 356 350 350 347 344 343 339 338 338 335 336 333 333 333 330
326 329 332 334 335 338 339 337 336 336 337 336 335 344 344 348 350 349 348 347 349 349 350 353 356 357 359 358 358 357 357 357 359 358 359 356 352 347 344 343 337 337 337 336 336 335 332 333 332
326 329 332 335 340 336 336 335 333 335 335 334 335 335 336 345 349 351 350 348 348 350 349 351 353 356 358 357 359 358 357 356 358 359 358 352 349 343 342 341 339 337 336 336 336 335 332 332 332

GFSSGP_925_thetae_003.txt.gz
Theta_e
350 356 359 359 370 359 360 358 352 355 358 353 351 358 356 352 359 367 350 351 349 349 348 349 346 346 344 342 342 342 341 344 345 345 346 349 353 353 350 353 354 353 351 351 351 352 351 351 350
356 359 362 365 362 367 364 354 356 355 353 352 352 353 354 359 352 352 351 349 349 347 347 349 346 347 346 344 343 342 343 345 343 343 345 343 353 354 353 353 353 352 350 351 352 351 351 352 350
359 358 365 365 350 356 359 356 355 353 351 353 354 352 355 353 351 351 350 349 348 349 350 350 346 346 347 351 346 343 344 343 343 344 345 347 354 354 353 352 352 352 351 351 350 351 352 352 352
356 356 358 342 340 349 356 353 352 352 351 351 353 357 352 348 349 349 349 349 351 352 352 348 347 346 351 353 350 345 346 347 345 345 345 353 354 353 352 353 352 351 352 352 348 352 352 352 352
354 355 357 339 340 345 351 351 351 352 352 352 353 358 355 351 350 349 349 350 351 353 350 350 349 349 351 351 354 353 348 347 346 345 347 352 353 353 353 353 351 350 345 346 348 352 353 352 352
356 347 347 341 340 342 348 350 350 351 352 351 355 356 357 351 351 351 351 351 352 353 351 351 350 351 351 354 354 345 344 343 345 346 346 347 350 352 353 351 351 351 352 349 352 349 346 349 350
355 352 345 341 342 340 344 346 348 349 352 352 353 359 356 353 352 351 353 352 352 352 353 353 353 353 354 354 353 352 351 349 349 350 349 343 344 347 342 339 342 349 350 351 353 344 343 343 342
347 344 341 348 341 338 340 344 343 347 351 349 351 359 359 354 352 353 353 352 351 352 353 352 353 354 353 353 355 355 351 349 351 353 344 339 340 338 336 339 349 344 343 348 346 342 341 342 343
340 347 345 344 348 341 340 341 343 346 348 348 349 352 352 352 352 353 353 352 353 354 353 353 353 354 355 356 356 354 351 350 351 345 342 341 351 351 351 353 345 344 345 343 342 341 341 347 348
343 351 345 341 346 343 341 340 344 346 348 349 350 351 351 352 351 352 353 355 353 353 353 352 353 354 354 350 354 351 349 348 348 348 349 351 350 352 350 350 345 344 341 344 344 344 346 349 350
339 350 345 342 342 343 342 342 342 345 348 349 351 351 351 352 352 352 352 352 351 350 350 354 354 355 356 353 351 351 351 350 349 350 352 350 351 352 352 353 353 353 348 353 352 350 349 348 347
338 343 342 342 341 344 342 342 342 342 344 345 348 348 350 352 353 351 352 351 351 351 350 352 355 356 355 352 351 351 349 348 349 350 352 353 351 351 351 352 351 352 350 350 350 348 349 349 349
336 339 338 338 341 342 344 343 341 341 342 344 348 348 349 351 351 351 350 350 350 351 351 351 353 354 355 356 350 350 349 348 349 349 351 351 350 353 353 352 351 351 350 349 348 348 349 348 347
336 337 337 337 339 342 345 344 344 342 343 346 350 349 349 350 350 350 350 350 350 350 350 351 353 355 355 355 355 352 350 350 348 349 348 352 352 351 353 351 350 349 349 349 347 351 349 347 344
335 335 338 338 339 342 343 345 343 343 346 348 350 351 349 349 348 349 349 350 350 350 351 351 352 354 355 356 355 352 351 349 350 348 350 351 352 352 354 351 350 349 350 352 350 349 347 344 339
334 336 339 341 339 340 343 347 346 345 346 347 350 351 350 349 348 348 349 349 349 350 351 352 352 352 355 357 356 355 351 352 349 350 349 352 353 355 355 351 350 349 350 349 350 347 344 340 338
336 337 339 342 340 344 344 348 348 348 345 347 349 351 351 351 349 349 349 349 349 351 352 353 353 353 355 358 356 355 353 353 353 353 353 354 354 354 354 351 349 351 350 349 349 347 342 338 337
338 338 340 346 341 345 345 348 349 349 348 344 347 348 351 351 351 349 349 349 349 350 352 354 354 354 355 355 355 354 354 354 354 353 354 354 354 355 355 351 352 351 350 348 347 345 339 339 339
337 339 339 340 340 344 346 346 348 349 349 348 346 347 349 350 350 349 350 350 350 350 353 355 356 356 356 356 356 355 353 353 352 350 354 358 355 355 354 353 351 350 350 348 343 341 337 338 338
335 338 340 340 340 342 344 347 346 353 351 349 348 347 347 349 349 350 350 350 350 352 353 356 357 358 357 357 356 355 353 351 350 350 352 355 353 352 353 353 350 350 348 347 344 341 338 337 338
335 337 339 340 346 346 345 347 346 346 352 351 348 348 347 347 348 351 351 351 351 353 354 358 360 360 359 358 356 356 355 354 354 351 354 356 356 355 356 355 354 353 347 334 343 340 339 336 340
334 335 337 339 344 349 342 349 347 345 347 352 351 350 348 348 348 349 352 352 352 352 355 357 361 361 361 359 357 356 354 351 347 347 347 352 357 355 355 355 351 351 338 342 339 338 339 339 336
332 334 337 338 343 350 343 344 347 344 346 348 352 351 349 348 349 349 351 352 352 352 354 357 362 363 362 361 358 355 354 349 350 347 351 352 358 353 351 350 352 348 338 340 340 339 340 341 337
331 333 336 337 340 344 345 346 349 346 345 345 347 351 351 350 348 351 349 350 351 352 354 356 363 365 364 363 360 357 356 353 348 348 352 351 349 352 349 348 351 346 337 340 340 339 340 339 339
330 333 337 339 340 341 341 346 353 346 342 343 342 344 350 352 349 350 352 352 352 353 354 356 361 367 366 364 362 361 359 356 355 355 353 349 345 346 352 349 353 346 341 340 339 339 340 338 338
330 332 335 341 341 340 339 343 343 343 341 339 340 339 343 350 351 348 351 353 354 353 356 357 360 366 367 364 364 363 362 358 355 354 353 349 347 345 347 350 350 347 340 340 339 337 336 336 337
328 332 333 336 338 339 339 339 339 341 341 339 339 338 338 347 350 350 348 350 352 352 355 357 360 364 366 362 366 365 363 361 354 353 353 354 349 345 343 347 347 345 340 341 339 336 336 335 335
326 329 333 337 343 342 339 339 340 341 339 338 339 338 339 342 350 350 348 349 350 351 353 357 359 364 363 362 365 364 363 363 360 357 356 353 350 347 345 348 347 343 339 341 338 336 336 335 334
325 327 331 334 336 338 340 340 338 340 340 338 338 337 338 342 348 350 348 347 348 349 351 354 357 361 363 362 361 361 361 361 361 359 356 355 351 352 346 347 344 340 340 340 339 337 337 337 337
326 327 328 336 341 336 339 338 337 336 337 337 338 337 338 342 346 349 349 348 347 349 348 350 353 355 360 362 363 362 361 360 360 359 358 357 354 352 347 345 344 338 339 338 339 338 336 335 335

GFSSGP_925_thetae_006.txt.gz
Theta_e
347 354 357 359 366 359 366 358 356 360 356 354 352 355 358 358 361 364 350 350 349 349 349 350 345 345 345 343 345 346 347 345 342 345 351 351 351 351 351 350 350 352 353 353 353 352 352 351 350
353 357 360 354 364 367 366 356 360 357 354 355 354 353 355 359 352 350 351 350 348 348 348 349 345 343 344 342 342 343 345 346 344 347 348 351 351 349 349 350 347 352 353 352 352 352 352 352 351
355 359 366 368 360 366 367 361 356 354 353 355 355 353 353 358 351 351 350 349 347 349 350 348 346 343 342 342 341 343 347 347 346 346 349 353 351 347 347 347 350 352 351 352 352 352 352 352 353
359 361 364 371 357 356 357 356 350 351 355 353 354 356 352 349 351 348 349 349 349 352 351 348 346 346 345 344 343 345 345 346 345 348 352 352 350 350 353 352 352 352 351 352 353 353 353 353 351
361 361 366 360 347 354 353 351 352 352 355 354 352 354 354 351 349 349 349 350 352 351 351 350 347 350 351 349 344 346 347 347 347 348 353 351 351 351 352 351 351 347 351 350 353 352 352 351 347
356 358 363 341 341 345 348 351 352 351 355 353 354 356 356 349 348 350 350 350 352 350 352 352 349 351 351 351 350 349 351 352 348 346 346 347 351 351 351 350 348 347 352 353 353 347 345 345 341
349 359 352 348 340 343 345 345 348 350 352 354 354 358 354 350 350 350 351 352 351 352 353 353 353 354 353 351 351 352 351 348 346 343 341 341 346 351 349 348 342 345 345 347 346 342 341 342 340
351 355 349 347 341 338 341 344 345 346 353 350 353 357 358 351 352 352 351 352 353 351 353 354 354 354 354 354 353 347 344 347 347 342 338 338 346 349 342 343 346 342 341 344 342 339 339 345 344
344 344 349 346 343 339 340 340 345 348 348 353 352 351 352 352 353 352 353 352 352 352 354 353 354 353 353 353 354 351 352 349 347 341 337 341 350 351 352 353 351 342 342 341 339 339 345 348 348
343 348 347 345 344 341 340 340 342 344 347 349 352 351 350 353 352 352 352 351 353 352 354 352 353 355 353 353 351 353 350 349 349 350 345 347 351 353 353 352 349 342 342 343 344 347 347 351 351
343 346 344 345 343 342 340 340 339 344 345 347 355 353 351 352 354 353 353 351 352 352 351 351 351 352 354 355 349 351 350 349 349 349 353 350 351 351 350 350 335 349 347 346 350 351 350 347 347
340 342 343 343 341 343 340 340 340 342 344 346 351 352 351 352 352 351 351 350 351 352 354 357 355 353 356 352 351 353 352 350 351 351 349 351 354 351 350 350 350 350 349 350 349 350 348 349 347
335 341 341 339 340 341 341 342 341 340 343 345 347 351 352 351 350 350 349 350 350 348 355 355 355 351 355 353 350 349 352 348 350 351 352 350 351 351 350 353 351 350 351 350 348 347 349 345 345
335 336 338 337 338 340 344 342 340 340 341 345 347 349 351 351 350 350 349 349 351 349 350 352 357 353 355 352 354 353 347 350 347 350 352 350 352 352 350 352 349 349 350 347 348 349 348 349 347
334 336 336 336 337 340 341 344 343 341 340 345 347 347 349 350 350 351 348 349 350 350 351 354 355 355 352 356 355 355 353 347 350 347 352 352 350 352 354 354 352 351 350 351 350 347 347 345 343
332 334 337 337 338 339 341 346 341 342 341 343 347 347 348 348 349 350 350 349 349 350 351 352 351 356 354 354 355 352 351 351 350 350 349 351 351 353 354 353 352 348 350 349 349 349 346 343 338
332 335 336 337 339 339 340 348 345 344 343 343 345 347 347 349 349 349 349 350 350 351 353 353 352 354 357 354 356 356 355 353 351 350 352 351 352 352 352 352 352 350 352 349 349 347 344 337 338
333 335 337 338 341 339 340 350 345 345 343 344 343 346 349 347 348 349 348 349 350 351 353 353 353 354 356 356 355 356 355 353 352 354 354 354 351 353 352 352 352 350 350 348 345 345 341 339 338
332 337 337 338 343 340 346 353 349 344 347 343 346 345 348 349 349 348 348 349 349 352 354 355 354 355 359 360 357 355 354 354 351 349 350 353 356 354 353 353 351 351 349 348 345 341 339 338 338
333 335 338 339 342 343 343 353 348 351 349 347 344 345 345 345 348 350 350 349 350 351 353 357 357 357 355 358 357 356 355 352 353 355 353 353 353 353 352 350 350 351 350 348 346 342 340 338 338
333 334 337 338 341 341 340 343 349 350 347 346 346 344 344 346 346 352 352 350 351 352 355 357 359 359 359 357 357 356 355 356 354 354 353 357 355 354 353 354 353 350 345 343 344 341 340 338 341
333 333 335 336 342 345 343 345 351 347 352 348 347 346 345 346 347 349 353 353 352 352 354 358 360 360 362 356 359 357 356 356 353 354 352 354 353 355 353 352 352 352 343 340 340 339 337 340 340
333 334 334 335 338 346 348 348 348 350 352 353 350 348 347 347 346 347 352 352 352 353 356 358 362 362 363 361 359 358 357 353 348 346 350 354 354 354 355 353 352 349 339 339 340 340 334 342 336
331 333 333 334 337 342 344 346 346 349 348 346 350 350 349 349 348 348 350 351 353 353 357 358 364 365 364 364 358 359 355 354 353 353 352 355 355 354 351 350 349 347 338 343 341 339 340 338 341
328 331 337 337 339 341 340 347 350 349 347 346 345 349 351 351 350 350 351 354 354 354 356 359 363 366 366 365 363 357 358 352 355 354 355 355 351 355 351 347 351 348 341 340 340 341 340 339 338
327 329 336 340 340 339 340 342 345 348 346 345 346 347 349 351 350 350 352 353 355 354 356 359 363 366 368 365 365 362 358 357 356 356 352 354 348 347 351 347 350 349 344 340 340 339 338 338 338
327 328 330 333 335 338 338 339 338 341 346 344 342 343 344 350 352 351 353 353 355 355 356 358 364 367 369 368 367 366 362 360 359 357 355 354 349 349 351 350 351 349 344 341 340 338 337 339 338
327 328 328 331 339 342 339 342 344 344 347 347 346 344 341 342 352 352 351 355 354 355 355 358 360 367 369 368 368 367 366 362 359 354 354 352 354 348 346 350 348 350 344 342 341 338 339 337 335
326 327 328 330 334 339 343 342 343 349 349 348 345 342 341 341 350 350 352 351 354 356 356 358 360 365 368 369 367 367 366 365 360 363 360 356 352 350 347 344 349 348 347 342 342 338 337 336 336
328 328 327 329 338 335 337 340 338 344 344 341 342 341 341 341 345 349 352 351 353 354 355 357 360 363 366 367 367 367 367 366 365 361 363 357 359 353 347 348 349 349 345 343 342 338 338 340 338

GFSSGP_925_thetae_009.txt.gz
Theta_e
346 348 354 355 364 361 367 362 359 358 358 353 353 357 359 356 358 360 347 349 348 347 347 345 346 351 349 347 347 346 342 342 345 349 348 346 343 345 347 349 350 350 351 352 352 352 351 350 349
348 354 344 346 364 366 369 358 360 358 354 351 353 354 356 357 350 349 350 349 348 347 348 345 346 345 346 348 347 344 342 346 348 349 348 343 344 346 346 348 351 350 351 352 352 352 352 351 348
355 357 358 361 361 361 363 360 358 358 355 354 354 352 355 355 350 350 349 349 347 349 347 345 344 342 343 344 345 345 342 344 344 347 347 347 345 345 344 345 347 346 350 353 353 352 352 351 347
354 356 354 366 361 359 358 357 355 357 355 353 353 359 350 350 351 350 349 347 349 349 347 346 342 342 341 342 344 343 343 344 345 346 348 347 344 346 341 345 348 351 353 353 353 352 348 347 346
355 358 368 368 358 354 354 355 359 356 355 355 354 357 355 348 348 349 348 351 351 349 346 346 343 342 341 342 342 342 342 344 346 347 348 350 346 345 342 346 347 349 351 352 350 344 342 337 341
353 354 365 354 352 352 351 350 354 353 353 354 355 356 353 349 349 349 350 351 351 349 347 348 347 347 344 343 343 344 344 345 346 346 347 348 344 343 341 344 348 351 352 349 344 342 341 338 339
353 353 356 348 347 348 352 350 355 354 356 356 353 356 351 349 349 350 351 351 350 351 349 350 351 352 350 345 344 346 347 347 346 345 344 342 340 340 338 342 340 340 343 344 341 340 341 341 341
346 351 352 348 347 341 345 345 352 353 356 351 350 355 354 349 350 350 351 350 352 351 350 349 351 353 350 350 349 348 347 347 346 345 340 337 340 339 343 344 346 342 340 340 340 340 342 346 343
347 352 356 351 346 339 339 350 351 350 354 353 352 351 351 350 350 351 352 351 352 352 352 351 351 350 351 347 351 351 349 347 345 342 338 338 347 349 349 350 350 347 342 339 339 341 346 349 350
340 348 349 345 344 339 340 350 350 354 355 355 354 351 351 352 351 351 352 352 352 353 354 352 351 351 350 348 351 345 342 341 339 338 338 348 346 350 351 351 347 342 342 345 345 347 348 349 345
338 343 343 343 343 339 338 339 342 350 355 353 355 354 352 352 352 352 352 352 352 354 354 353 353 352 351 352 343 344 341 345 349 349 350 349 351 349 343 343 342 346 344 348 347 348 349 348 343
338 340 341 342 343 340 338 336 343 343 351 351 352 353 353 352 352 351 351 351 353 353 352 353 354 352 354 353 345 346 348 348 349 349 351 353 353 349 341 340 347 348 347 348 347 348 349 344 343
336 338 340 341 342 339 339 339 343 343 351 351 350 351 353 352 351 351 350 351 352 351 353 353 350 353 355 352 347 350 350 349 350 350 348 348 350 350 347 347 348 350 349 346 348 349 344 346 345
333 335 339 339 336 341 341 339 340 346 352 353 352 350 350 353 352 351 349 350 350 355 354 352 351 352 355 352 353 352 352 352 351 352 350 349 350 351 350 351 349 350 350 348 348 346 346 344 343
331 331 332 334 335 338 342 343 341 344 347 353 353 351 350 349 350 349 349 349 352 354 356 354 352 349 350 352 354 353 352 348 347 350 352 351 349 349 352 352 350 350 350 350 348 347 345 342 342
329 327 329 332 334 335 339 347 344 339 346 350 351 352 351 350 348 348 348 350 348 352 356 355 354 350 353 352 353 352 353 352 347 349 353 351 351 350 353 349 351 350 349 350 348 347 347 341 338
325 327 328 331 334 338 339 342 340 336 344 346 348 348 350 350 348 350 349 349 349 350 354 356 355 352 352 352 351 352 351 350 352 350 351 353 351 351 350 350 350 350 350 349 348 347 343 339 334
326 328 328 331 336 338 341 341 343 340 339 346 345 345 347 348 348 350 349 349 350 350 353 354 355 356 354 348 351 353 352 350 355 351 352 351 350 350 350 350 353 350 350 347 346 344 340 337 339
327 328 330 332 337 339 346 347 345 338 340 340 346 345 345 346 345 349 350 349 350 351 351 352 352 357 356 353 353 354 354 356 353 349 351 353 351 351 352 349 351 352 349 346 345 341 337 337 339
326 328 329 331 338 338 347 348 344 341 338 339 342 345 345 345 345 347 348 349 351 352 353 352 351 354 357 355 354 353 355 354 352 349 347 351 352 353 350 349 348 349 351 347 345 340 337 338 337
327 328 329 331 337 340 347 351 348 340 342 341 342 342 345 345 345 346 347 348 349 352 354 353 351 350 358 357 357 354 354 353 354 354 353 354 353 350 351 350 350 350 348 347 345 338 335 337 340
328 329 330 331 333 339 343 350 350 345 352 350 346 342 343 345 345 346 347 348 349 353 353 354 353 352 354 357 357 357 356 355 354 355 353 352 354 353 353 352 352 351 344 342 340 341 339 339 338
329 330 330 331 332 340 342 342 343 347 350 347 345 342 341 342 343 346 348 348 349 350 353 356 355 354 356 355 356 356 355 353 354 355 354 352 357 355 355 353 353 351 344 336 339 338 333 339 337
325 329 330 330 331 333 339 341 343 345 350 348 346 344 342 341 342 346 348 349 349 352 354 356 359 358 359 358 357 357 356 354 354 351 352 354 356 352 350 352 351 351 345 337 340 339 332 341 341
323 323 328 330 332 332 330 340 343 343 342 345 346 344 344 342 342 342 347 349 349 352 354 359 360 361 361 360 357 359 358 355 352 349 354 356 353 354 354 354 352 349 343 339 339 337 338 338 339
322 323 326 330 333 332 330 335 336 341 343 345 346 346 345 344 343 343 347 348 350 351 355 358 361 361 362 362 360 356 359 356 352 355 356 354 353 354 352 351 348 347 344 340 338 340 337 339 335
323 322 323 323 328 331 332 331 332 340 341 343 343 344 345 344 343 344 345 348 350 351 357 357 363 363 363 364 363 361 357 357 356 353 353 355 353 355 352 349 348 349 348 338 340 339 337 340 337
323 324 323 323 325 330 331 333 336 336 343 344 343 342 342 342 342 345 345 348 351 352 355 358 361 364 365 363 364 363 361 357 356 355 350 357 351 348 349 350 347 350 348 342 340 339 336 337 339
324 322 321 321 324 327 332 333 331 334 342 344 342 341 340 343 344 345 346 348 351 352 355 357 361 364 365 366 365 364 362 360 357 357 353 355 355 350 350 349 349 350 348 343 341 340 337 338 336
324 323 320 323 323 326 325 328 332 331 341 343 341 341 337 338 342 346 346 348 352 353 353 357 363 364 365 366 366 365 364 363 361 357 358 356 355 353 351 349 348 349 349 345 341 341 339 336 339

GFSSGP_925_thetae_012.txt.gz
Theta_e
351 351 351 352 362 363 364 363 358 359 358 353 353 357 357 354 355 359 345 346 343 344 344 344 346 348 349 346 343 343 341 340 346 341 341 346 343 349 349 351 352 352 352 352 352 351 346 346 344
353 352 345 348 363 366 366 359 358 357 355 353 354 354 354 356 349 347 347 344 344 344 344 344 347 349 349 346 345 346 349 349 349 344 345 344 344 348 351 352 352 352 352 352 351 351 352 347 343
348 349 354 361 361 362 361 356 358 355 353 351 355 352 352 354 349 348 346 347 346 345 344 344 347 348 349 345 347 349 350 349 347 342 340 340 344 351 352 352 351 349 348 352 352 351 349 348 344
344 343 347 369 363 356 360 360 358 357 353 352 353 354 351 349 349 349 349 347 347 346 345 348 347 351 350 350 348 350 343 343 346 343 341 343 351 353 350 350 350 350 350 348 351 346 343 343 343
342 352 363 366 361 356 357 352 357 358 355 354 350 355 354 349 349 349 347 347 348 345 344 347 344 345 348 350 348 344 340 342 343 343 343 345 350 346 348 348 347 349 350 349 344 342 339 340 341
349 354 364 356 352 355 357 354 358 356 355 354 354 353 350 349 349 348 347 348 348 346 345 344 345 341 343 349 346 342 341 342 345 344 344 344 345 341 341 343 346 347 349 347 342 341 341 339 340
351 351 358 349 353 358 358 355 355 356 355 356 351 354 350 349 349 349 349 349 348 345 346 347 348 348 348 344 345 343 341 343 344 342 341 343 342 339 340 341 343 343 346 344 340 342 343 342 343
345 350 350 350 350 350 352 352 352 354 356 350 349 355 354 348 349 350 351 350 348 347 347 349 350 351 347 343 351 351 349 344 342 340 339 340 342 340 346 345 349 343 343 342 339 344 347 348 347
346 350 351 349 349 348 352 354 352 351 353 351 351 350 348 348 350 351 349 350 349 348 348 350 351 350 345 345 351 352 352 345 342 339 336 338 345 348 349 349 349 344 343 340 341 346 348 347 347
347 347 348 345 344 346 352 353 354 354 354 354 352 349 348 350 350 350 350 350 351 351 349 348 351 349 348 349 350 344 346 341 338 336 334 342 348 349 349 349 345 341 343 345 346 347 348 345 343
336 341 342 345 344 347 352 354 353 354 357 353 355 352 350 350 350 350 350 351 352 351 350 348 348 348 348 344 346 342 342 339 336 335 339 346 349 348 348 342 342 344 343 347 346 348 344 346 346
334 335 339 342 341 342 350 351 356 354 353 351 351 350 350 350 350 351 351 351 352 352 352 350 347 347 344 340 343 340 338 339 345 348 349 350 349 348 341 343 346 347 347 347 346 347 347 347 340
331 332 335 340 341 338 337 349 355 353 352 351 351 351 352 350 350 350 351 351 352 353 353 351 350 348 347 347 341 342 339 345 347 347 349 352 351 349 346 345 345 347 347 345 344 345 346 348 345
331 331 331 338 339 339 337 342 347 352 352 353 352 353 352 351 351 350 350 351 351 353 352 353 352 350 351 354 348 345 347 347 348 349 349 352 349 350 347 347 348 349 349 348 348 347 347 344 341
330 329 328 328 336 339 339 347 355 352 352 354 354 353 352 351 350 349 350 350 351 351 352 353 353 352 353 354 349 349 350 351 351 350 351 350 350 350 349 349 349 349 347 349 348 347 344 341 339
325 325 326 327 330 339 338 347 355 352 353 356 355 355 354 351 350 349 348 349 350 351 352 352 353 352 354 352 352 354 355 352 352 351 351 351 351 350 350 350 349 348 348 347 348 347 346 340 337
321 324 325 325 328 341 340 342 346 352 352 353 352 354 353 352 351 350 349 348 349 352 353 352 352 352 353 353 352 354 352 351 350 349 349 352 350 349 349 349 347 349 348 349 348 347 344 339 333
323 324 324 325 327 337 339 340 341 353 353 354 352 351 350 352 352 349 349 348 350 353 354 353 353 349 351 350 351 351 351 351 351 351 351 351 351 351 350 348 350 349 350 350 347 345 341 336 338
322 323 324 326 327 339 339 339 340 348 352 353 353 352 351 350 347 348 347 348 349 352 354 355 355 351 350 352 354 351 351 350 348 354 351 350 352 351 350 349 350 351 351 349 346 342 337 337 338
322 323 324 325 327 337 340 341 341 344 346 349 349 350 350 350 348 347 347 348 349 352 354 355 354 352 352 352 352 350 350 350 347 354 352 349 351 350 349 349 350 351 350 349 346 343 333 337 339
322 322 323 325 327 336 343 345 343 340 341 343 345 345 347 348 347 347 347 348 350 352 353 353 354 354 353 353 349 351 351 350 354 354 352 351 350 351 351 352 349 348 350 350 345 343 333 338 339
322 324 324 326 327 329 342 344 348 343 341 339 344 344 344 345 345 346 348 348 349 351 352 352 353 354 355 355 353 353 353 354 355 354 352 352 352 351 353 350 348 347 349 347 345 339 333 337 337
323 324 326 327 327 328 333 341 342 345 344 346 342 342 344 343 344 344 347 348 348 350 352 352 351 354 355 356 354 354 353 352 352 352 352 353 352 354 352 352 350 349 348 342 341 338 339 338 336
323 322 324 326 326 329 334 341 337 346 345 344 344 342 342 344 343 343 345 347 348 349 351 352 351 352 354 356 356 356 355 354 352 352 353 354 354 353 353 352 352 352 348 341 338 337 336 338 337
320 318 321 325 327 329 326 335 337 340 344 343 345 341 341 342 343 343 344 345 346 347 351 353 353 352 354 357 357 356 355 355 353 352 352 355 354 354 354 354 352 350 349 342 335 339 338 337 339
318 319 321 323 326 327 326 330 333 337 342 344 343 342 341 340 342 343 343 345 345 347 351 353 354 354 355 355 356 355 355 354 353 352 352 352 353 355 354 351 352 349 349 344 336 338 335 334 337
322 317 319 318 323 325 327 328 327 329 337 343 344 342 342 340 340 342 344 345 346 347 350 353 356 355 356 356 355 355 355 355 355 354 355 351 352 353 352 351 353 351 349 344 335 336 337 335 337
320 319 320 315 321 323 324 327 331 329 331 336 341 343 343 341 340 341 342 345 347 347 351 354 356 356 357 357 356 355 356 356 356 355 353 356 355 354 352 353 353 351 348 345 339 337 337 335 338
322 320 317 317 318 322 322 324 324 327 328 333 342 344 343 343 342 340 341 345 347 348 352 355 356 356 358 359 358 358 357 355 358 357 355 353 354 352 352 353 351 349 347 347 341 337 337 335 337
323 322 317 321 319 319 322 324 328 326 326 333 338 341 345 344 341 341 341 343 346 349 352 354 357 357 358 359 359 359 359 358 356 356 355 355 354 355 353 354 352 349 348 348 344 341 338 336 335

GFSSGP_925_thetae_015.txt.gz
Theta_e
352 353 351 351 361 360 363 363 357 355 357 354 352 352 355 353 355 355 344 344 344 343 343 343 343 351 350 349 350 342 340 338 338 341 345 351 350 351 352 350 351 351 350 351 351 349 347 347 348
353 350 346 346 362 365 364 359 359 357 356 352 353 353 354 357 348 345 346 344 343 344 343 344 345 349 349 350 346 342 345 340 341 341 350 351 351 351 351 350 350 350 351 351 349 351 350 347 344
353 349 354 359 358 364 364 357 358 356 354 352 355 351 352 354 346 345 345 343 344 344 344 346 347 348 349 351 347 350 351 343 340 345 349 351 349 350 348 351 350 351 349 351 348 347 347 343 341
345 346 350 365 362 358 359 359 356 355 353 351 352 355 350 347 346 347 344 343 343 344 345 349 350 351 350 351 351 350 347 344 342 347 344 344 345 352 352 351 351 349 349 349 349 344 345 343 341
345 352 361 367 360 356 357 352 357 357 355 354 351 354 353 348 348 345 346 344 343 343 345 349 348 348 350 351 351 346 347 345 342 343 343 342 348 351 346 347 348 348 347 346 344 344 343 343 345
350 351 362 360 352 355 356 349 357 357 354 353 352 352 351 348 347 348 347 345 343 344 348 349 349 347 350 351 350 346 344 340 341 343 342 344 348 345 347 347 348 348 346 344 342 343 342 342 345
351 351 355 351 356 359 357 352 358 356 354 353 349 353 349 348 348 347 346 345 344 344 347 346 350 351 352 351 350 346 342 339 341 343 342 343 346 342 344 344 344 343 342 340 341 343 343 343 344
347 345 352 349 359 359 356 355 353 354 355 348 348 354 353 348 347 347 347 347 345 344 344 346 348 351 350 350 351 349 343 341 342 340 340 344 344 344 345 346 348 346 341 339 342 346 347 347 344
347 350 351 347 348 350 352 356 352 351 353 350 349 349 347 348 348 349 349 349 350 348 345 345 347 349 346 345 348 352 346 343 344 341 338 341 344 345 348 348 348 345 342 340 346 347 345 342 344
350 348 348 342 343 352 353 353 354 354 354 353 351 348 348 348 349 349 349 349 350 350 349 347 346 348 345 344 347 350 349 347 344 340 337 340 346 348 349 348 347 342 343 344 346 346 343 344 345
351 355 346 343 341 350 352 353 352 355 355 352 352 350 348 349 349 349 349 349 349 349 349 349 349 349 346 343 345 348 346 344 340 336 336 343 347 348 347 343 343 342 342 346 346 346 345 343 341
338 344 348 341 336 351 353 351 353 352 351 349 348 348 348 350 349 349 349 350 350 350 349 348 349 348 345 343 344 342 342 341 337 334 336 342 348 347 345 341 343 345 345 344 345 344 343 343 340
337 336 332 333 336 348 350 354 354 352 350 348 348 348 349 349 349 349 350 350 350 349 349 347 348 347 346 344 340 340 339 339 336 339 344 346 349 348 347 346 346 345 346 345 345 345 347 348 344
327 328 329 329 328 348 353 354 353 351 350 351 350 350 349 349 349 349 350 350 350 350 349 348 347 345 345 343 338 340 340 338 340 345 348 349 351 350 346 344 346 347 347 346 347 348 347 343 341
327 329 325 326 327 344 348 354 357 351 352 352 351 351 350 349 349 349 350 350 351 351 351 349 346 345 344 340 338 340 340 340 344 347 348 348 350 349 348 346 348 348 345 348 348 347 344 341 336
324 323 326 326 327 330 344 348 350 352 353 354 353 352 351 350 349 349 350 350 351 352 351 350 349 346 346 345 347 347 344 346 348 348 348 349 350 350 349 348 349 348 347 348 347 347 345 341 336
319 326 325 325 325 338 338 344 353 352 353 354 353 353 353 351 350 349 349 349 350 351 352 351 352 350 349 350 353 350 347 350 353 353 352 350 350 350 349 350 348 347 349 349 348 346 346 340 333
323 323 323 324 326 337 338 341 354 353 354 354 353 353 353 352 351 349 348 348 349 350 350 351 352 352 351 350 352 351 353 353 350 350 349 350 351 350 349 349 348 347 348 348 348 346 343 335 338
322 323 323 323 327 336 337 339 356 354 354 355 355 354 354 352 349 349 348 347 348 349 350 351 351 352 352 352 353 352 354 353 351 351 350 350 351 350 350 350 348 349 348 349 348 344 339 335 337
321 321 322 321 323 327 333 337 354 354 354 354 355 355 354 353 351 349 349 348 347 349 351 351 351 352 351 352 352 352 353 352 351 349 352 351 350 351 351 351 348 349 350 350 347 344 338 335 338
320 320 322 322 323 328 339 342 343 355 353 352 351 351 352 351 352 351 348 348 347 349 352 352 352 352 351 351 351 352 351 350 350 350 349 352 351 352 350 350 349 349 350 350 348 343 340 335 337
320 320 322 322 324 324 337 342 342 344 355 352 351 351 350 349 348 348 348 346 347 348 351 352 353 352 352 351 350 351 351 350 351 350 348 353 352 351 351 350 350 349 349 348 349 344 338 336 338
323 323 323 325 324 325 327 335 334 340 345 345 347 348 348 348 347 347 346 346 347 348 350 352 353 353 352 350 351 351 350 349 349 349 349 352 352 351 350 350 351 348 346 348 348 344 337 334 337
323 322 320 322 321 324 325 328 329 343 341 341 341 343 345 346 346 346 346 346 347 348 350 352 352 353 352 351 351 352 351 351 351 349 351 353 352 352 351 352 352 349 348 347 345 342 338 336 336
321 317 320 319 322 325 322 328 329 332 341 340 340 340 343 342 344 344 344 345 346 348 350 351 350 353 353 353 353 352 352 352 352 350 351 351 352 352 353 353 352 351 350 349 342 339 336 334 336
318 319 316 320 322 324 322 326 327 331 334 340 340 339 339 342 341 342 343 343 346 347 349 350 350 351 354 354 353 353 353 352 352 353 351 350 351 352 354 353 353 352 351 349 343 337 336 337 336
319 320 319 317 319 319 323 324 325 327 329 336 339 339 340 340 341 342 342 342 344 346 347 350 350 350 353 354 354 354 354 353 353 353 352 351 350 352 354 352 353 353 352 350 346 338 337 337 333
320 317 320 311 321 322 320 323 324 326 326 332 339 339 339 339 339 341 341 342 343 345 346 349 351 350 350 352 354 354 354 354 354 353 353 352 350 352 351 352 353 352 351 349 347 339 336 335 334
317 320 316 315 315 320 321 322 321 325 326 327 333 339 340 339 339 339 340 341 342 344 345 348 351 351 351 351 353 353 354 354 354 354 353 351 351 352 351 351 354 350 351 350 347 340 336 336 334
318 319 315 319 318 315 319 320 321 324 324 324 326 332 335 339 340 338 338 339 342 344 345 348 350 352 351 352 353 353 353 354 354 354 353 351 353 353 354 353 353 351 351 352 349 343 340 336 335

GFSSGP_925_thetae_018.txt.gz
Theta_e
351 353 350 350 361 359 363 362 356 354 357 353 350 351 354 353 355 353 344 344 343 343 343 343 343 344 351 348 346 347 341 341 346 345 348 351 352 350 350 351 350 351 351 351 350 350 349 347 342
354 351 349 346 359 360 361 358 358 357 354 351 352 352 354 356 347 346 345 344 343 343 343 343 345 349 349 346 346 347 349 350 350 346 350 351 349 351 351 351 351 350 348 349 348 349 342 342 341
351 350 352 355 356 361 360 355 357 355 353 354 353 350 351 353 345 344 345 344 343 343 343 343 346 347 349 346 350 351 351 350 346 351 351 346 351 351 350 350 351 348 348 348 350 346 343 341 341
350 346 351 363 362 358 355 357 355 356 352 351 351 354 349 346 344 345 344 343 343 343 344 347 351 350 351 350 353 352 350 339 347 346 343 346 349 349 350 351 352 351 350 351 350 347 343 344 340
346 350 360 364 362 356 355 355 356 355 355 352 351 353 350 346 347 345 344 343 343 343 346 349 349 348 351 351 352 352 344 345 341 342 344 346 348 351 349 350 351 351 352 347 344 342 342 342 342
349 352 359 359 352 355 353 349 357 355 353 351 350 352 351 346 345 346 344 343 343 344 346 348 348 349 351 351 351 349 345 345 342 341 342 341 344 346 347 347 351 352 352 344 342 341 342 344 344
349 349 355 354 354 359 357 350 358 353 353 352 347 354 350 346 346 346 344 343 343 344 346 346 348 350 351 350 349 345 343 343 340 342 341 342 343 344 345 346 345 346 346 343 343 343 343 343 343
348 343 352 347 358 358 356 354 352 352 354 347 347 353 352 347 347 346 345 344 343 345 347 347 347 349 350 350 351 345 342 343 340 340 343 344 346 343 344 347 346 342 341 342 345 346 345 342 343
346 351 352 347 354 352 354 355 352 350 350 349 347 348 346 347 346 347 347 346 346 347 347 347 348 349 348 348 350 350 348 344 341 342 342 345 343 347 347 348 347 341 340 343 345 344 340 342 342
351 349 349 343 343 350 354 354 353 354 351 352 350 346 347 346 347 347 348 347 348 349 348 345 346 347 348 347 345 348 348 347 344 341 340 341 343 347 348 348 347 341 340 344 345 342 343 344 344
353 357 347 344 342 345 353 353 351 354 353 351 351 349 347 347 347 348 348 347 348 348 347 345 345 345 346 344 343 349 347 345 343 341 338 340 345 347 348 344 343 342 341 344 345 345 343 342 339
347 344 350 346 340 349 352 350 353 353 350 347 347 347 347 348 348 348 348 348 348 348 346 344 344 345 346 342 342 345 346 344 342 340 337 341 347 347 345 344 340 343 344 345 345 344 343 342 341
344 342 335 336 335 342 349 352 353 353 349 347 346 347 348 348 348 348 348 348 348 348 348 346 346 345 345 345 341 343 344 340 338 338 337 339 345 347 347 344 344 345 345 344 344 344 346 347 344
326 330 334 327 327 339 352 352 352 351 348 348 348 348 348 348 348 348 349 349 348 347 348 347 347 347 347 345 342 341 340 338 339 337 338 342 347 349 348 344 345 346 345 345 346 346 346 343 341
323 327 326 325 326 341 349 355 355 350 349 349 349 348 348 349 348 348 349 349 349 348 347 347 346 347 347 344 342 340 338 339 339 338 342 347 348 348 349 345 345 347 346 347 347 347 344 340 336
322 322 325 326 328 339 350 357 354 350 351 351 349 349 349 348 349 348 349 349 349 349 348 346 346 346 345 344 342 339 339 340 339 340 344 347 348 349 349 348 347 348 346 344 346 347 346 343 335
319 325 324 325 324 333 350 344 350 351 352 352 350 350 350 349 348 348 349 349 349 350 349 348 348 347 345 343 342 338 339 341 342 343 346 348 348 349 349 349 348 349 348 348 348 347 345 340 334
323 322 323 325 327 338 344 339 349 352 352 353 352 351 351 350 348 348 349 349 349 350 350 350 348 347 345 344 343 341 346 348 346 349 352 351 351 350 348 347 349 348 348 348 347 346 344 335 337
322 322 324 323 324 331 335 342 355 353 353 353 353 352 351 350 348 348 348 349 348 350 350 350 350 349 348 347 349 349 352 352 348 351 349 350 349 350 350 349 349 348 347 348 348 345 341 334 337
320 321 321 321 322 323 322 329 353 354 354 353 353 353 352 351 349 349 348 348 348 349 349 350 350 350 351 350 349 350 351 351 352 351 348 348 349 349 350 350 350 349 349 348 349 345 340 333 337
319 320 321 323 322 323 331 335 337 353 353 353 352 351 351 351 350 349 348 347 347 348 348 349 350 350 351 351 350 350 351 351 353 352 350 350 350 350 350 350 351 349 348 349 350 346 341 333 337
319 318 321 321 320 322 331 332 339 350 356 354 353 353 352 351 350 349 348 348 347 347 348 349 349 350 350 351 351 350 351 351 351 352 351 349 350 350 350 351 351 349 349 348 349 348 343 333 336
322 320 320 321 321 321 326 326 326 345 357 354 352 351 352 351 351 350 349 348 348 346 347 349 350 350 350 350 351 350 350 350 350 350 350 349 349 350 350 350 350 349 350 347 347 347 344 336 336
320 322 317 317 318 322 322 324 324 340 352 354 351 351 350 349 349 348 349 349 348 347 346 348 350 350 350 350 351 350 349 349 349 349 348 348 349 350 352 350 350 350 350 347 345 348 344 338 333
320 318 320 320 321 325 319 323 326 327 338 341 349 348 348 348 348 347 346 347 348 346 346 348 350 351 351 350 350 350 349 349 349 350 348 349 349 351 351 351 351 351 351 349 347 346 343 338 334
318 316 318 322 320 322 319 323 324 324 331 337 337 341 343 346 347 347 346 345 346 346 346 348 350 350 351 350 350 350 350 349 350 350 349 349 346 347 350 350 351 352 352 350 349 346 342 336 334
317 320 316 315 317 317 319 321 323 325 325 332 336 337 337 340 343 344 345 345 345 346 346 348 349 350 351 351 350 350 350 350 350 350 350 350 348 348 348 349 351 352 352 351 350 347 341 336 336
316 315 319 311 321 321 319 320 325 324 327 327 334 337 337 337 338 341 342 343 344 345 346 347 349 349 350 351 351 351 351 351 351 351 351 351 351 350 348 350 352 353 352 352 351 348 344 338 336
317 316 314 316 313 318 319 321 317 323 324 325 327 334 336 337 337 338 340 341 342 343 345 347 349 349 349 351 352 352 352 352 351 351 352 351 351 351 351 349 351 352 352 352 351 350 346 340 336
322 320 315 319 317 312 315 320 320 319 322 324 325 329 335 336 336 337 338 339 340 341 343 345 348 349 349 349 352 352 352 352 352 352 352 351 352 352 351 349 351 351 351 352 351 350 347 342 337

GFSSGP_925_thetae_021.txt.gz
Theta_e
350 351 351 350 364 362 365 363 357 354 355 353 350 353 354 353 354 358 347 346 347 346 347 346 344 349 351 349 350 349 345 345 341 346 350 351 351 351 350 350 349 349 350 351 351 350 350 343 345
353 352 350 349 362 365 364 359 358 356 355 352 352 353 355 356 347 348 347 345 345 346 347 347 345 349 349 349 348 347 350 347 345 351 351 351 352 350 352 351 349 346 348 347 350 345 344 343 344
353 350 352 359 359 362 364 357 358 355 352 353 355 351 353 354 347 347 346 345 345 346 346 346 347 348 350 348 347 349 350 350 351 351 351 351 351 351 351 349 346 345 345 347 351 346 345 342 342
351 349 351 364 361 358 355 357 356 356 353 352 352 356 349 347 346 346 345 345 345 346 346 346 350 351 349 347 349 351 351 351 351 351 348 348 351 352 349 347 348 346 347 346 348 344 344 344 343
349 349 362 363 356 357 356 355 355 356 355 354 352 353 351 347 347 346 345 345 345 346 347 349 350 349 348 349 350 351 350 350 349 346 346 348 351 351 349 351 348 348 351 345 343 342 343 343 344
353 354 358 358 354 357 353 355 355 355 354 352 351 352 352 348 346 345 345 345 346 347 348 350 348 348 347 352 351 350 350 346 344 346 347 347 349 349 351 352 350 352 351 342 341 342 343 343 342
353 354 356 355 353 357 356 354 357 356 355 352 349 354 351 347 346 345 345 346 346 348 349 350 347 351 351 351 351 351 346 343 343 346 345 343 345 346 345 345 349 350 346 342 342 343 343 343 343
352 350 356 352 355 358 355 352 354 355 355 346 347 354 353 348 346 346 346 346 347 348 348 351 347 348 349 350 351 350 343 344 343 344 343 340 340 343 346 346 345 342 342 344 346 343 341 342 342
348 361 359 351 355 354 355 357 353 350 351 348 348 348 346 347 346 346 346 346 347 348 348 349 348 349 351 350 350 351 344 344 345 344 342 344 350 351 351 348 345 342 343 345 345 340 341 342 342
356 360 354 348 349 343 355 355 355 355 352 351 351 347 346 346 346 346 346 346 346 347 347 348 349 348 349 348 350 351 350 349 350 349 350 351 346 346 348 349 345 341 342 345 343 341 342 344 342
359 360 353 347 344 342 350 355 354 355 356 351 353 350 347 346 346 346 346 346 346 346 347 347 349 350 349 348 349 350 349 349 350 351 348 348 349 347 350 347 346 342 344 347 348 347 342 342 343
360 354 352 345 343 344 350 354 355 355 353 348 348 347 347 348 347 346 346 346 346 346 347 347 348 349 349 349 348 348 349 349 349 349 341 342 349 347 347 348 341 341 342 346 344 346 344 344 346
357 348 343 341 341 338 342 354 354 355 350 348 349 348 348 347 346 346 345 346 347 347 347 347 349 350 350 350 348 348 350 349 349 349 345 344 349 348 347 344 343 344 344 346 344 346 343 346 345
339 337 330 333 335 332 342 348 353 353 351 351 351 350 348 347 346 347 347 348 349 348 348 348 349 349 350 350 350 349 349 350 349 347 346 337 344 346 348 347 345 346 345 346 346 347 345 341 344
327 326 327 328 330 330 337 352 354 352 352 353 352 350 349 348 346 347 348 349 350 349 349 350 350 350 350 350 350 349 348 348 347 346 336 339 344 347 349 348 344 346 347 346 346 347 346 341 338
326 326 327 329 328 333 340 337 350 352 353 354 352 350 350 349 348 348 349 350 350 350 350 350 350 350 351 351 350 348 348 347 346 346 343 341 346 348 348 349 348 347 348 344 342 344 346 345 338
324 329 329 330 329 339 346 338 342 352 353 355 353 351 350 350 349 349 349 350 350 351 350 350 350 350 351 351 349 348 348 346 347 346 345 342 345 347 348 349 351 348 350 346 346 347 347 342 339
325 325 327 330 330 332 343 344 345 353 354 355 354 352 351 351 351 349 349 349 350 351 351 351 350 350 351 350 350 348 348 346 346 347 348 344 347 348 348 349 347 348 351 349 350 347 344 339 340
322 325 327 328 328 334 339 343 347 354 355 355 355 353 352 351 349 349 349 349 350 351 352 352 351 350 350 349 348 347 347 347 349 349 347 350 350 350 351 352 348 348 350 349 348 347 344 339 339
322 323 327 326 326 326 330 334 335 351 356 355 356 354 353 352 351 350 349 350 350 351 351 352 352 351 350 349 348 348 348 349 352 351 349 350 349 349 349 350 352 349 351 348 349 346 343 338 339
322 322 325 327 325 325 328 331 334 348 352 354 354 353 352 352 352 351 350 349 350 350 352 352 352 351 351 349 350 351 352 353 353 353 353 351 348 348 348 349 352 350 351 351 350 348 344 342 340
321 321 323 325 326 330 331 335 338 340 353 354 355 355 354 353 352 351 351 350 350 351 351 351 352 352 353 352 351 351 351 351 352 352 353 353 349 349 349 349 350 350 352 352 351 349 346 342 339
321 321 322 325 327 327 328 332 334 343 352 355 354 354 353 353 353 353 352 350 350 350 351 351 351 351 352 352 352 353 352 351 352 352 353 353 352 350 350 349 350 351 352 351 352 348 347 343 339
325 324 325 325 327 329 329 329 333 335 341 348 352 353 354 353 352 352 351 350 351 350 350 350 351 351 351 352 353 353 353 352 352 352 352 353 353 352 350 350 350 350 352 350 351 347 347 344 338
324 324 327 326 327 329 329 329 332 332 338 337 349 352 353 353 353 353 354 353 352 351 350 349 351 352 352 352 352 353 352 353 352 352 352 351 352 352 352 349 351 352 350 350 350 346 347 345 340
324 324 324 327 326 326 329 330 331 330 331 338 341 347 350 352 352 353 355 354 353 352 351 350 350 352 352 352 352 352 352 353 353 352 351 352 352 352 353 350 352 350 350 350 350 348 347 345 341
324 326 323 323 322 324 326 327 328 329 330 334 338 340 345 349 351 352 354 353 353 353 352 351 350 351 352 352 352 352 352 352 352 352 351 352 352 352 353 348 350 350 350 351 351 349 348 345 340
323 324 323 323 324 325 326 328 329 333 332 332 336 338 340 341 346 349 351 352 351 351 352 351 351 351 352 352 352 353 352 352 352 352 352 352 352 350 352 350 353 352 350 352 352 350 349 346 341
322 324 323 324 323 323 323 324 329 333 337 336 335 336 337 340 341 344 348 349 350 349 350 351 350 351 353 353 353 353 353 352 352 352 352 351 352 351 352 351 350 353 351 352 352 351 349 347 343
324 324 324 325 327 323 324 324 325 329 332 334 334 335 336 341 342 343 343 345 347 349 349 349 350 351 352 353 353 353 353 353 353 353 353 352 351 351 351 352 351 353 354 353 352 351 350 348 345

GFSSGP_925_thetae_024.txt.gz
Theta_e
348 351 352 352 369 365 366 364 357 356 357 353 350 355 356 354 356 366 349 347 350 347 347 349 347 350 349 347 350 352 352 350 351 346 347 349 348 347 349 349 350 351 351 351 351 351 350 349 347
350 352 352 355 367 369 368 360 358 356 355 353 354 354 356 356 350 351 350 349 349 349 348 349 346 347 351 351 350 352 352 351 347 348 351 348 348 348 350 346 346 349 347 350 351 349 350 349 346
353 352 356 360 362 363 364 360 359 355 353 354 356 354 356 357 350 350 349 349 348 349 349 349 349 350 351 352 351 351 351 351 350 350 349 349 351 350 348 346 346 346 347 351 350 349 347 346 342
353 352 353 367 360 357 358 359 356 356 355 353 354 359 352 349 349 348 348 348 348 348 348 347 351 352 351 351 351 352 351 351 351 350 351 350 352 352 346 347 346 349 350 347 344 342 346 343 343
352 350 364 366 357 356 356 357 356 357 356 355 354 357 354 348 348 347 347 347 347 348 348 348 349 349 350 351 351 352 352 351 351 350 352 352 352 350 348 346 351 351 343 342 343 344 344 344 344
358 356 361 353 353 356 355 355 356 356 355 355 354 355 355 349 348 348 347 347 347 348 347 348 349 349 347 350 352 352 352 351 351 351 352 352 351 349 351 353 353 351 344 343 343 344 343 342 342
359 357 355 353 353 356 356 354 356 356 357 355 351 358 354 349 348 347 347 347 347 347 345 346 348 349 351 352 352 352 351 351 350 348 350 345 345 346 350 347 351 351 347 343 343 343 343 343 341
354 356 354 351 353 358 355 355 355 355 357 349 350 357 357 350 348 347 347 347 347 348 345 345 347 347 350 350 352 351 351 351 348 346 343 340 342 345 346 346 342 344 344 345 342 342 342 343 341
351 360 354 351 352 353 354 358 355 353 353 350 350 350 350 349 348 348 348 348 348 348 346 344 345 346 348 348 349 349 350 351 343 342 341 347 351 352 351 347 342 343 345 345 340 341 341 339 337
356 358 350 347 345 345 349 355 357 355 354 351 352 349 349 348 348 348 349 349 350 348 347 344 344 346 347 346 348 348 346 345 347 346 349 351 351 353 351 349 343 343 344 344 341 341 342 344 339
352 356 348 346 344 343 346 355 355 354 354 352 355 353 350 348 348 348 348 347 347 347 346 346 345 346 346 345 347 346 346 347 349 351 350 351 353 352 351 350 350 346 345 349 347 347 346 340 343
354 350 351 346 343 342 342 350 356 354 351 350 351 350 350 350 349 348 347 346 346 347 347 347 347 347 346 346 346 346 345 346 347 347 350 351 352 352 351 349 349 348 347 349 347 347 346 347 345
352 347 344 344 342 341 338 345 350 354 350 349 351 350 350 350 348 347 346 346 345 346 347 347 348 349 348 348 345 344 345 345 346 348 348 350 352 353 352 351 350 350 348 348 347 347 345 348 347
344 346 343 334 336 338 336 342 348 351 351 351 352 351 350 349 348 347 346 346 346 346 347 347 348 349 349 349 348 347 347 347 348 347 345 350 352 353 352 352 350 350 350 351 348 346 349 344 345
340 339 333 332 334 335 334 338 347 349 353 354 353 351 350 349 348 348 347 347 347 347 347 348 349 350 350 351 351 350 348 348 347 345 346 349 352 354 352 353 351 349 350 349 349 348 349 344 340
331 332 335 336 336 334 336 341 346 350 354 356 355 353 351 350 347 347 347 347 347 349 350 350 350 350 351 351 351 350 347 347 345 343 344 349 352 355 355 353 351 351 351 349 348 348 347 345 342
329 335 337 338 335 337 339 341 342 350 353 356 356 355 353 351 348 347 347 348 349 351 352 353 352 351 352 353 352 351 348 347 345 344 344 350 352 354 355 353 352 353 353 350 349 349 348 343 340
333 332 335 337 337 336 338 341 340 347 350 353 357 355 353 352 351 348 348 348 350 351 353 353 353 353 353 353 353 350 347 347 346 345 345 349 352 354 356 354 351 351 353 351 351 350 347 342 335
331 332 334 334 336 335 338 338 339 344 351 351 356 356 355 353 350 348 349 349 350 351 353 353 353 353 354 353 352 349 347 346 346 346 349 352 354 356 357 355 352 351 352 351 350 350 348 342 338
327 329 331 333 333 332 336 337 338 341 350 351 355 356 355 354 352 350 350 350 349 351 352 354 353 354 355 353 350 348 346 346 347 347 350 353 355 357 357 353 353 352 352 352 352 348 346 343 337
326 327 329 332 333 331 333 336 336 335 340 347 351 353 354 354 354 352 351 349 349 350 353 354 355 354 355 352 351 350 348 348 348 349 352 354 356 357 358 354 351 354 353 352 354 351 349 344 339
326 325 326 328 331 336 335 340 340 338 340 343 348 351 353 354 354 353 351 350 349 350 352 354 355 356 356 354 350 350 349 350 350 351 350 352 356 356 356 357 356 355 353 354 354 352 350 350 341
324 323 324 325 327 331 334 337 337 338 338 340 344 348 352 353 354 354 353 349 348 350 351 354 356 357 356 356 351 352 352 351 351 351 350 353 355 357 355 357 356 355 353 355 356 354 353 349 344
324 323 323 324 326 331 333 336 338 338 339 339 344 348 351 353 353 354 352 349 348 349 352 353 356 358 357 356 356 355 355 353 352 353 352 353 353 354 356 356 354 355 356 356 357 356 353 351 346
325 325 327 326 327 329 332 334 336 336 336 337 339 342 351 352 353 354 355 353 350 350 351 353 355 358 358 357 357 357 356 356 355 356 355 353 352 352 352 357 357 356 357 356 357 357 353 353 348
326 326 326 328 326 327 330 334 335 335 335 335 336 337 346 352 353 353 355 354 353 351 353 353 355 358 358 357 357 358 358 356 356 356 355 355 352 352 352 355 356 357 356 357 357 357 355 352 350
327 329 325 326 327 328 328 330 331 333 334 334 335 336 339 350 353 354 353 353 354 354 354 355 356 359 358 357 358 358 358 357 355 355 357 356 355 353 354 355 357 356 357 357 357 356 355 352 351
327 327 325 325 328 329 327 330 331 333 334 334 335 336 338 344 351 352 353 352 353 354 354 355 356 358 358 358 358 358 357 358 357 357 357 357 355 356 354 357 356 356 357 357 358 355 355 354 351
326 327 326 326 326 328 328 328 330 331 334 334 335 337 338 341 345 349 350 351 351 353 355 356 356 357 357 358 359 358 357 357 358 358 358 358 357 357 357 357 357 355 357 357 358 357 354 355 353
326 327 327 327 330 327 328 328 327 329 330 334 334 336 337 339 341 343 344 348 350 351 353 354 356 356 356 356 359 360 359 358 357 359 358 358 358 357 358 358 358 356 356 357 358 358 354 355 354

GFSSGP_925_thetae_027.txt.gz
Theta_e
347 352 353 354 365 365 371 367 357 358 358 354 354 357 358 356 363 369 345 341 336 338 344 349 350 350 349 350 350 351 352 352 350 352 348 347 347 350 348 347 352 352 352 351 351 350 350 350 345
350 353 354 360 371 374 367 359 357 357 356 354 354 354 356 358 354 351 351 342 340 341 347 347 348 347 350 352 350 352 353 351 352 351 348 346 348 347 351 352 353 351 351 351 350 350 349 349 348
352 353 360 362 370 368 363 361 357 356 354 355 358 355 357 358 352 351 351 350 348 348 349 349 344 346 351 352 351 353 353 352 353 349 350 352 351 347 352 350 352 352 351 351 350 349 348 348 348
354 355 357 369 369 355 358 357 356 356 355 354 356 360 354 351 352 352 350 350 347 349 348 348 348 352 352 353 353 353 352 352 353 347 348 352 353 351 352 350 351 351 350 350 349 349 348 348 347
352 355 366 369 362 354 354 355 356 357 356 355 355 360 358 350 350 351 351 350 349 349 348 349 351 352 353 353 353 353 353 352 349 347 351 353 353 352 352 353 352 350 350 349 350 350 348 347 348
361 358 366 363 352 352 353 353 355 356 356 354 358 358 357 350 350 350 349 349 350 349 345 350 350 349 349 353 353 353 353 352 350 351 353 353 353 353 353 353 352 350 347 346 346 346 342 341 341
362 363 365 360 352 352 351 352 355 355 355 355 353 361 355 350 349 349 348 348 349 347 345 347 348 351 353 353 353 353 353 352 352 353 352 350 350 350 345 350 351 349 347 345 345 344 342 339 337
356 358 359 356 357 353 349 348 350 354 356 351 354 360 359 350 349 349 348 348 348 347 344 344 347 348 351 349 352 352 352 353 353 352 347 344 344 344 345 344 343 346 345 343 342 342 341 338 335
351 360 360 350 349 352 350 348 350 352 353 352 352 354 352 349 348 348 348 348 348 347 343 344 345 347 350 347 350 351 352 352 349 341 339 347 352 351 353 349 341 344 345 340 341 340 340 338 335
354 361 361 346 344 347 349 349 349 353 353 353 352 352 350 349 348 349 349 349 348 348 343 343 344 345 347 345 348 348 347 346 348 349 345 351 352 352 352 347 340 344 344 341 340 340 345 345 345
351 356 355 346 344 343 347 351 349 347 352 352 354 355 352 350 350 351 350 350 349 348 344 343 344 345 345 345 345 345 345 346 347 349 351 352 351 351 349 348 347 347 345 345 345 346 346 342 343
349 350 353 345 344 343 345 350 352 348 347 348 351 352 352 351 350 349 349 349 348 346 345 343 345 346 345 345 345 344 344 345 345 347 351 353 352 350 350 351 349 349 349 350 349 348 346 347 345
346 348 348 348 346 344 341 345 352 350 346 347 351 352 352 351 350 348 347 347 347 346 345 344 345 347 347 347 345 344 344 343 344 348 348 350 351 352 351 351 351 350 350 350 347 348 348 347 347
344 346 347 345 344 342 341 341 346 351 348 349 351 353 351 351 350 348 347 347 347 347 346 345 347 349 349 348 347 345 344 345 345 345 346 351 352 352 353 351 351 349 351 350 348 348 348 345 345
342 344 346 347 340 340 340 340 346 350 351 351 353 352 351 350 349 349 347 347 346 347 347 347 348 349 350 349 350 348 346 346 346 345 346 350 353 354 354 352 349 351 353 352 350 349 347 344 339
341 342 347 342 339 339 339 341 342 349 354 353 353 351 352 351 349 348 348 347 347 347 348 348 348 349 350 349 350 349 347 346 346 345 345 349 353 355 356 352 352 352 351 349 348 348 343 343 340
335 339 341 342 340 339 339 342 345 347 353 355 354 353 350 351 350 349 348 348 347 348 349 349 349 350 351 352 352 351 348 348 346 344 343 351 353 355 356 353 352 353 352 348 347 347 346 341 338
336 336 337 339 340 339 340 342 343 349 350 352 354 354 353 350 350 349 349 348 348 349 350 352 351 351 352 353 353 351 349 348 346 344 343 352 354 355 356 353 354 353 351 351 351 351 344 341 336
335 335 336 338 339 339 341 343 342 344 347 348 354 355 355 353 349 348 348 348 349 350 353 354 354 354 354 354 353 351 349 348 346 345 345 348 352 355 357 355 354 353 353 353 351 350 347 340 339
334 336 336 336 336 338 340 341 340 341 344 347 351 354 355 354 351 349 348 348 349 350 352 356 356 357 356 355 353 351 349 346 346 346 347 351 354 357 355 355 354 354 353 353 353 351 349 340 338
330 332 334 335 336 336 338 340 340 339 342 347 349 353 353 354 354 352 350 349 349 350 353 356 357 357 357 355 354 352 350 348 348 348 348 352 355 356 357 356 354 354 355 351 355 352 349 347 337
326 327 330 332 334 338 337 341 341 339 340 345 347 351 353 353 354 353 351 350 349 350 352 356 358 358 358 357 354 352 350 348 347 348 348 351 354 355 357 356 354 355 353 351 354 352 351 345 341
327 327 327 329 332 335 337 341 341 340 340 339 342 347 352 352 353 354 353 349 348 349 351 354 359 358 357 358 356 353 352 347 348 349 350 350 354 356 355 356 355 355 356 353 353 354 352 349 347
327 326 326 327 328 333 334 338 341 341 341 340 341 342 346 349 352 354 352 350 348 348 349 353 359 360 359 359 356 357 353 349 350 351 352 352 352 356 356 355 357 356 356 355 357 356 355 353 346
327 327 327 326 328 330 332 335 338 338 338 340 340 341 343 346 351 354 355 353 349 349 350 353 359 363 362 361 359 358 357 353 357 357 352 351 351 350 354 355 357 356 357 356 356 358 356 355 352
328 327 327 329 327 327 330 334 335 336 337 337 339 340 344 346 350 353 354 354 351 350 352 354 359 363 363 362 361 359 359 357 355 355 353 353 351 350 350 357 356 357 357 357 357 357 357 354 354
329 330 327 328 329 329 328 330 332 334 336 336 338 339 341 345 348 353 353 354 353 351 354 355 358 363 364 363 363 362 361 359 357 355 355 357 355 352 353 356 358 358 358 358 358 356 358 355 355
330 328 328 328 331 332 331 332 332 335 336 337 338 338 339 341 348 352 353 354 354 352 353 356 358 363 364 362 363 363 364 363 359 359 360 357 357 356 356 355 356 358 358 358 358 356 356 357 355
328 330 329 328 328 331 333 332 333 335 336 336 337 337 338 339 346 351 353 352 354 354 353 355 358 361 364 363 363 362 363 362 363 361 362 361 360 361 356 359 358 358 359 359 359 357 355 358 357
329 329 330 330 333 329 331 332 332 332 332 335 336 337 337 339 343 349 351 351 351 353 354 355 356 357 363 362 364 363 363 362 363 363 361 362 362 361 363 360 361 360 359 359 360 360 354 357 358

GFSSGP_925_thetae_030.txt.gz
Theta_e
350 352 352 354 368 366 370 367 361 361 360 356 356 358 358 359 362 364 346 344 341 345 346 349 350 351 352 350 350 351 351 349 346 348 350 350 351 349 351 352 352 352 352 352 351 350 351 350 349
351 353 354 359 370 366 373 363 362 358 355 354 354 354 358 361 349 348 347 343 341 344 345 348 348 350 351 350 351 352 352 348 350 351 350 351 351 351 352 353 352 352 351 351 350 350 350 349 349
350 354 360 367 370 373 371 361 360 356 355 357 359 356 357 357 347 346 343 342 340 344 345 347 348 349 350 351 352 351 351 350 353 350 351 352 353 353 352 352 353 352 351 350 350 349 349 348 348
354 355 360 368 370 363 361 359 357 357 356 355 355 360 353 348 349 346 338 338 340 347 348 344 343 351 351 351 352 351 351 351 353 350 353 353 353 353 351 352 351 351 351 350 351 350 349 349 349
354 356 367 371 365 360 357 356 356 358 356 357 358 359 358 352 352 344 342 342 346 349 351 344 343 350 351 352 351 352 353 352 352 352 354 353 352 353 354 353 351 351 350 350 351 345 343 343 342
361 351 363 368 358 355 355 355 356 357 357 358 358 357 356 352 351 349 349 347 349 350 349 351 350 353 351 352 352 351 353 353 353 353 354 354 354 354 353 352 350 350 348 345 342 340 339 340 337
357 355 361 363 357 355 356 355 356 357 354 359 355 360 354 351 351 350 349 348 346 348 348 352 354 354 352 351 353 352 353 353 353 353 352 349 348 349 350 348 348 347 344 343 342 340 339 337 339
357 357 366 363 356 357 353 353 354 355 355 354 353 359 358 351 351 350 349 349 349 344 348 350 350 350 351 352 354 352 353 352 351 347 348 349 348 344 343 343 344 345 342 341 342 343 342 342 340
353 363 366 362 355 356 348 356 354 351 354 355 355 353 351 350 349 349 348 350 347 346 345 347 348 350 350 350 351 352 352 347 339 339 344 347 350 348 351 350 342 344 341 341 342 340 338 338 341
354 361 358 355 351 352 349 347 351 351 353 356 356 351 350 350 349 349 349 349 349 345 344 345 346 349 349 347 347 350 349 348 348 348 343 344 350 349 351 344 342 344 342 340 341 344 345 343 343
350 358 349 348 350 347 348 346 349 349 352 357 357 353 351 350 349 349 349 348 349 345 343 345 346 347 346 346 344 349 347 347 348 350 346 346 350 347 348 345 344 343 344 345 343 346 350 346 342
348 352 350 349 349 344 351 349 347 349 349 353 353 351 351 350 350 349 349 349 347 344 344 344 346 347 345 346 342 346 346 346 350 346 349 352 348 350 351 350 350 348 349 348 349 350 347 347 346
345 352 350 346 349 342 349 352 350 348 347 351 352 351 351 351 350 349 350 348 349 348 344 346 346 344 346 348 344 344 344 344 347 348 345 352 348 353 351 352 349 349 347 336 349 349 346 348 339
344 345 348 348 350 343 341 349 349 349 346 351 352 352 351 350 350 350 350 350 349 349 345 346 348 345 349 347 347 345 344 343 345 346 348 349 354 352 351 351 351 350 350 349 351 347 339 346 345
341 344 344 346 346 343 341 341 345 350 347 348 352 352 352 350 348 349 351 349 349 345 346 347 349 347 349 347 350 347 346 346 343 348 348 348 351 353 351 353 351 351 353 350 350 350 348 342 342
342 341 346 346 346 342 340 341 349 348 349 349 351 352 352 351 349 349 348 347 348 346 345 348 348 350 347 349 350 349 347 345 346 345 347 349 353 356 352 353 352 348 353 348 347 348 347 347 344
341 343 344 346 344 342 340 340 341 349 349 353 350 351 351 353 351 349 348 348 348 347 348 349 347 351 349 351 351 349 349 348 346 346 345 346 352 354 355 352 352 353 349 351 348 347 348 340 338
342 341 340 344 344 341 340 340 343 346 352 353 355 351 352 351 351 350 348 348 348 349 350 350 348 351 350 351 351 351 351 348 348 346 345 347 352 355 355 355 354 354 351 353 351 349 342 338 336
340 339 337 338 340 342 340 343 345 347 349 355 354 355 352 352 350 350 349 348 349 351 352 351 352 353 354 354 354 354 351 351 348 347 346 349 352 355 356 355 353 353 352 353 351 349 346 338 339
338 338 336 335 336 338 341 340 343 348 348 350 353 355 354 351 351 352 350 349 349 351 354 353 353 353 356 355 355 353 353 351 349 346 348 351 350 355 354 354 354 354 353 354 353 352 348 338 337
337 338 336 336 335 337 340 341 342 345 346 345 351 352 353 354 352 352 352 350 349 353 355 357 356 358 357 357 357 354 353 351 348 348 348 348 352 353 355 354 352 354 353 350 353 353 350 346 337
333 335 334 335 336 337 337 340 345 343 343 344 345 349 353 355 354 352 353 351 350 353 356 359 359 359 358 357 357 356 354 352 351 349 349 350 350 356 358 355 355 353 355 353 350 354 349 347 343
328 328 331 331 334 335 336 338 339 344 343 342 347 350 352 354 354 353 352 351 351 351 357 360 361 360 361 356 359 356 354 353 349 350 350 349 351 352 355 358 355 354 353 354 352 354 348 353 344
326 326 327 328 330 336 335 337 341 341 345 342 345 345 352 351 355 355 352 351 351 352 355 359 361 361 360 360 355 359 355 353 351 349 350 354 357 354 355 358 357 355 353 355 352 352 354 350 350
326 326 328 329 330 330 333 335 340 339 343 342 342 343 347 352 354 357 356 354 352 353 355 357 362 362 360 361 358 357 358 351 354 352 350 355 353 358 357 355 359 356 354 356 355 354 356 351 351
327 327 329 332 331 328 330 333 335 337 337 341 342 342 345 348 351 356 357 355 353 352 353 356 362 363 362 361 362 357 361 357 350 358 354 352 354 353 357 354 357 357 357 354 358 357 355 357 351
328 328 328 327 328 328 328 329 331 335 336 338 338 342 343 345 347 354 357 356 354 352 353 355 360 363 363 361 363 361 357 362 355 354 357 356 352 354 352 355 354 355 356 358 354 358 358 357 355
329 329 328 329 333 333 330 335 333 335 337 338 340 338 342 345 347 353 356 357 354 352 353 354 359 363 364 364 362 363 361 360 360 353 356 355 357 351 355 358 356 358 359 360 358 360 356 357 358
329 331 329 328 329 331 334 332 336 338 339 340 339 340 341 346 348 351 356 356 356 353 353 354 356 362 365 365 364 364 364 360 359 360 357 359 354 360 353 362 360 359 360 360 360 359 358 358 357
329 330 331 332 336 331 334 333 334 337 338 338 338 340 341 343 349 350 353 356 357 355 354 355 356 360 364 366 366 365 364 365 363 359 360 360 363 355 361 357 359 361 360 360 361 361 358 359 360

GFSSGP_925_thetae_033.txt.gz
Theta_e
348 343 348 351 367 363 368 364 362 363 359 357 355 359 361 355 358 360 345 343 345 344 347 349 350 348 349 347 346 351 346 350 347 347 348 348 348 349 351 353 352 352 352 351 351 351 350 348 344
349 351 352 358 368 365 368 362 366 361 356 353 356 357 358 355 348 346 344 344 344 342 347 348 348 347 348 348 347 348 351 350 347 348 348 347 349 351 352 352 351 352 351 351 351 350 350 349 343
351 354 358 364 368 368 370 363 362 358 355 356 358 354 355 351 346 344 343 342 342 344 349 348 346 347 349 349 347 348 350 351 348 349 350 349 350 352 352 353 351 351 351 350 349 349 349 348 341
351 354 357 368 370 363 362 359 358 357 357 355 355 356 349 345 346 344 341 341 340 345 348 346 347 350 350 348 349 349 346 351 348 350 352 353 352 352 352 351 352 351 350 349 345 345 346 344 339
354 356 366 368 367 364 359 357 359 359 359 358 354 354 351 342 343 342 339 339 343 347 345 341 347 349 349 348 351 351 350 351 349 349 348 351 353 353 352 352 352 349 349 347 344 346 348 342 338
361 351 363 364 362 359 357 354 357 359 359 357 357 357 356 338 340 340 337 343 347 350 342 342 347 350 348 351 352 351 347 349 349 350 351 349 350 350 351 351 351 349 344 344 346 342 343 341 340
357 356 356 357 362 359 356 353 355 359 358 358 353 360 354 341 340 339 338 347 350 348 344 347 351 352 348 348 352 352 345 349 347 349 351 350 348 345 347 347 348 347 347 345 342 341 338 340 339
351 350 354 360 361 360 360 354 353 356 360 352 351 359 358 347 346 345 345 348 350 349 347 349 352 349 348 349 352 348 340 349 348 343 346 349 351 346 342 344 345 343 344 341 338 338 337 336 339
354 360 356 362 357 353 352 355 353 355 356 353 352 353 351 350 350 349 348 348 347 350 349 352 350 347 348 349 351 344 338 346 341 343 344 347 347 351 350 344 343 340 340 340 339 341 341 342 336
357 362 360 355 352 352 352 352 353 357 356 357 356 352 350 350 350 348 348 348 347 349 350 349 348 349 349 345 342 336 334 336 341 345 340 347 345 343 351 344 343 341 340 339 341 345 345 346 342
355 358 354 350 348 351 351 352 352 357 359 357 357 354 351 351 349 350 349 348 346 346 347 348 349 350 348 346 336 335 339 345 349 347 341 345 349 349 347 342 342 343 341 345 344 344 347 342 344
352 351 351 347 345 347 349 347 350 352 356 353 352 351 350 350 349 349 349 349 346 344 345 346 347 349 347 345 336 343 345 347 348 349 346 346 347 349 349 348 345 346 347 347 348 349 349 347 343
347 351 346 345 345 344 346 348 349 355 353 351 350 350 350 349 349 348 348 348 348 344 344 345 346 349 346 345 338 343 346 346 349 348 347 346 346 350 350 350 348 348 348 343 348 348 345 343 338
344 349 346 347 346 346 346 344 349 355 352 352 352 351 349 349 348 348 349 348 348 345 344 345 345 349 346 346 342 344 346 346 349 348 343 350 350 351 350 350 349 348 347 348 347 347 338 338 340
344 345 351 348 346 348 348 351 350 355 353 353 353 351 350 348 348 348 348 347 347 346 345 346 344 346 348 348 350 349 347 344 348 348 347 351 351 352 351 349 350 349 352 350 346 343 347 344 344
344 343 346 349 348 347 347 352 349 351 354 354 353 352 351 349 349 349 348 347 347 347 347 346 344 343 346 345 347 346 346 344 346 347 347 347 351 352 351 351 349 350 349 349 349 347 345 345 342
340 345 341 340 341 344 340 346 347 347 351 354 353 352 351 350 349 349 349 348 347 348 348 348 348 344 346 344 347 348 346 347 347 349 346 345 347 355 352 352 351 350 349 349 347 349 345 342 343
342 342 339 340 340 343 341 338 348 347 349 352 351 351 351 350 349 349 349 349 348 347 348 348 348 346 345 345 347 348 344 347 348 350 346 344 343 348 353 353 352 348 349 348 350 347 340 335 338
339 341 339 338 338 341 342 338 349 352 356 356 354 351 351 350 347 347 348 347 347 348 347 348 350 349 347 348 349 348 346 349 350 347 349 346 345 347 352 353 353 350 351 351 348 342 345 336 339
334 338 340 337 335 338 341 338 352 350 349 351 351 348 350 349 348 348 347 347 348 350 350 348 351 350 349 349 348 352 351 348 351 346 349 347 348 350 352 351 353 351 352 351 348 351 348 339 338
332 335 337 337 335 333 337 341 351 350 347 346 345 346 350 349 349 348 347 347 349 351 350 350 348 351 349 349 348 349 353 352 351 348 347 351 348 351 353 353 352 354 353 352 350 351 346 340 339
332 333 335 337 336 335 332 343 340 347 347 345 346 349 351 349 348 348 347 347 349 352 351 350 350 351 352 350 354 353 351 354 353 349 346 352 350 350 352 354 352 354 352 351 348 349 348 347 338
334 332 333 335 335 330 333 336 339 344 348 348 348 352 352 351 348 349 348 348 348 352 353 351 352 352 356 354 354 353 354 353 352 350 347 347 348 348 352 355 354 352 354 355 353 352 352 349 347
333 332 328 331 331 331 329 331 332 340 342 346 348 352 352 345 347 347 349 348 348 352 355 355 354 356 356 355 356 356 356 354 353 350 347 349 350 349 350 357 357 353 352 353 352 351 352 349 351
330 327 326 325 329 329 325 329 330 334 340 339 347 350 346 342 342 349 349 348 349 353 356 358 358 359 359 355 356 357 356 355 351 351 350 349 353 351 351 352 358 355 353 352 354 351 353 349 351
327 325 321 324 325 325 324 327 329 331 333 337 342 346 343 347 348 350 349 348 349 350 355 360 359 359 360 359 355 354 359 356 352 352 350 349 352 354 353 352 356 357 355 352 354 353 353 354 347
325 324 321 322 326 324 324 323 324 326 329 330 336 340 348 351 351 350 349 349 348 351 354 358 361 359 360 360 359 355 355 360 356 350 354 355 354 353 354 355 354 357 356 353 354 356 354 355 355
325 323 323 322 325 326 326 325 325 324 326 329 331 335 342 351 348 351 349 349 349 349 353 355 361 360 359 359 359 358 354 355 361 354 349 355 353 353 354 353 357 354 356 355 353 357 359 356 357
325 325 323 322 323 325 330 328 326 325 327 330 330 334 338 344 352 353 351 350 350 349 353 355 358 361 361 360 359 359 357 355 359 360 353 349 357 356 351 354 355 355 356 356 355 353 355 358 357
326 325 324 325 324 324 324 327 330 330 328 330 330 333 336 341 350 354 352 352 351 350 352 354 356 361 361 361 359 360 360 359 355 360 360 348 354 354 357 353 358 357 355 354 357 357 356 358 357

GFSSGP_925_thetae_036.txt.gz
Theta_e
346 341 347 350 365 361 367 365 361 362 361 356 355 356 357 354 358 354 344 344 344 348 347 348 349 350 347 343 350 348 351 351 351 349 350 352 351 351 351 352 352 351 351 352 351 350 349 350 347
342 347 350 357 367 364 364 362 364 361 357 356 356 356 356 354 347 345 344 344 344 349 350 348 349 347 345 347 347 350 351 351 350 349 350 352 350 348 352 352 351 351 352 351 351 351 350 349 347
350 352 357 363 365 362 368 363 362 358 357 357 357 352 352 351 346 343 344 344 345 349 348 348 348 346 347 346 345 349 351 351 351 350 350 352 351 349 352 351 351 352 351 350 350 349 348 348 341
352 354 357 366 369 362 361 359 359 357 356 353 352 352 346 345 343 343 345 343 345 347 346 349 350 350 349 344 351 350 351 351 349 352 352 352 352 352 352 352 351 351 351 351 350 349 345 347 340
352 355 365 367 366 362 359 358 359 361 358 355 350 353 350 342 344 343 344 342 347 346 346 350 350 350 347 350 351 350 351 350 349 351 352 353 352 352 352 352 352 352 351 350 350 350 346 344 341
357 350 360 363 358 357 355 356 360 360 356 352 352 356 344 342 341 341 341 344 347 346 344 350 350 350 345 351 351 351 352 348 351 352 350 351 351 350 351 352 351 351 346 343 341 341 338 338 340
356 351 356 356 361 360 357 356 358 358 356 354 350 356 340 341 340 340 340 344 347 345 343 348 351 352 349 351 351 351 349 348 348 348 349 349 349 350 347 348 350 348 348 346 338 336 338 338 340
350 345 354 358 360 362 359 357 356 357 358 351 350 355 343 340 339 338 343 349 349 343 344 347 351 350 347 350 351 349 348 345 343 343 344 344 346 347 344 344 345 341 340 340 340 338 337 337 341
349 351 355 350 358 355 354 355 356 353 354 353 352 352 340 339 337 339 342 348 348 345 346 349 351 347 347 348 349 348 341 343 342 343 343 346 345 344 346 343 341 339 338 339 342 344 344 340 339
359 353 352 348 353 354 357 355 352 356 357 356 354 345 341 340 338 342 346 349 350 350 350 348 348 344 345 346 344 337 338 341 342 342 345 342 348 349 347 342 342 340 339 340 343 345 345 346 344
356 359 355 354 351 349 351 353 355 358 360 356 355 349 345 343 345 346 347 349 350 348 350 348 344 343 341 339 333 333 334 338 342 340 340 346 346 348 344 342 343 342 341 344 345 347 347 344 346
353 356 355 351 349 348 349 351 358 355 357 352 351 348 348 348 347 347 347 346 348 349 349 346 345 346 344 332 331 333 338 345 348 342 340 347 347 346 347 343 341 346 343 345 348 346 346 345 340
350 351 351 350 349 345 345 348 347 354 354 351 349 350 350 348 348 348 348 346 347 347 348 345 347 347 344 334 330 339 344 346 348 349 347 345 347 349 349 348 347 347 347 346 347 345 345 343 340
344 346 347 347 345 343 347 344 348 356 353 352 350 350 350 349 349 348 347 347 345 346 346 346 346 346 344 337 334 342 345 346 347 348 348 348 348 349 350 349 348 347 346 343 346 345 339 340 340
336 345 345 347 345 346 344 348 359 354 353 354 352 351 349 348 348 348 347 347 344 344 345 346 346 347 344 344 341 341 344 346 347 348 347 348 349 350 348 348 348 348 348 349 346 345 342 341 338
339 341 348 347 347 346 347 352 357 353 353 354 352 351 349 348 348 348 348 347 347 343 343 345 346 348 344 345 345 342 344 346 347 348 346 350 349 351 351 350 349 348 347 348 345 347 343 341 340
332 339 343 345 347 347 349 349 357 353 353 354 352 351 350 349 347 346 348 347 347 345 343 344 346 347 346 346 348 349 345 347 348 348 346 348 352 350 349 351 349 349 350 348 346 347 344 344 343
333 339 340 342 339 346 349 346 357 354 354 355 353 351 350 350 348 346 346 346 346 346 345 344 345 348 348 347 346 346 345 346 348 349 347 347 346 352 348 351 349 350 349 348 348 346 337 337 340
332 335 339 338 338 337 341 352 359 355 353 356 354 353 351 350 347 348 347 346 346 346 346 345 345 345 349 346 346 346 344 345 347 349 348 347 343 345 353 350 352 349 349 348 347 343 341 339 337
329 331 337 339 338 334 338 351 356 356 355 355 354 353 352 350 349 348 348 347 347 346 347 346 346 344 346 345 343 345 344 344 346 350 348 347 345 344 349 351 351 351 350 349 348 346 344 336 339
328 329 331 337 337 333 336 352 352 353 353 353 352 351 351 350 348 348 348 348 348 347 347 347 346 345 345 344 344 345 343 343 345 350 348 348 346 346 347 349 351 351 351 350 348 348 347 336 339
328 328 330 333 334 337 331 349 355 355 354 349 347 349 349 349 348 347 347 348 347 348 347 348 348 346 346 346 346 346 347 350 348 349 349 347 348 349 349 350 350 350 353 352 349 348 346 343 339
329 328 329 331 332 332 334 332 354 354 355 347 345 344 346 348 348 347 345 346 347 348 348 348 349 349 349 348 347 346 349 351 352 351 350 347 349 350 350 350 351 350 353 352 350 348 346 348 338
331 330 329 330 329 333 333 330 328 357 353 349 345 344 344 348 348 347 347 346 347 348 349 349 351 350 349 349 349 348 348 349 351 352 352 348 350 350 350 350 351 352 352 352 352 350 350 349 349
332 329 334 332 331 332 331 325 329 348 349 348 345 344 346 348 348 347 347 346 347 349 349 350 350 353 351 351 351 350 350 350 348 351 351 348 350 351 351 350 352 356 354 351 352 352 350 349 350
332 330 332 336 329 330 322 323 325 326 342 343 344 345 348 348 346 347 347 346 346 350 350 349 351 352 353 352 352 352 352 351 350 352 352 350 347 349 349 349 351 355 356 353 351 353 350 351 348
328 332 321 318 319 320 323 321 321 322 323 334 346 348 350 349 347 346 347 347 347 350 352 351 351 351 355 354 354 355 354 353 352 353 351 351 349 349 349 349 350 351 356 355 353 351 352 351 352
330 322 324 316 322 323 322 321 324 322 322 322 343 348 350 350 347 345 346 347 347 349 352 353 352 352 354 355 354 354 356 355 354 354 353 350 351 350 350 352 352 352 354 357 354 352 353 353 352
327 326 322 321 317 321 323 324 321 321 321 322 338 345 349 349 347 343 346 347 347 348 351 355 355 354 355 357 356 354 353 353 358 356 354 351 351 355 353 354 353 353 353 355 356 353 352 355 355
329 323 320 322 319 318 321 325 326 323 323 322 323 346 346 346 346 345 347 347 347 348 350 354 357 356 356 357 357 357 356 353 353 357 358 354 351 349 356 353 354 354 355 355 356 354 353 355 359

GFSSGP_925_thetae_039.txt.gz
Theta_e
350 346 345 349 362 359 365 366 361 360 362 357 353 353 356 354 356 353 343 343 345 344 345 351 348 351 352 348 352 350 351 351 350 351 351 351 351 351 351 350 351 351 351 350 350 350 349 348 348
348 347 349 356 367 363 364 362 364 360 357 355 355 354 353 355 345 345 344 346 344 345 347 349 347 348 352 350 350 350 351 351 350 351 351 351 351 351 352 351 351 351 351 346 344 350 349 349 347
346 350 354 364 359 362 366 359 361 359 356 357 355 349 350 352 344 343 344 347 345 347 347 349 348 347 351 351 351 351 352 349 350 350 351 351 351 352 352 351 351 351 350 350 349 349 349 348 344
350 352 356 366 368 359 359 359 358 360 357 352 349 351 346 345 343 344 347 348 347 348 348 348 350 352 351 351 351 352 351 351 351 352 350 350 351 351 351 351 351 351 351 350 349 349 348 341 342
350 355 365 368 365 359 358 360 359 359 359 354 349 351 349 342 343 344 347 348 348 348 348 349 349 351 350 351 351 351 351 350 347 350 352 352 352 352 352 351 352 351 351 351 350 349 343 342 342
357 349 360 362 356 357 357 356 358 360 356 352 350 350 345 343 344 344 346 347 346 348 348 349 350 348 352 350 351 351 351 350 349 350 350 352 353 352 352 352 352 351 349 345 343 342 339 340 343
358 351 355 356 360 359 360 355 360 359 355 353 350 349 344 342 343 343 344 345 346 348 348 349 351 350 351 351 352 352 351 351 350 350 350 351 350 350 351 352 351 350 348 347 338 338 339 340 342
348 344 356 358 358 362 359 355 355 357 357 348 344 347 349 340 342 341 345 346 345 348 349 350 351 349 349 351 351 351 352 352 351 350 350 350 352 350 343 344 349 347 343 341 340 339 337 341 343
348 348 356 353 354 355 353 356 355 353 354 353 351 342 341 340 340 341 347 349 347 348 349 350 351 344 347 347 350 352 352 351 346 348 347 344 348 345 347 342 344 343 340 341 344 343 339 339 343
358 348 351 346 350 354 353 357 357 356 356 355 344 341 341 338 338 341 347 349 349 350 349 350 349 344 346 343 350 347 349 345 342 344 345 345 345 346 343 342 341 342 341 341 343 344 345 345 342
358 354 351 348 351 351 354 356 353 357 359 355 345 342 340 337 339 342 347 348 348 348 350 351 347 343 343 339 345 342 342 342 342 342 344 343 345 346 343 342 342 340 341 343 345 346 344 344 344
358 356 355 353 350 351 355 351 356 356 356 352 341 340 337 337 340 343 348 348 348 348 348 349 345 342 340 336 338 335 337 339 340 340 341 346 345 346 341 340 343 343 343 345 344 343 345 341 340
352 354 352 354 353 351 348 354 357 357 353 348 341 339 337 339 342 345 348 348 348 348 347 347 343 340 337 336 334 333 335 343 346 342 342 346 347 346 347 343 342 345 345 346 345 345 343 339 338
343 347 349 347 347 346 348 354 355 355 352 349 343 340 339 341 345 346 346 348 348 347 346 346 341 338 338 333 332 337 341 346 347 347 347 345 347 348 348 348 347 346 346 344 345 345 339 339 339
333 341 336 342 345 345 345 347 351 354 351 351 346 343 342 344 346 347 345 347 347 346 345 344 341 340 339 333 331 336 343 345 346 347 347 347 348 349 347 348 347 347 346 345 343 345 342 342 340
334 333 338 339 344 344 345 350 359 353 351 352 350 347 347 346 347 347 346 345 345 346 345 343 342 341 339 335 333 337 343 345 346 346 347 346 349 350 348 347 347 347 347 345 341 346 343 342 341
323 335 342 342 342 346 347 355 358 353 352 352 351 350 349 348 347 347 346 346 344 345 345 344 345 344 342 338 342 341 341 344 346 347 346 347 348 350 350 350 348 348 347 345 345 347 344 341 343
327 335 336 338 340 347 348 351 357 354 354 354 352 351 350 349 349 347 347 345 345 343 344 344 344 344 345 343 344 345 347 346 347 347 347 347 351 352 349 350 349 349 349 345 346 344 336 341 341
328 334 338 338 337 341 348 349 359 355 354 354 352 352 350 349 347 347 347 346 345 345 343 343 344 344 346 346 344 347 347 346 348 349 349 346 350 353 348 349 348 348 348 347 348 342 339 337 338
322 326 332 334 334 334 336 347 358 355 355 354 353 352 350 348 347 346 346 347 345 345 344 342 343 344 345 347 346 348 347 345 345 348 349 347 349 351 352 348 349 349 349 349 348 343 338 338 337
322 323 327 332 333 334 339 350 350 357 355 354 352 350 350 349 349 347 345 345 346 345 345 343 343 343 344 346 347 347 346 345 344 345 348 348 347 346 350 350 350 349 350 348 348 347 342 337 340
323 324 327 329 332 334 332 358 362 358 357 355 354 352 351 349 347 346 346 346 345 345 345 345 344 344 344 346 347 346 345 345 344 343 346 348 347 346 347 348 348 350 349 350 350 347 347 336 339
326 324 327 328 328 330 332 335 352 357 360 357 354 353 352 350 348 347 346 346 346 345 345 345 345 344 344 346 346 346 345 343 343 342 343 349 347 347 346 348 350 350 350 352 351 348 349 346 338
327 326 326 327 326 331 330 332 329 353 357 356 354 352 351 350 349 347 347 347 348 347 346 346 346 345 345 345 345 344 345 345 343 344 344 348 349 347 348 348 350 350 350 352 351 349 347 347 343
329 325 329 330 330 334 329 329 332 342 349 351 352 351 349 345 348 347 347 347 348 347 346 346 346 346 346 345 345 345 345 344 342 344 346 349 349 348 348 349 351 351 351 351 351 351 349 348 349
329 328 330 333 334 335 325 329 327 331 345 347 348 347 345 341 345 347 345 345 347 347 347 346 348 347 347 346 347 347 347 345 346 345 346 350 351 350 347 348 349 350 351 354 352 352 352 349 349
329 332 326 323 317 324 330 320 320 323 336 345 347 346 344 341 343 346 346 345 345 346 347 347 348 348 347 347 348 348 348 347 347 347 347 346 350 351 347 347 349 349 350 354 355 351 351 350 350
330 326 330 320 328 328 322 321 326 322 325 332 346 346 344 342 342 345 346 346 345 346 347 348 348 349 349 349 349 349 349 349 349 349 349 347 351 350 348 347 349 349 349 351 355 354 351 351 351
325 328 329 328 320 329 320 325 318 321 321 322 338 342 342 343 344 345 345 346 346 346 348 348 348 348 350 351 350 350 351 350 350 350 349 349 350 350 350 348 348 350 349 350 352 355 354 351 350
324 325 319 333 327 316 319 325 322 319 319 321 328 337 341 345 345 346 345 344 346 346 348 349 348 348 349 351 351 351 352 352 352 351 351 350 351 351 350 350 350 350 352 351 351 353 355 353 351

GFSSGP_925_thetae_042.txt.gz
Theta_e
347 346 345 348 357 359 360 363 359 362 357 354 346 349 352 352 354 353 342 343 342 343 344 349 347 350 350 350 350 351 348 350 349 351 351 351 349 348 349 351 351 351 351 350 350 349 349 347 349
346 346 348 354 365 362 360 361 362 359 357 355 350 352 353 354 345 344 343 344 342 344 347 347 347 350 351 351 348 351 352 350 350 350 351 351 347 351 351 351 351 349 347 348 349 348 349 348 344
346 348 356 363 359 362 364 358 360 358 356 355 353 348 350 350 345 343 344 343 343 346 345 346 347 349 352 350 351 351 351 351 350 351 351 349 349 352 352 351 351 351 350 348 350 348 348 341 343
347 350 355 369 366 358 359 358 357 357 356 352 349 351 346 344 343 344 346 343 344 347 346 349 348 351 351 351 351 351 351 350 351 351 351 350 350 351 351 351 351 350 350 350 349 348 347 343 343
351 355 364 366 364 358 356 360 359 361 358 353 349 350 349 343 343 347 346 344 344 348 347 348 350 348 351 351 351 351 351 351 348 347 349 352 352 352 351 352 351 351 350 349 349 347 342 341 342
357 349 363 362 355 356 358 357 357 360 356 350 348 348 346 344 345 347 346 347 346 347 347 348 350 348 349 351 351 351 348 348 351 350 348 351 352 352 352 352 351 350 350 349 345 341 342 342 342
359 354 355 354 359 360 360 354 359 359 356 352 345 349 346 344 344 347 348 347 347 347 346 348 348 352 351 352 351 351 347 347 350 348 351 351 352 352 351 351 350 349 348 346 341 339 340 342 343
350 343 355 357 357 363 356 355 356 356 356 346 343 347 348 343 344 347 348 348 347 347 348 350 347 351 348 351 352 352 351 350 348 351 351 352 352 347 347 347 349 349 348 342 337 339 340 342 342
346 352 353 353 354 357 353 358 355 353 351 351 345 343 342 342 342 345 347 349 348 347 348 351 348 349 349 349 352 352 352 352 351 350 350 349 348 346 345 345 350 349 344 344 342 340 340 342 342
356 349 350 347 350 354 353 358 358 356 354 349 344 342 342 341 341 345 346 346 350 351 349 350 348 345 348 348 351 351 351 350 346 344 342 344 343 343 344 342 343 343 343 343 343 343 343 342 342
357 355 348 347 349 350 353 356 355 357 358 351 346 343 341 340 340 345 345 344 346 348 350 350 348 344 345 346 349 349 347 345 344 345 345 344 344 343 342 342 341 342 341 344 345 345 343 345 345
359 356 354 353 349 351 354 352 355 355 355 350 342 341 340 339 340 345 346 345 347 348 349 349 348 342 343 342 342 345 344 343 342 343 343 342 342 343 342 342 342 343 343 345 344 344 343 341 340
356 355 352 353 353 351 349 352 353 356 350 343 341 340 339 338 340 345 346 347 347 347 348 348 347 342 340 338 339 341 341 339 339 340 342 345 346 345 343 340 341 344 344 344 345 343 341 338 340
343 346 349 347 347 346 351 352 353 355 344 342 341 339 337 338 340 346 347 347 347 345 345 346 346 340 338 336 335 336 337 342 345 342 342 346 346 345 346 346 345 346 344 344 344 340 339 338 339
337 339 336 335 343 346 344 356 354 353 344 343 341 338 336 339 342 345 348 347 347 345 343 344 344 339 336 334 333 334 336 343 346 346 346 345 346 347 346 346 346 346 346 344 344 342 339 338 340
329 333 338 337 337 341 344 350 356 351 346 343 341 338 338 341 343 345 347 347 347 345 344 343 343 338 336 334 332 334 339 344 345 345 346 347 346 348 346 346 346 345 346 343 342 345 342 340 340
321 338 337 341 339 345 345 350 357 352 349 346 342 339 339 342 344 345 345 347 347 346 344 342 343 336 337 335 332 333 339 343 344 345 346 346 347 348 348 346 346 346 345 343 344 344 346 342 341
328 329 336 341 339 344 346 346 357 352 351 349 346 341 341 342 345 345 346 345 346 347 344 341 341 336 338 340 337 337 337 341 342 345 346 346 346 348 350 346 346 347 345 343 344 343 336 342 342
327 332 336 336 336 345 346 348 359 355 351 353 351 347 344 344 344 346 346 345 345 345 344 344 341 339 340 343 343 343 344 345 346 346 346 346 347 350 351 348 347 345 347 345 345 342 337 339 337
322 323 327 331 335 338 339 347 357 356 354 352 351 350 348 346 345 346 347 345 344 343 344 344 343 341 341 342 343 343 344 346 346 347 348 348 346 349 352 349 348 346 347 347 347 343 337 337 337
318 322 323 331 331 333 336 341 357 356 353 352 351 349 349 348 346 346 346 346 345 343 342 343 344 342 342 342 345 344 345 347 345 346 347 348 347 348 349 352 348 348 348 348 348 344 339 337 339
316 320 324 324 329 333 335 342 353 358 357 354 352 351 349 348 347 345 346 346 345 345 344 343 343 343 342 342 344 345 345 346 345 344 346 347 347 347 347 347 351 350 349 349 348 346 345 336 339
318 319 321 324 327 329 330 334 342 356 360 356 354 352 349 348 347 346 345 345 345 345 344 344 344 343 343 343 343 344 346 347 345 344 344 347 347 346 347 346 347 349 350 349 350 349 345 345 337
322 323 322 324 323 330 328 332 331 357 359 356 353 352 351 349 347 346 346 345 344 345 344 344 344 343 343 343 343 344 345 346 345 344 343 343 345 346 346 347 347 350 350 349 351 351 347 346 344
324 323 326 327 328 332 329 331 331 329 354 353 353 352 351 349 348 347 346 345 345 344 344 344 344 343 343 343 344 345 344 345 345 343 342 342 343 347 346 346 347 349 350 350 350 351 349 346 345
324 324 326 330 329 330 325 331 329 329 341 351 350 350 350 350 349 348 347 346 345 345 345 344 344 344 344 344 344 345 345 345 344 342 343 340 340 344 347 347 347 348 349 350 351 351 350 351 348
324 327 322 324 319 325 327 324 323 325 330 344 347 349 349 349 349 348 348 347 346 346 346 345 345 344 344 344 344 345 345 344 344 343 344 341 341 344 347 348 347 347 348 350 351 353 351 350 351
324 324 328 323 334 326 326 320 333 323 326 332 340 345 347 347 345 345 346 346 346 346 346 345 345 345 344 345 345 345 345 345 344 344 345 344 343 344 347 349 349 347 348 349 350 352 354 352 350
322 329 328 326 323 332 322 322 322 324 326 327 332 343 344 345 343 341 343 346 345 346 347 346 345 345 345 345 345 346 346 345 345 345 346 346 346 346 346 349 349 347 347 348 350 351 352 354 352
318 322 326 332 328 319 322 329 321 320 321 323 325 338 342 343 342 340 340 345 345 344 346 346 346 346 347 346 346 346 347 347 347 347 347 347 347 347 345 349 350 349 348 348 349 349 350 352 354

GFSSGP_925_thetae_045.txt.gz
Theta_e
346 346 346 349 358 360 361 363 359 362 355 353 346 348 351 351 352 358 344 345 343 343 348 350 348 351 351 350 351 350 349 346 347 351 351 350 350 346 347 346 347 347 347 350 348 349 347 349 350
346 344 348 353 361 367 364 360 362 359 354 354 349 351 354 355 347 345 345 344 343 344 348 349 349 347 351 350 349 350 350 347 348 350 350 349 351 346 347 350 350 350 350 350 349 349 349 349 346
345 347 355 361 363 364 364 358 360 358 356 352 353 351 351 351 346 344 345 344 344 346 349 350 348 348 351 347 350 351 350 348 350 350 350 350 348 349 351 350 351 350 349 350 349 348 343 345 342
346 349 355 367 366 358 359 359 356 359 356 353 351 355 348 345 344 344 345 345 345 347 348 349 347 351 350 351 351 351 351 350 350 351 351 349 349 348 351 351 351 351 350 350 348 348 346 346 343
349 355 364 367 363 359 357 359 359 361 358 354 350 352 350 344 344 346 346 345 345 346 349 349 348 351 351 351 351 351 351 349 351 351 352 350 350 352 352 351 350 350 350 349 348 347 343 342 344
357 353 363 363 359 356 359 357 358 361 354 351 350 349 348 344 346 346 346 346 346 346 348 350 348 349 349 352 351 351 350 350 351 351 349 350 349 352 352 351 350 350 349 348 344 342 342 342 342
359 358 358 356 359 361 361 355 360 361 356 352 347 351 348 346 346 346 346 346 347 346 348 351 348 351 349 351 350 351 351 350 350 348 348 350 352 352 351 350 349 349 348 346 339 340 341 341 342
354 350 354 356 360 364 356 357 357 358 357 345 345 351 352 345 346 346 346 346 347 347 350 351 349 352 352 351 352 351 351 351 351 352 352 352 352 352 351 347 349 349 346 341 341 340 342 341 340
346 358 363 354 356 359 353 359 356 352 350 349 345 345 345 345 346 346 346 347 348 348 350 348 351 350 353 353 352 350 352 352 352 351 350 350 350 350 348 343 349 349 348 341 340 340 341 342 341
358 360 358 350 349 354 354 360 359 357 353 351 347 344 344 345 345 346 346 346 346 348 349 348 348 348 351 352 352 352 350 349 350 351 348 349 345 347 346 344 347 345 342 341 343 342 342 343 347
356 358 352 348 349 350 355 359 357 357 357 353 350 347 344 344 345 345 345 345 345 347 349 350 348 350 349 351 351 351 350 349 349 342 343 342 344 345 346 346 347 345 344 347 348 348 347 348 346
360 357 355 354 348 350 353 354 356 356 356 351 346 346 344 344 345 345 344 345 345 347 349 350 348 350 349 350 350 350 349 349 349 346 344 344 346 343 343 346 347 344 345 345 344 348 342 340 341
356 357 354 353 352 352 352 353 353 355 353 348 345 345 344 343 343 343 343 344 346 347 348 349 349 349 349 350 349 349 349 348 348 344 342 341 342 343 342 343 343 345 344 343 344 344 342 341 341
342 350 353 349 351 350 352 351 351 355 349 347 346 345 343 342 342 343 343 343 345 345 346 348 349 347 348 347 345 347 348 347 346 345 342 345 346 344 345 344 344 346 344 343 344 339 340 343 346
339 345 340 342 342 347 346 351 355 352 349 349 346 345 343 341 341 343 344 344 344 344 346 348 349 347 345 345 339 343 345 346 348 348 343 345 346 346 345 346 345 346 343 343 342 340 339 344 345
328 332 334 341 343 343 344 354 353 351 351 350 347 345 343 341 340 342 343 344 345 345 346 348 347 346 345 345 336 340 343 345 348 348 346 346 346 346 346 346 349 346 345 342 345 346 344 339 343
330 326 331 336 341 347 347 351 354 351 352 351 347 345 343 342 340 342 344 344 345 347 347 346 347 346 344 339 340 334 338 342 346 345 345 346 347 347 347 346 346 345 346 348 350 341 347 343 343
328 328 337 336 344 346 349 349 358 354 351 350 347 344 342 342 343 342 344 345 347 347 347 346 346 347 344 341 339 340 338 341 343 344 344 345 346 347 348 346 345 346 344 347 347 339 340 346 346
329 332 331 339 341 346 348 349 357 357 354 351 347 345 343 343 341 343 344 346 348 348 347 346 346 346 345 344 344 343 341 343 344 344 346 346 346 347 349 347 346 346 348 345 344 343 341 342 341
322 329 332 335 335 344 346 348 348 357 357 354 350 346 344 343 343 344 345 346 347 348 347 347 346 345 342 344 344 343 344 346 349 347 346 346 346 347 350 348 346 346 347 345 346 344 342 341 339
321 322 328 330 330 335 340 345 344 357 356 355 353 349 345 344 344 346 346 347 346 347 347 347 346 344 342 343 345 342 344 345 347 349 349 347 347 346 349 350 348 347 346 345 345 345 339 341 342
318 318 322 328 330 339 339 352 347 347 359 357 355 354 351 347 345 345 346 347 346 346 347 347 346 345 344 342 345 344 345 346 348 349 349 346 347 346 348 349 348 347 349 347 349 345 343 339 342
319 318 318 320 328 332 335 341 347 349 355 358 356 355 353 351 348 347 346 346 346 346 346 346 346 345 345 345 344 346 346 347 348 348 347 346 347 347 347 347 346 346 349 347 349 348 346 342 341
319 320 321 321 320 326 334 337 341 346 353 355 355 355 354 352 350 349 346 346 347 346 346 345 345 345 344 345 345 345 347 347 348 348 348 348 350 349 347 347 347 347 350 350 351 349 347 348 345
322 324 327 326 326 322 326 335 337 340 345 349 353 355 354 352 351 350 349 347 347 347 347 347 345 345 345 346 346 346 345 346 346 347 348 347 348 350 349 346 347 349 348 349 349 351 351 349 350
324 325 325 328 327 322 324 335 336 334 334 344 348 351 353 353 352 351 349 349 348 348 349 347 347 346 345 345 345 345 344 347 347 347 347 347 347 347 349 344 345 346 347 349 349 352 353 353 352
324 327 324 325 328 328 324 326 331 333 334 336 344 350 353 354 352 351 350 349 349 348 348 348 348 347 346 346 346 346 346 346 347 346 346 347 346 347 349 343 346 346 347 348 350 353 354 352 352
322 323 328 327 329 328 328 327 327 334 334 336 338 346 351 352 353 352 351 349 349 348 348 348 347 348 347 346 346 347 347 346 346 347 346 346 346 343 347 345 347 349 348 348 350 354 355 356 355
323 324 326 328 329 329 327 328 328 329 337 336 336 339 346 351 352 352 352 351 349 348 348 348 347 348 348 347 347 347 348 347 347 348 348 347 343 344 342 344 346 349 350 349 351 352 354 356 356
315 320 324 332 334 332 331 328 327 330 332 334 335 336 338 346 350 351 351 350 350 350 349 349 348 348 348 347 347 347 347 347 348 347 348 348 344 344 345 345 345 348 350 351 352 354 354 355 356

GFSSGP_925_thetae_048.txt.gz
Theta_e
346 344 344 349 364 363 364 363 361 363 359 354 349 350 352 352 356 365 347 347 344 345 346 347 351 346 350 351 349 351 345 345 346 346 350 351 351 352 344 346 348 348 351 350 350 348 349 350 347
345 345 348 355 364 370 365 361 363 359 356 351 351 350 352 356 349 349 348 345 345 344 343 347 350 349 351 349 349 348 352 351 350 351 350 351 350 346 351 348 349 351 350 350 350 350 350 350 349
344 346 354 358 365 367 367 362 362 358 355 351 355 352 354 355 348 348 347 345 343 343 343 349 348 351 350 352 351 352 352 351 351 351 351 352 352 352 352 351 350 349 349 349 349 348 347 345 345
344 350 354 365 366 357 361 360 358 361 355 353 353 357 351 348 347 347 345 343 343 344 344 348 350 349 348 351 351 349 352 349 349 351 351 349 351 351 352 351 352 351 350 349 349 348 348 348 345
348 357 363 369 365 361 357 357 359 362 360 356 353 357 353 347 346 347 344 342 343 343 345 348 350 351 351 352 351 352 349 348 351 351 349 351 351 350 351 351 351 351 349 349 348 348 345 343 342
358 356 367 364 362 358 360 359 358 361 357 356 356 354 350 346 347 347 344 343 342 343 344 347 349 350 349 352 350 352 350 351 348 348 349 349 348 352 352 351 351 350 350 347 343 342 343 343 342
361 363 364 359 359 361 361 357 361 361 358 357 351 356 350 348 347 347 344 342 342 343 344 346 350 350 352 352 349 352 352 351 348 348 349 347 350 351 351 350 350 349 348 345 340 342 342 342 342
358 356 360 357 361 366 359 360 358 359 359 348 349 358 355 349 347 346 343 343 342 343 345 345 347 349 350 349 352 352 351 348 349 349 347 350 352 347 345 343 349 348 347 347 343 342 341 342 340
353 361 364 357 358 363 357 359 355 353 353 352 350 349 349 347 347 346 344 343 343 343 346 343 347 348 350 350 351 351 351 352 351 348 347 348 346 345 348 344 350 344 340 339 341 342 342 341 341
356 358 355 352 352 355 357 358 358 358 356 353 350 348 348 347 347 346 345 344 342 343 345 344 349 348 350 349 351 351 350 349 348 349 350 348 347 347 345 345 343 340 341 341 341 342 343 348 347
354 356 353 351 350 354 360 361 359 358 360 355 353 352 347 347 348 347 344 343 342 343 343 343 346 348 350 350 351 350 348 348 349 351 350 349 347 344 346 347 347 347 348 347 348 349 347 347 346
351 352 353 352 351 354 356 355 357 355 357 353 350 349 349 348 347 346 344 342 342 343 344 343 346 348 349 350 347 347 347 347 347 348 350 350 348 347 347 348 347 347 347 347 348 344 346 346 348
347 351 354 351 352 351 352 355 354 356 354 351 349 349 348 347 345 344 342 341 342 343 345 344 346 348 349 350 347 347 347 347 347 348 349 348 348 349 349 349 348 348 347 346 346 345 346 347 346
336 341 353 352 353 352 353 353 351 353 354 353 351 350 348 346 345 344 342 342 343 343 345 345 346 348 349 350 350 351 349 349 347 347 346 350 350 350 348 348 350 350 349 347 346 345 343 341 343
334 342 341 347 349 352 350 352 353 355 354 354 353 350 348 346 344 344 343 342 343 343 345 345 346 347 349 350 350 349 348 347 349 348 350 352 353 348 349 349 349 350 349 349 347 345 342 341 340
329 330 339 342 345 348 350 355 354 354 355 356 354 351 349 346 344 344 343 342 343 342 343 346 344 344 347 347 348 346 347 348 349 350 350 351 353 349 350 349 349 351 348 347 343 341 342 340 338
325 328 332 341 345 349 350 352 357 353 355 356 354 352 349 347 345 344 344 343 342 342 344 346 345 344 344 346 346 346 348 349 349 350 350 353 353 354 353 351 350 349 349 349 344 343 341 341 337
326 326 331 335 345 350 352 351 357 354 355 356 355 353 350 348 346 343 343 343 342 343 344 345 346 345 345 345 346 345 347 349 350 350 351 353 353 354 354 351 350 349 347 348 348 345 344 343 339
326 329 330 336 341 350 352 351 353 356 355 356 355 354 351 349 345 343 343 343 343 344 346 345 346 346 346 344 343 345 347 347 349 349 352 354 353 354 356 351 349 350 347 348 349 345 347 342 342
323 330 334 334 337 345 351 351 349 357 356 355 354 353 351 348 347 344 343 344 345 345 346 347 346 348 348 343 342 344 346 346 348 351 354 354 354 355 354 352 350 352 350 347 347 349 343 342 341
323 323 326 333 335 336 346 352 351 351 356 355 353 351 350 348 348 347 345 345 345 347 347 348 348 348 348 342 343 346 347 349 351 352 351 353 354 355 355 351 352 349 350 349 349 349 346 342 343
322 322 322 324 331 340 340 352 351 349 356 356 356 353 351 349 347 347 347 346 346 347 348 348 349 349 348 345 342 345 347 346 346 349 349 352 355 354 355 352 352 351 351 351 350 350 345 346 342
323 322 321 321 323 333 339 346 348 349 351 357 356 355 352 350 348 348 348 347 346 346 348 349 350 350 347 347 343 344 344 341 344 347 350 352 356 355 354 353 352 352 350 352 353 353 350 342 343
323 323 322 322 322 323 332 342 347 348 350 349 353 353 354 353 350 348 347 348 348 347 347 349 350 351 349 347 347 345 343 341 344 347 348 349 350 353 355 356 356 352 351 354 353 353 354 350 346
325 325 328 327 325 323 325 331 341 342 344 347 349 352 353 353 353 351 349 348 349 349 347 347 350 353 351 349 350 347 346 346 347 350 348 347 346 348 351 356 357 355 355 355 354 353 355 354 350
326 326 331 333 328 324 324 326 331 336 339 341 346 348 351 353 353 353 352 349 349 349 348 348 349 352 352 350 351 351 349 348 348 350 349 348 346 346 347 355 355 356 356 356 356 355 354 354 354
327 328 327 330 330 330 326 324 324 331 336 338 340 345 348 352 353 354 353 351 349 350 350 350 351 351 352 350 351 353 351 350 349 349 350 349 349 347 348 350 353 353 354 356 356 353 356 355 355
325 326 329 328 333 334 331 330 326 329 336 337 338 340 345 350 353 354 353 352 350 350 350 350 350 352 352 350 350 351 351 351 350 350 351 351 350 351 348 351 351 351 354 355 356 354 355 356 356
322 325 326 328 329 333 334 331 329 328 329 335 337 339 341 348 352 353 353 352 351 350 350 351 351 351 352 352 351 350 350 350 352 352 352 353 353 352 353 351 350 352 355 355 356 355 354 357 357
313 322 325 329 331 331 332 333 329 329 329 330 334 338 340 344 349 352 352 352 352 351 350 350 351 351 352 352 353 351 351 351 351 353 352 353 354 354 354 353 352 352 352 355 357 356 353 356 356

GFSSGP_925_thetae_051.txt.gz
Theta_e
343 344 348 347 363 363 366 364 360 359 359 354 351 352 356 355 359 365 347 347 345 349 349 350 349 352 351 348 343 346 351 352 351 352 350 349 352 352 352 352 352 352 351 350 349 350 349 347 351
345 346 347 357 369 368 367 361 364 360 356 351 351 351 355 358 351 349 348 347 346 349 348 349 349 350 352 346 352 352 352 352 352 349 349 352 352 353 351 351 348 350 350 351 351 351 350 348 348
347 346 354 361 366 368 370 364 360 357 353 354 355 352 357 355 350 349 348 345 346 344 344 351 347 351 352 350 353 352 352 350 348 349 352 352 352 352 347 350 350 348 350 350 349 349 347 348 349
344 349 356 367 369 360 360 361 360 358 352 353 356 359 353 350 348 348 345 346 342 342 347 348 352 352 353 353 353 352 352 349 350 352 352 352 349 347 352 352 349 351 350 350 349 349 349 349 347
346 357 367 369 369 362 357 360 361 361 358 357 354 360 357 349 348 348 346 344 342 344 347 347 350 352 352 352 351 352 352 351 352 352 353 351 352 352 350 352 352 349 350 349 344 348 349 348 348
358 359 371 368 365 361 357 357 360 362 361 357 358 356 354 349 347 347 345 344 342 344 344 349 350 351 352 353 352 352 352 352 350 353 352 351 351 352 352 352 351 350 350 349 344 347 349 349 348
360 366 366 364 364 360 363 358 361 362 360 359 354 359 353 349 347 345 344 343 343 342 345 347 349 350 353 352 353 352 349 349 353 353 353 347 352 351 351 351 350 349 348 347 347 348 345 343 342
356 358 361 359 359 367 360 362 360 360 358 351 351 359 357 349 347 344 344 343 343 342 342 345 346 349 349 351 352 353 352 352 351 349 348 349 349 345 343 343 348 348 349 347 345 347 343 341 341
352 360 366 359 361 364 360 363 356 356 354 353 353 354 351 348 347 345 344 343 343 343 342 343 344 346 348 351 352 352 353 353 350 346 342 347 346 348 350 343 349 348 343 341 342 341 342 340 339
355 356 357 354 354 361 359 358 357 356 357 356 354 352 349 348 347 345 344 343 343 343 341 341 343 348 350 347 351 350 350 348 349 347 352 351 346 346 345 343 339 339 339 339 340 342 345 345 347
351 353 351 353 352 355 359 358 356 358 359 356 355 354 350 349 347 345 344 343 342 343 339 343 347 347 349 347 350 348 350 348 350 348 348 346 344 344 347 346 347 347 347 349 349 350 347 346 347
350 349 348 352 352 356 361 361 359 358 359 353 352 351 350 352 349 346 344 343 342 343 340 344 344 348 350 347 348 349 348 345 345 347 348 349 348 346 347 347 344 347 347 343 346 342 344 347 348
347 347 352 353 353 353 355 357 356 355 355 352 351 351 351 350 348 346 344 343 342 342 340 343 343 349 350 350 348 344 344 344 346 348 348 348 349 348 348 347 347 347 346 345 346 343 345 341 342
338 342 351 354 352 352 352 354 354 354 353 354 353 353 351 350 348 346 345 343 343 341 341 342 345 348 349 348 348 346 345 348 345 345 347 350 350 352 349 349 350 349 346 346 345 347 343 342 341
334 339 340 353 353 356 352 356 358 354 355 355 354 353 351 349 347 346 344 343 343 342 342 343 346 348 350 351 349 349 348 345 347 348 351 351 351 352 352 350 348 350 347 347 344 342 342 340 344
332 336 346 348 351 351 353 357 353 355 356 357 355 353 351 349 347 345 344 343 343 342 343 345 344 347 349 349 349 348 347 346 348 349 351 352 352 352 353 350 346 347 346 347 343 342 339 342 341
326 333 337 340 348 350 352 357 352 355 356 357 357 354 352 350 347 346 344 343 343 342 343 345 344 346 348 350 349 348 348 348 348 350 351 353 353 353 350 350 351 350 348 346 342 341 335 341 340
326 328 332 337 346 349 352 360 360 354 356 358 357 354 353 351 349 346 345 344 343 342 343 345 345 345 348 349 349 348 348 348 348 348 352 354 352 353 354 352 351 350 345 348 348 345 343 341 339
327 327 330 334 340 349 352 356 364 354 355 357 357 356 353 352 348 346 345 344 343 343 343 345 346 347 347 347 348 347 347 347 348 349 353 354 352 353 355 351 352 351 347 349 347 344 344 341 339
326 327 331 332 338 349 352 353 353 354 354 357 357 356 353 352 349 347 346 345 343 343 343 345 347 349 347 346 346 347 347 347 347 347 352 354 354 354 350 352 352 351 351 351 349 347 342 340 339
326 327 329 335 337 340 348 353 353 356 354 355 355 354 353 351 351 349 347 345 344 344 344 346 348 350 349 345 344 345 347 347 347 351 352 353 355 355 354 352 353 352 354 349 350 350 347 343 339
327 326 325 328 337 343 342 354 354 354 356 356 355 354 354 351 350 349 348 346 344 345 345 347 348 350 350 347 342 345 347 346 345 348 348 352 354 355 354 354 354 352 351 353 350 351 347 346 342
326 326 325 324 327 333 339 347 351 352 358 356 356 354 352 352 349 350 348 347 346 345 347 347 350 351 349 349 344 345 347 345 345 344 352 351 355 355 355 354 354 355 352 353 354 354 350 343 347
325 325 326 325 324 326 332 343 347 351 351 354 353 355 353 352 350 349 347 347 347 346 347 348 352 353 352 351 345 347 345 345 342 344 350 349 351 353 354 355 356 355 353 355 354 354 353 351 346
326 327 330 330 327 326 327 336 343 343 348 348 352 353 354 352 351 351 350 349 349 348 348 350 353 356 354 353 349 349 348 345 347 348 346 346 346 347 351 355 356 355 355 355 356 356 354 353 350
328 328 330 334 332 328 325 329 334 339 342 345 350 351 352 353 351 351 351 349 351 350 350 350 354 357 356 353 351 349 349 345 342 345 347 346 345 345 354 357 355 357 357 355 356 355 354 353 353
328 330 328 329 331 333 330 327 327 332 336 341 343 348 350 352 353 352 351 350 351 351 352 351 354 357 356 352 352 352 350 345 343 341 347 352 347 346 347 353 355 354 354 356 355 353 355 356 357
325 328 330 329 332 335 334 333 328 328 331 335 341 344 348 350 353 353 353 351 350 351 352 352 353 356 357 353 354 353 354 353 348 349 353 350 350 348 350 349 351 354 353 354 355 352 355 355 354
318 322 327 329 329 331 335 335 332 330 329 330 334 340 343 346 351 352 353 352 351 351 351 352 352 354 355 355 355 352 352 352 352 354 353 353 353 353 352 353 352 352 352 354 356 354 354 355 354
315 318 320 327 333 332 331 333 332 332 330 329 332 337 339 342 347 351 352 353 353 352 351 352 352 352 354 354 356 354 353 352 352 352 354 355 356 355 355 356 354 352 352 355 356 356 351 356 356

GFSSGP_925_thetae_054.txt.gz
Theta_e
339 343 346 349 362 364 370 367 364 360 358 354 352 356 357 356 357 366 346 349 348 348 348 351 349 352 348 347 348 348 352 351 352 352 350 352 352 352 352 352 351 351 350 351 351 348 349 351 350
344 345 348 357 371 370 369 361 364 360 354 352 353 354 356 357 351 348 349 347 349 348 350 351 349 348 349 347 344 347 351 352 351 351 352 352 353 351 352 350 350 352 351 351 351 351 349 349 350
350 349 355 362 365 370 371 366 361 359 353 352 359 356 355 353 347 347 347 348 349 349 350 348 350 351 352 352 352 352 352 352 352 352 353 351 352 352 351 351 349 350 350 350 350 349 349 349 350
348 349 357 369 369 365 363 365 361 357 356 356 356 359 352 346 348 347 347 349 349 350 352 347 351 352 353 353 352 350 350 352 351 352 350 352 347 352 350 351 351 350 350 349 350 350 349 348 346
346 358 368 369 369 368 361 362 360 361 361 358 357 359 354 349 349 345 346 348 344 350 349 352 351 350 352 351 352 353 352 350 351 352 349 349 353 352 351 352 349 351 347 348 349 349 349 349 342
357 358 371 373 367 364 359 359 361 362 359 359 358 357 355 349 346 345 346 345 348 347 347 352 351 351 352 352 352 353 352 353 353 349 351 352 352 352 351 351 351 351 350 348 349 349 348 346 333
356 365 370 367 366 367 361 359 360 360 359 359 353 358 354 348 346 346 344 346 345 344 349 351 352 353 353 352 352 352 352 352 352 352 349 351 351 351 350 350 350 348 348 349 349 346 342 336 336
351 361 363 364 364 368 361 359 356 354 356 352 352 358 357 349 347 346 344 343 342 346 347 348 350 351 351 353 352 353 353 353 348 349 346 340 347 347 345 345 349 349 348 348 349 346 340 335 333
347 361 367 363 363 368 363 364 354 352 357 355 353 354 350 347 346 345 345 342 345 343 344 346 348 348 350 351 353 353 353 348 350 348 338 346 349 350 351 343 342 343 344 344 343 342 343 341 337
350 360 358 353 355 363 363 360 359 358 356 356 355 352 350 347 346 346 345 344 344 341 343 343 346 349 351 349 351 352 351 351 349 349 348 347 349 347 346 340 339 340 344 342 342 340 338 345 348
348 355 350 351 354 357 361 358 354 356 357 356 358 354 350 347 346 345 344 344 344 341 341 343 349 345 350 350 351 351 350 351 350 348 348 349 347 344 345 344 346 342 344 347 345 345 343 342 345
348 348 349 349 353 358 363 360 360 356 360 354 354 351 349 349 346 345 344 344 343 341 344 348 345 349 350 347 352 350 350 351 347 347 348 348 345 346 347 349 349 346 347 349 344 347 346 344 346
343 345 346 351 354 356 360 360 361 359 354 352 352 350 350 349 346 345 343 343 342 341 343 348 349 344 344 350 350 346 346 347 347 347 349 346 350 349 348 347 344 348 347 345 344 346 345 347 346
340 343 344 349 353 354 359 358 358 355 353 354 352 352 350 349 347 346 345 343 343 341 344 347 346 349 351 348 349 349 345 348 346 345 350 350 350 349 351 350 347 347 342 344 342 344 343 345 345
333 338 338 342 354 354 353 355 357 357 354 355 353 352 351 349 347 347 345 344 342 341 343 343 347 346 349 349 349 347 346 348 346 349 345 352 352 353 353 349 349 346 348 348 344 342 340 343 342
330 333 338 340 353 354 355 356 351 356 358 356 354 353 352 350 348 345 345 343 342 342 344 343 344 349 350 349 349 346 345 349 349 351 349 352 352 353 352 349 350 349 344 342 341 340 341 343 341
329 330 336 339 346 353 355 359 359 355 356 357 356 353 352 351 349 346 344 343 343 344 346 343 345 348 348 349 346 348 348 348 347 349 351 352 350 352 348 351 349 343 349 347 344 342 339 343 341
330 328 331 336 338 349 351 355 359 358 352 357 356 354 352 350 349 346 344 343 343 345 347 344 347 349 347 351 348 349 348 348 350 349 353 353 353 354 350 351 351 351 346 340 349 345 339 342 339
329 328 327 331 334 349 352 358 353 351 349 357 357 355 354 351 348 347 345 344 345 343 346 348 347 350 348 348 351 350 348 348 348 349 351 352 353 353 351 353 349 348 350 347 347 341 338 344 337
331 330 328 329 332 342 358 358 353 350 355 356 356 354 353 351 350 349 346 344 345 345 346 348 348 350 348 350 350 349 347 347 349 349 354 353 352 353 352 351 351 349 351 351 350 350 346 339 338
328 329 328 329 332 337 341 356 352 347 350 352 352 352 352 352 352 351 348 346 345 346 347 348 349 351 348 350 347 349 349 350 348 354 353 354 353 353 354 353 352 350 351 350 349 349 348 346 340
328 327 327 327 330 337 339 348 359 359 359 351 348 353 352 352 352 352 349 347 345 347 347 348 350 353 348 348 347 348 349 350 345 354 353 351 353 353 356 353 355 351 352 349 350 349 349 345 346
327 328 328 327 327 331 339 343 344 361 361 354 357 356 352 352 351 352 350 348 346 347 348 348 350 354 351 347 348 345 348 348 348 345 354 353 353 355 355 354 355 352 353 351 351 351 348 349 347
326 326 327 328 326 327 329 335 340 350 356 351 354 354 353 352 352 351 350 349 347 348 347 350 350 352 353 346 350 346 347 348 348 345 353 355 354 354 356 355 354 355 353 352 353 353 350 348 349
326 326 328 329 329 327 326 327 333 340 355 354 349 348 348 354 352 353 352 351 349 348 349 350 352 352 354 354 348 353 346 346 349 347 352 353 355 352 353 355 354 354 354 353 354 352 355 349 353
326 326 328 331 330 329 329 327 328 331 341 351 349 350 351 354 353 352 352 351 350 349 349 350 354 354 354 356 350 349 351 343 346 349 345 347 349 351 350 354 354 354 354 355 353 353 353 354 349
327 330 327 328 329 330 330 329 328 329 334 345 348 351 351 352 353 352 353 351 351 350 350 352 354 356 356 353 355 349 353 351 347 346 346 349 346 348 353 350 358 354 356 352 355 353 350 356 353
324 326 329 329 333 336 331 334 331 331 334 340 347 346 348 352 350 353 353 352 352 351 352 352 355 356 357 355 355 353 349 351 347 341 343 345 351 347 355 354 354 355 355 357 355 355 352 353 356
321 322 325 329 331 333 333 332 335 339 333 336 348 348 344 347 352 350 349 352 352 352 353 353 354 357 358 358 355 354 352 349 345 349 339 351 347 354 348 355 356 355 354 356 355 352 355 354 352
318 319 318 321 333 332 332 331 332 335 333 332 331 335 350 351 352 349 342 342 353 354 353 354 354 357 359 359 356 355 354 351 350 343 353 348 355 350 357 350 355 352 355 355 355 357 354 356 355

GFSSGP_925_thetae_057.txt.gz
Theta_e
340 336 342 347 359 361 368 367 357 362 357 353 353 355 357 356 359 360 344 347 347 346 342 348 348 346 348 349 349 351 349 347 347 348 350 352 350 350 351 352 351 349 352 351 347 351 351 350 350
338 344 346 354 364 371 367 365 364 361 355 353 355 353 355 357 349 346 348 347 348 344 346 349 348 346 348 350 350 352 352 348 348 350 349 351 349 350 351 351 352 352 352 351 351 349 349 350 350
346 350 352 360 364 369 367 365 364 359 356 357 358 354 352 352 348 348 348 348 347 347 350 348 346 343 346 346 344 348 350 347 350 349 351 352 352 351 351 350 350 349 350 350 349 349 349 350 346
352 352 354 363 368 366 365 365 361 361 360 355 354 352 348 346 348 348 349 348 348 350 349 347 349 348 352 352 351 350 351 349 349 351 352 349 351 351 352 349 351 350 350 350 350 350 346 347 343
352 354 365 367 369 361 363 359 359 363 361 357 351 354 353 347 346 347 348 348 351 350 344 350 348 351 350 351 350 350 351 351 349 348 351 351 352 351 352 349 350 349 349 350 349 349 343 340 345
353 355 370 367 365 362 363 361 361 362 359 355 355 355 354 346 346 347 349 351 351 347 347 350 350 351 350 352 349 350 352 349 350 347 352 352 350 351 350 351 351 350 349 350 350 344 334 339 346
353 363 367 367 367 364 364 360 360 359 360 358 354 357 350 345 346 348 349 349 348 349 348 348 349 352 352 352 351 351 349 351 349 349 347 347 351 350 351 350 349 349 350 350 343 338 333 334 341
352 357 365 364 365 367 360 360 356 356 358 352 352 357 353 344 345 346 348 346 349 349 347 348 351 351 349 350 349 350 349 352 349 347 350 346 350 351 348 345 348 349 349 347 340 339 340 336 341
351 355 365 364 360 366 360 362 353 352 356 356 352 351 347 344 345 346 344 347 349 348 351 349 348 350 347 350 351 351 352 350 351 346 341 347 348 349 350 344 347 350 349 348 340 337 336 336 339
353 355 357 353 354 361 356 359 352 357 357 358 355 350 348 346 345 343 342 345 347 347 348 349 348 351 347 350 347 349 349 342 342 341 347 349 349 345 339 342 344 348 343 346 340 340 342 341 343
346 353 349 351 353 357 356 357 356 358 360 357 357 351 347 347 345 343 344 344 344 346 347 348 348 347 349 343 346 347 345 348 349 347 346 348 348 344 339 344 345 342 341 339 344 339 338 344 344
348 345 346 349 357 361 362 359 356 356 357 356 352 349 346 346 344 343 344 343 341 343 345 347 346 350 349 344 347 348 350 350 348 344 348 348 346 346 346 346 342 345 347 341 344 341 337 345 345
343 343 343 349 353 361 358 361 359 357 352 353 352 349 346 345 345 343 343 343 341 347 348 346 346 348 349 349 349 350 351 350 347 346 347 347 346 347 348 347 346 346 348 345 345 344 344 345 346
338 339 339 342 356 360 359 359 359 356 348 351 352 349 347 345 344 344 343 343 347 348 347 346 345 347 349 350 350 344 348 349 347 346 341 347 348 349 349 346 348 344 344 345 346 344 343 345 344
332 332 332 336 348 357 355 358 359 356 354 355 352 349 347 345 344 343 344 342 342 349 347 344 346 336 348 349 348 349 349 350 345 346 344 347 348 349 350 348 345 346 348 346 343 346 343 345 342
329 327 330 333 343 351 353 364 360 357 357 355 352 350 349 346 344 344 344 343 346 349 346 344 344 345 349 351 349 346 348 349 348 347 349 351 352 350 349 348 346 346 346 343 343 341 344 343 341
331 326 328 330 333 353 354 365 361 358 358 355 353 352 350 348 345 345 345 343 344 346 344 344 345 347 348 351 347 344 347 350 351 348 351 350 347 347 348 349 349 347 345 343 342 341 343 342 342
332 327 325 327 333 352 357 364 358 354 356 358 354 353 350 348 346 346 343 342 344 343 344 347 347 345 347 348 343 346 348 347 350 351 351 351 351 349 346 348 348 348 346 342 346 344 339 343 339
329 330 328 326 328 346 357 365 363 353 356 360 358 353 351 349 347 345 343 344 345 343 342 346 349 348 346 347 347 349 349 349 349 351 353 350 352 351 347 347 347 347 345 345 344 342 341 343 340
327 328 328 329 327 330 353 362 355 357 354 358 354 353 351 349 348 345 343 345 347 344 342 345 347 348 349 349 346 349 348 349 348 349 351 352 351 350 348 348 349 350 346 350 347 349 344 345 339
327 327 328 328 327 336 354 358 354 351 353 353 354 350 349 348 347 346 343 343 346 348 344 346 348 348 347 349 345 349 347 347 347 351 351 352 352 352 352 351 351 347 349 349 349 347 347 343 341
324 326 327 326 325 326 351 362 355 352 357 358 351 348 347 348 346 345 344 344 344 346 347 345 350 348 347 346 346 349 352 352 349 348 352 353 352 349 354 352 350 348 350 350 345 346 348 344 343
324 326 325 326 324 323 324 326 352 353 359 355 356 345 343 344 347 346 344 343 344 346 346 347 349 348 347 349 345 347 349 349 349 349 352 351 351 352 353 352 354 350 351 349 350 351 351 348 349
325 324 323 323 323 325 323 324 330 359 357 351 345 343 343 345 348 346 345 345 346 346 347 348 350 349 346 346 348 346 347 348 350 351 350 352 353 353 355 353 350 350 351 351 351 354 349 346 347
323 322 322 324 324 326 323 322 321 354 354 350 347 345 347 354 348 348 346 345 345 347 347 349 351 353 348 346 349 346 345 346 347 348 353 353 352 354 355 355 353 353 350 352 348 353 352 349 348
322 320 322 326 327 326 324 325 323 324 353 347 345 348 353 350 343 348 347 346 346 347 347 349 349 352 353 348 345 349 344 344 348 351 355 353 354 352 351 354 353 350 351 352 351 352 349 350 348
325 325 321 322 323 325 325 325 325 324 339 349 348 350 348 348 351 348 349 347 347 347 347 348 349 349 353 351 346 346 350 343 344 347 351 352 353 352 349 353 353 351 352 350 353 351 349 355 353
323 323 322 322 326 328 327 327 328 327 325 347 349 348 353 352 352 350 349 349 347 347 347 348 350 350 352 353 350 346 349 347 342 343 346 349 344 346 350 353 354 353 352 354 354 354 353 351 354
321 320 321 321 325 328 326 326 326 331 332 347 348 347 352 349 351 350 348 349 346 348 347 349 352 351 351 351 353 349 347 350 347 344 343 345 347 349 348 354 353 355 354 354 355 354 353 353 351
315 318 317 318 322 326 330 331 327 329 333 339 347 346 350 350 350 349 346 346 346 347 348 349 351 353 353 353 352 354 349 347 350 348 342 343 343 347 356 354 352 353 354 354 355 355 354 354 354

GFSSGP_925_thetae_060.txt.gz
Theta_e
344 336 342 345 358 360 366 365 362 361 360 353 349 352 356 355 358 358 342 343 341 341 343 346 347 348 347 348 350 349 345 347 350 347 350 351 349 348 351 351 351 351 348 350 351 350 350 350 349
339 342 345 353 362 370 367 365 366 361 356 352 353 353 355 356 347 343 346 344 341 341 346 347 345 350 351 349 349 351 351 350 350 348 349 346 350 351 352 351 351 351 351 350 349 351 349 350 350
341 345 351 360 364 366 369 361 362 359 356 356 356 350 351 353 345 345 347 344 342 344 345 346 345 348 350 350 350 349 350 351 351 351 351 349 349 350 351 351 350 350 350 349 349 349 350 350 350
349 352 353 359 365 363 365 359 359 362 359 353 349 352 347 348 347 347 347 346 342 346 347 346 345 348 349 346 351 350 351 351 351 350 348 351 351 352 350 351 350 350 350 350 349 348 348 349 346
351 353 364 367 367 361 361 358 358 360 356 354 351 354 351 347 347 347 347 346 347 347 346 345 348 350 351 351 352 350 351 351 350 351 351 352 351 351 350 350 350 351 350 350 349 348 348 346 346
351 353 368 367 362 364 360 360 359 361 357 354 353 353 349 347 347 348 347 349 349 346 348 350 349 350 350 352 352 351 351 351 348 351 351 351 351 350 351 351 351 350 350 349 348 347 347 346 346
351 363 364 365 366 366 361 353 360 358 356 355 351 351 345 346 347 348 350 350 346 344 347 349 350 352 352 352 352 352 351 351 350 351 351 351 351 351 351 351 350 350 350 349 347 345 343 344 344
349 354 363 364 363 369 362 355 357 358 359 351 348 350 348 346 347 350 350 350 347 349 347 348 350 349 349 352 352 352 351 351 351 351 351 351 351 350 349 347 349 350 350 349 348 338 336 340 344
351 358 361 359 361 364 360 362 354 353 355 353 352 348 344 346 347 348 349 350 351 350 347 348 350 347 348 351 352 352 352 351 350 350 348 348 348 346 346 348 349 347 346 346 338 337 339 342 342
356 358 357 350 357 363 361 359 353 357 357 357 355 346 344 345 346 346 348 349 349 348 350 348 346 345 348 349 351 350 348 343 341 344 348 349 348 342 342 345 349 344 340 339 338 340 340 341 341
348 357 352 351 355 350 351 354 355 356 359 357 354 348 344 344 346 345 348 349 349 347 346 344 345 344 346 346 347 344 342 338 344 347 348 348 347 339 341 340 340 342 343 341 337 338 343 345 345
348 346 346 348 354 353 356 358 360 357 359 355 350 346 344 344 343 345 346 347 347 348 348 347 347 346 343 344 343 342 346 346 346 346 347 348 347 342 344 341 343 344 341 342 339 338 342 344 343
341 343 345 346 357 354 350 354 355 356 356 353 350 347 346 344 342 345 344 345 346 347 348 348 347 346 344 342 342 345 348 347 348 347 347 347 345 346 346 343 345 345 346 344 343 343 344 343 343
339 338 337 358 356 354 356 359 356 354 353 354 351 348 346 344 341 344 343 342 344 345 347 347 348 350 345 344 347 349 350 349 347 347 344 345 347 346 346 346 346 344 344 344 345 342 342 344 344
336 335 328 346 360 360 355 362 361 351 352 355 353 348 346 343 342 342 342 341 342 346 346 347 349 351 345 349 350 347 350 348 348 344 343 347 349 347 346 345 347 344 345 343 345 343 342 344 344
330 326 326 333 359 358 352 364 359 353 356 356 353 349 347 344 343 342 342 346 345 347 346 346 348 348 348 349 348 346 348 347 347 346 346 347 347 347 348 347 344 346 347 346 343 345 343 342 342
326 331 329 326 337 358 355 366 359 357 357 355 352 350 347 345 343 343 343 347 347 346 344 346 347 347 346 347 348 348 349 349 346 346 348 349 348 349 348 346 344 344 342 341 341 343 343 342 341
331 331 325 325 325 353 359 363 361 358 357 355 352 349 347 347 344 343 343 347 348 346 344 344 340 348 349 346 347 347 350 347 347 347 350 350 347 346 348 348 344 346 346 342 339 341 342 343 341
327 327 327 327 327 331 359 364 364 359 358 356 352 351 348 349 346 343 343 347 347 346 344 343 342 348 350 349 345 347 348 351 351 350 350 350 349 345 347 345 347 345 345 345 344 343 342 344 339
328 327 326 326 326 329 361 364 361 357 358 357 354 352 350 349 347 345 342 344 345 345 344 346 344 346 348 347 344 348 348 347 350 350 352 349 350 349 346 346 345 346 342 346 345 345 346 341 340
327 326 326 326 326 352 358 363 361 354 353 357 356 354 351 349 347 346 343 344 343 343 345 346 345 345 345 345 344 348 349 348 348 349 352 351 351 349 349 345 345 349 347 349 346 344 343 339 341
326 323 325 327 323 329 349 363 355 358 356 356 346 349 349 349 348 345 343 344 343 342 346 347 346 347 345 345 342 347 349 348 347 349 349 351 351 351 350 350 351 347 349 348 347 348 346 340 341
326 324 323 323 323 321 324 322 345 355 359 360 346 345 346 349 347 346 342 345 343 343 345 347 347 347 346 344 343 345 350 348 346 349 349 351 353 351 352 351 350 348 349 347 343 348 348 346 346
324 322 320 318 319 321 321 321 345 355 358 358 355 352 351 347 345 345 342 344 345 344 344 347 347 347 346 346 345 343 347 349 350 347 350 350 353 352 351 352 349 348 350 349 348 350 348 346 348
321 317 319 321 320 321 320 320 319 350 348 354 355 353 351 347 344 344 343 342 344 345 346 349 349 348 347 346 344 342 346 348 349 348 348 350 353 352 353 353 350 346 348 348 350 353 350 346 346
321 316 319 323 323 322 321 323 323 334 347 348 350 350 344 344 343 345 344 342 343 345 346 349 349 348 347 347 346 342 345 346 347 349 350 353 352 350 351 355 353 350 347 351 349 348 350 346 346
323 322 316 318 319 321 321 322 324 329 329 349 346 343 344 344 347 348 345 343 344 345 345 347 349 348 348 347 346 345 343 345 345 348 350 351 351 350 352 353 354 351 350 349 349 350 349 349 346
322 320 322 317 322 324 323 324 324 329 336 343 347 345 344 350 349 350 346 344 344 345 345 346 347 349 348 347 346 345 345 344 344 344 350 354 352 351 351 352 354 352 350 350 350 350 350 349 354
311 313 317 316 319 323 324 323 327 331 333 334 347 345 347 350 350 350 348 346 345 346 345 346 346 347 350 349 348 346 345 347 343 342 344 347 351 353 353 352 350 352 350 352 351 351 351 351 351
312 311 309 315 319 318 323 324 325 327 328 326 329 345 348 348 349 348 348 348 347 347 346 346 347 347 347 350 350 348 345 345 346 343 342 343 345 349 349 346 351 353 351 350 353 352 353 352 353

GFSSGP_925_thetae_063.txt.gz
Theta_e
349 343 343 344 356 357 364 365 362 361 360 353 345 348 352 353 357 356 340 341 338 341 346 347 349 349 351 350 348 346 344 351 347 351 351 351 351 351 348 351 350 348 351 350 349 351 352 351 352
344 342 345 351 360 367 366 363 365 361 357 351 353 353 355 355 346 341 343 341 339 342 346 348 348 349 351 351 349 346 351 350 349 350 347 349 349 351 351 351 350 350 348 351 349 349 350 351 351
340 346 350 359 362 365 368 363 361 360 356 355 354 350 352 350 343 341 344 340 341 344 344 347 348 350 351 351 348 351 351 350 350 350 349 350 349 351 351 351 350 350 349 349 351 349 350 350 350
346 350 352 358 363 362 364 357 358 361 357 353 351 353 349 344 342 346 343 340 342 346 345 349 349 351 351 351 348 349 351 349 350 351 350 348 348 350 350 350 350 350 349 348 349 350 351 351 348
350 352 363 366 366 363 358 356 359 361 359 357 353 353 350 344 347 345 343 341 345 346 346 349 350 350 346 349 351 351 350 349 350 347 351 350 351 349 350 350 351 350 350 348 348 349 345 344 346
351 351 367 369 365 364 360 358 357 358 357 355 352 351 348 346 346 345 345 344 345 347 346 347 349 346 352 352 350 351 351 350 350 347 350 348 351 350 350 351 350 350 348 348 348 346 345 346 345
351 361 364 365 365 364 362 353 361 358 357 354 350 350 349 346 346 346 344 346 346 344 344 347 350 352 351 351 350 351 351 350 350 348 348 350 350 350 351 351 350 350 348 348 348 346 345 346 346
349 354 362 362 363 366 357 355 356 356 357 346 343 350 351 346 346 348 349 348 346 348 348 349 350 351 350 351 352 352 351 351 349 349 350 351 351 350 350 349 351 350 348 348 343 343 343 345 346
351 360 360 357 360 364 358 361 355 353 354 348 352 343 345 347 349 350 351 351 352 350 349 349 351 350 350 349 352 352 351 351 351 350 351 349 349 345 346 348 350 350 349 342 335 339 342 343 343
356 359 359 351 357 361 360 359 356 357 356 355 346 344 346 348 349 349 350 349 351 351 350 349 349 348 350 349 351 350 351 348 348 347 346 348 344 343 344 349 350 350 350 340 336 339 341 341 343
350 360 352 352 355 357 360 358 354 356 359 356 347 347 346 348 348 349 349 348 348 348 350 349 346 344 347 348 349 349 345 342 345 347 348 347 343 342 343 342 343 343 342 339 337 340 342 343 344
347 347 350 346 352 351 353 357 358 357 357 353 344 346 346 346 347 348 348 347 348 348 349 348 344 344 346 346 347 342 337 344 347 347 347 346 342 341 342 340 341 340 340 342 340 339 344 344 345
344 344 342 342 347 352 350 352 357 358 356 351 344 345 346 345 346 347 347 347 346 347 346 344 344 343 344 345 343 342 341 342 345 345 346 347 343 341 343 344 344 344 343 342 339 343 343 343 343
339 341 339 345 353 351 353 357 355 356 354 351 347 345 344 345 345 346 346 346 347 345 345 344 346 344 342 344 342 344 345 346 347 347 347 346 345 345 346 343 345 344 343 343 343 343 344 344 344
336 339 334 356 353 356 355 361 359 355 354 354 350 346 345 343 343 345 344 345 346 345 345 346 346 344 341 341 342 346 347 349 348 346 346 345 346 346 346 346 345 344 342 343 344 343 343 344 343
328 325 327 354 356 358 356 358 356 355 356 354 352 348 347 342 341 344 342 344 345 345 346 346 347 349 343 344 347 348 348 349 347 347 346 346 348 346 346 345 346 344 343 344 344 344 343 343 344
324 331 330 339 358 359 358 361 357 355 357 356 352 349 348 344 341 342 341 342 343 345 346 346 348 349 345 347 347 346 347 348 347 348 341 347 347 346 347 346 344 346 345 343 341 342 343 342 342
330 331 327 326 355 357 359 358 358 355 357 356 353 350 347 346 342 341 343 341 343 345 345 345 347 350 348 348 348 348 348 348 347 347 346 348 347 347 347 347 345 343 344 343 341 343 342 342 341
327 327 327 326 325 326 357 357 361 358 358 357 353 351 347 346 343 341 344 344 344 345 345 345 347 348 347 347 346 347 348 347 348 346 347 348 346 347 346 347 344 346 343 342 341 340 342 342 342
327 327 327 325 325 324 333 358 360 359 358 355 353 350 348 345 344 342 343 347 347 345 345 344 345 347 348 346 345 346 349 348 347 348 348 349 348 345 346 345 344 344 345 345 343 341 346 343 340
327 326 326 326 325 354 357 363 363 358 354 355 353 350 348 346 347 343 344 347 347 345 344 344 345 345 348 347 346 347 348 348 348 349 349 351 349 348 347 347 345 346 343 345 344 342 344 339 340
328 325 327 325 323 322 349 356 362 358 355 354 356 353 350 347 346 344 342 345 347 345 344 344 342 344 348 349 344 347 348 348 348 349 349 351 351 350 347 343 343 348 346 347 344 344 343 338 340
326 325 323 323 321 320 324 330 337 356 358 355 357 355 352 349 347 344 341 343 345 344 344 344 343 344 346 347 345 345 347 347 347 348 348 351 351 350 349 349 350 348 347 348 347 346 346 341 342
324 324 318 315 315 319 319 320 335 359 357 354 353 354 352 350 348 345 343 343 343 343 344 345 345 344 345 345 344 343 345 348 347 347 347 349 351 351 350 350 349 348 348 349 345 346 348 346 347
319 316 320 320 319 320 318 319 320 344 351 350 351 353 345 345 346 347 342 343 342 342 344 346 346 346 345 345 345 342 342 347 349 348 346 349 350 351 351 351 350 349 347 349 347 347 347 346 346
317 316 317 322 320 321 318 322 323 327 335 345 348 348 348 346 346 346 341 344 342 342 343 347 347 346 346 346 345 343 342 345 348 348 349 347 349 350 351 351 351 350 346 348 348 347 348 347 346
320 320 315 315 316 319 319 321 323 330 331 332 347 350 350 349 348 347 342 342 343 343 343 346 347 346 346 346 345 344 343 342 346 347 347 349 347 350 349 350 351 352 350 347 351 348 348 350 346
314 317 320 315 320 322 320 322 330 329 327 329 345 349 350 349 348 344 344 341 343 344 343 345 346 345 345 345 345 344 344 342 343 345 346 347 349 351 351 350 350 353 353 350 350 350 349 349 347
310 310 309 314 315 319 322 326 326 327 323 324 332 343 347 342 342 344 343 343 342 343 344 345 346 346 346 346 345 345 344 343 341 344 345 345 350 352 352 351 351 351 353 352 350 350 350 349 347
311 310 307 312 316 314 319 323 314 320 319 319 344 341 341 344 344 348 347 345 343 343 343 344 346 347 346 346 345 345 344 344 343 341 342 344 344 348 352 352 352 351 352 352 350 350 350 351 350

GFSSGP_925_thetae_066.txt.gz
Theta_e
347 343 342 343 354 356 362 366 361 361 360 350 343 344 347 347 350 354 339 340 338 341 344 347 348 351 349 349 349 347 351 348 349 348 349 349 349 349 351 349 349 350 349 349 349 350 349 351 352
343 343 344 350 359 365 365 361 364 361 354 348 350 352 354 354 345 339 342 340 340 341 344 347 347 349 351 350 350 349 350 350 349 349 349 350 350 350 351 351 349 349 349 349 349 348 350 351 352
341 346 348 358 362 363 368 361 361 353 353 351 353 350 352 349 340 340 342 339 340 343 346 346 347 348 349 350 349 349 349 350 349 350 350 349 350 350 350 350 350 349 349 349 349 349 350 351 352
344 349 351 358 363 360 362 358 354 357 356 353 352 354 348 344 339 344 341 339 341 344 346 347 348 351 351 349 350 350 350 350 350 347 350 347 351 350 350 347 350 348 348 348 347 349 351 350 346
349 352 361 367 365 363 359 355 357 360 358 356 353 351 347 344 345 342 341 340 342 345 346 349 349 351 351 346 349 349 349 349 347 350 350 351 349 350 350 349 345 348 348 348 349 348 347 344 345
352 350 366 367 365 364 359 356 358 358 357 355 351 349 349 345 343 342 341 342 344 345 346 349 349 348 344 351 350 350 350 349 349 348 350 350 346 345 345 345 348 348 348 349 347 347 346 347 345
353 360 366 364 364 363 361 357 360 357 357 354 348 350 350 345 343 343 342 344 346 346 347 346 344 349 351 349 347 348 350 350 347 348 349 346 347 345 348 349 349 348 347 349 348 348 349 346 347
350 353 361 361 360 366 358 356 356 356 357 346 345 351 354 345 345 343 344 345 348 347 347 349 351 351 351 351 348 350 350 350 350 347 349 348 348 347 349 347 348 348 348 348 345 345 348 346 346
350 359 359 357 358 363 356 360 355 354 351 347 347 346 345 345 346 347 348 348 348 347 346 349 350 347 349 351 351 352 350 351 350 349 350 347 347 346 347 348 348 349 347 343 343 344 344 343 345
355 360 357 352 356 360 358 359 358 357 354 348 349 346 345 348 348 348 348 347 347 349 349 349 349 347 350 350 350 349 349 349 347 347 345 344 343 343 347 350 350 349 348 339 339 342 342 342 343
353 359 352 352 357 357 358 358 355 357 358 350 351 348 348 348 347 347 347 346 347 348 350 350 349 348 348 351 349 347 345 347 345 345 345 343 341 342 344 347 346 343 339 337 339 340 340 341 343
349 346 349 346 351 352 357 355 357 355 355 347 346 346 348 348 348 347 347 347 347 350 350 348 348 348 347 349 346 343 342 344 345 345 344 341 339 340 342 343 343 343 340 336 339 340 344 343 344
343 345 342 342 343 350 353 356 358 357 354 344 346 347 348 348 348 348 348 347 347 348 347 346 346 346 344 346 344 339 342 345 346 345 345 343 341 341 341 343 342 343 341 339 338 342 343 343 343
339 341 340 336 339 348 351 353 355 358 351 347 348 347 347 347 348 348 347 346 346 346 347 346 344 346 345 343 343 336 339 343 344 345 345 345 344 343 343 342 344 344 344 343 342 342 343 343 343
335 338 333 334 353 353 356 360 357 357 349 349 349 347 346 346 347 347 346 345 344 344 345 344 343 344 345 341 342 342 344 345 346 346 345 344 345 345 344 345 344 343 343 344 344 343 342 343 343
327 325 328 347 353 355 350 355 357 356 352 349 349 348 347 345 346 346 346 345 344 341 343 340 344 344 343 341 341 344 345 347 347 346 345 344 344 346 345 344 345 343 343 343 344 342 343 343 343
324 331 330 329 354 357 354 356 355 356 355 351 348 346 346 345 344 345 344 345 343 340 342 342 345 343 342 341 341 346 347 347 347 347 346 344 345 346 345 344 344 343 344 342 341 342 343 342 342
331 330 327 328 357 357 358 356 357 356 356 354 350 347 345 344 342 344 343 344 343 342 342 344 344 346 344 342 346 347 346 346 347 347 347 343 346 345 346 345 343 345 343 341 340 342 342 342 342
328 327 327 325 329 331 331 349 358 354 358 357 353 349 347 343 341 343 341 342 343 344 344 345 346 348 345 345 348 348 346 347 347 347 346 347 346 346 346 346 344 343 343 342 340 341 342 342 341
326 327 327 325 325 322 332 346 355 353 359 356 354 349 347 344 340 340 342 340 342 344 344 345 345 347 347 347 347 347 347 347 347 347 346 347 348 345 346 347 345 345 343 343 342 340 344 342 340
327 327 326 327 326 337 355 356 361 359 355 354 354 350 348 345 342 340 343 342 343 344 344 344 344 345 348 347 346 346 347 347 347 347 347 348 348 347 345 346 345 343 344 345 344 341 343 340 339
331 325 326 327 323 321 345 345 357 358 358 354 354 351 348 345 343 341 342 345 345 344 344 343 344 343 347 347 346 346 346 348 348 347 348 348 350 349 348 346 346 345 345 343 342 343 345 338 339
329 323 325 324 322 319 323 344 332 354 357 356 354 352 349 346 344 343 342 346 345 344 344 343 343 343 346 347 346 345 347 347 347 347 348 348 350 350 347 345 343 346 346 346 345 345 346 340 339
323 321 314 313 314 318 318 334 320 355 354 351 352 353 351 348 344 344 342 345 346 345 344 343 343 343 345 347 348 345 346 346 346 347 347 348 350 350 350 349 347 346 347 347 345 345 346 345 343
318 317 319 319 318 320 316 319 320 327 327 335 348 351 353 349 347 345 341 342 344 344 344 343 343 343 344 345 348 346 344 346 346 345 346 346 348 349 349 350 350 347 348 347 348 343 346 347 345
316 316 318 322 319 320 317 320 323 327 326 325 341 348 350 351 348 347 342 341 342 343 343 344 344 343 342 343 346 347 344 344 345 345 345 345 346 347 348 349 349 349 348 348 348 346 347 347 345
316 317 315 314 314 317 317 321 324 324 322 322 325 344 349 347 347 346 344 342 342 342 342 344 344 344 343 343 344 345 344 343 344 346 346 347 348 347 348 349 348 349 350 348 348 348 346 346 346
314 312 318 313 320 322 319 327 328 323 321 321 326 336 345 345 343 344 344 342 342 341 341 344 344 344 343 343 344 344 343 343 341 345 347 347 347 348 347 348 349 348 350 350 349 348 350 347 347
311 310 308 312 313 318 323 327 319 319 319 317 342 348 338 347 347 345 345 341 342 342 341 343 345 345 344 345 345 345 344 344 342 342 345 346 346 347 348 349 351 350 349 348 351 349 348 349 349
309 310 306 315 318 309 318 321 311 310 311 317 334 347 345 342 345 346 344 343 341 342 342 342 344 345 344 344 345 345 344 344 344 341 341 344 345 345 349 351 351 351 350 350 349 350 348 348 349

GFSSGP_925_thetae_069.txt.gz
Theta_e
346 344 344 345 359 358 365 365 359 362 354 348 344 345 347 346 350 359 340 341 343 344 349 350 350 349 349 343 345 351 349 348 347 347 349 351 349 350 348 349 350 348 346 351 352 348 348 352 350
345 345 346 354 362 365 368 361 365 358 353 345 348 346 350 351 346 342 341 342 343 345 349 350 348 346 345 342 346 349 348 350 348 346 347 347 348 350 349 349 350 350 350 349 347 351 352 350 349
345 347 353 361 362 365 367 360 360 356 349 353 354 351 353 350 342 340 342 342 344 347 349 350 348 350 349 346 347 348 348 350 347 348 349 348 350 348 346 348 349 350 348 349 350 351 352 350 346
345 350 354 361 365 360 362 357 355 357 351 353 352 356 346 342 341 343 342 344 346 347 349 350 349 350 351 350 351 350 350 350 348 350 350 350 351 350 346 350 350 349 348 350 351 351 351 346 347
350 354 363 366 366 363 359 354 354 356 358 355 352 352 346 343 345 342 343 345 346 348 350 351 349 351 350 350 349 350 350 348 349 350 351 350 350 349 349 348 345 348 349 350 350 349 347 348 346
354 351 367 368 365 363 359 355 355 355 357 352 349 349 349 346 343 342 345 346 346 348 349 352 348 351 350 351 347 349 349 348 349 349 350 350 346 348 347 348 348 348 349 349 348 346 345 345 344
355 361 366 364 363 363 360 356 356 358 358 356 348 353 349 345 342 344 345 346 347 348 350 353 351 349 350 350 350 349 349 349 346 350 349 349 347 344 346 349 347 348 349 349 348 346 345 345 346
353 356 362 360 361 365 357 357 357 356 356 348 347 353 350 344 342 345 346 347 348 348 350 348 347 353 352 351 348 349 350 350 347 350 349 350 350 350 343 347 348 349 349 350 345 344 344 343 343
352 361 362 358 358 363 356 360 355 354 351 347 347 347 344 343 343 345 346 348 349 349 350 350 352 352 352 352 352 350 351 351 351 350 347 347 348 348 348 348 348 348 346 345 344 343 343 344 346
357 363 359 354 356 359 359 359 357 357 351 351 350 346 344 344 344 345 346 347 348 348 350 350 352 351 351 351 352 351 349 348 349 350 348 348 348 349 349 350 349 347 345 342 342 343 342 346 350
355 360 354 352 354 356 358 358 357 357 355 350 352 348 345 344 343 344 345 346 346 346 348 350 352 352 351 353 350 349 348 349 348 345 345 345 348 348 349 348 347 347 340 344 345 344 345 345 348
356 350 350 349 352 354 357 356 358 356 356 349 348 345 345 345 344 344 345 346 346 347 350 351 351 351 352 351 349 349 348 349 347 347 343 342 345 347 347 347 345 342 343 341 339 344 345 343 344
351 349 346 344 344 347 352 356 356 357 352 348 346 346 345 345 344 345 346 346 347 346 349 350 350 351 351 351 349 349 348 348 348 347 343 343 347 345 346 343 343 341 341 341 341 345 345 346 347
343 342 341 338 338 343 352 355 355 356 349 349 349 348 346 346 345 346 347 347 346 346 347 348 349 350 349 350 345 345 348 348 348 346 345 344 344 342 342 342 344 344 344 342 344 344 344 347 347
338 340 333 347 349 353 354 358 358 351 349 350 350 348 347 346 346 348 347 346 346 346 347 348 348 349 349 349 345 347 347 347 348 347 345 344 344 345 343 346 344 343 343 343 343 343 343 347 346
335 330 339 351 354 354 355 361 358 353 351 351 350 350 349 348 347 348 348 348 346 344 347 348 346 347 349 349 344 346 347 348 350 347 345 343 344 345 345 344 344 344 343 344 345 347 347 346 346
331 341 336 334 356 357 356 358 360 353 352 351 350 349 349 349 349 349 348 348 347 345 346 347 346 347 347 347 347 346 345 347 349 347 346 344 344 346 344 344 346 343 344 342 345 347 346 346 345
340 335 331 337 353 357 357 356 359 359 355 354 351 349 350 349 349 349 348 348 347 344 344 345 346 347 345 346 346 347 349 347 347 348 347 343 345 345 344 344 344 344 346 343 345 344 342 345 345
332 332 333 330 337 338 331 333 346 359 359 355 353 351 350 349 347 348 346 347 346 344 344 345 347 347 346 346 346 349 349 349 347 347 346 345 346 346 346 345 343 344 343 342 341 344 346 346 342
333 334 333 330 328 330 331 336 358 355 359 358 353 350 350 349 348 346 347 346 346 344 345 346 348 346 347 347 348 349 350 349 350 347 346 346 347 346 346 345 344 343 343 341 340 341 348 346 342
333 335 332 331 329 338 353 354 360 358 357 358 356 350 349 348 348 347 346 345 345 345 346 346 347 346 347 348 347 347 347 347 349 348 347 348 348 345 344 346 344 345 345 348 343 342 343 345 343
337 330 331 330 331 330 339 335 354 359 359 359 358 355 351 349 347 346 345 345 345 346 346 347 346 346 348 347 348 349 349 350 350 350 350 350 349 348 346 346 345 344 345 347 346 346 345 340 344
336 329 331 330 330 326 331 339 343 353 361 358 360 357 352 349 348 346 345 345 344 345 346 347 347 347 348 348 348 349 350 349 350 351 349 349 350 349 348 345 346 345 348 344 343 343 343 341 344
329 325 322 322 325 329 327 336 332 340 339 337 353 356 354 351 348 347 345 345 345 345 346 346 346 345 347 346 347 347 350 350 350 350 351 352 353 348 349 347 345 345 348 346 348 344 345 345 345
327 328 329 330 330 331 323 328 334 330 329 330 335 343 355 352 350 348 347 345 346 346 346 346 347 347 347 347 348 346 349 348 347 347 350 352 352 353 351 349 348 346 346 346 347 344 344 347 349
326 328 328 331 330 329 323 328 333 323 327 333 343 343 350 354 351 349 347 346 347 347 347 347 347 347 347 348 348 346 348 349 348 349 349 350 350 351 350 348 347 348 348 347 347 350 349 348 349
321 324 323 324 321 327 326 328 325 322 329 336 349 349 348 352 353 350 347 346 347 347 347 347 348 348 347 347 348 348 348 348 348 348 346 349 347 350 347 348 348 348 349 349 347 351 347 348 349
320 317 323 324 329 329 329 333 328 322 330 338 347 349 345 348 352 351 348 346 346 347 347 347 348 348 347 347 347 347 347 348 348 346 345 347 345 347 350 348 349 348 349 350 348 350 350 347 350
319 320 320 323 323 327 331 330 316 323 333 335 331 339 348 350 348 350 349 347 346 346 346 346 347 348 348 347 347 346 346 347 347 347 345 346 345 347 348 347 349 350 349 350 350 351 351 352 353
313 314 315 326 328 322 329 323 317 325 329 325 325 326 330 337 343 347 348 346 346 345 345 345 346 347 347 347 347 347 345 345 347 346 345 344 347 346 346 347 349 353 352 352 352 348 353 353 353

GFSSGP_925_thetae_072.txt.gz
Theta_e
342 343 347 348 363 359 367 368 361 359 355 350 346 347 348 347 353 361 343 343 345 346 347 348 348 351 350 349 349 350 348 347 348 351 347 351 349 348 350 350 349 351 352 353 349 351 352 351 351
344 346 349 356 366 366 369 362 364 357 353 347 346 346 349 356 349 345 344 344 345 346 347 348 346 349 349 350 351 351 351 347 348 350 350 351 350 351 351 351 349 350 350 351 352 352 352 352 352
347 349 357 363 361 365 369 361 357 352 349 350 354 350 355 353 346 343 343 344 345 347 347 351 347 348 350 351 351 351 351 350 348 347 350 350 350 349 350 350 349 349 352 351 352 351 351 346 352
349 353 357 365 367 362 361 359 354 353 354 354 353 357 349 346 343 344 343 344 346 347 347 350 352 349 351 350 350 349 351 349 348 350 351 351 351 350 350 350 350 350 351 352 350 348 345 345 349
351 357 367 368 367 365 360 355 354 352 354 357 354 356 350 344 345 343 344 344 346 347 348 350 349 352 348 351 349 351 350 351 351 352 350 350 350 350 348 349 349 350 350 351 350 349 346 348 350
357 356 368 368 367 364 357 353 354 354 355 354 354 350 351 345 343 344 345 345 346 346 348 350 351 351 351 350 350 351 348 348 351 351 349 350 349 349 350 349 349 350 350 350 348 346 346 344 349
359 363 365 361 366 365 361 353 354 355 358 357 350 356 350 345 343 344 345 346 346 346 349 350 352 351 349 351 350 351 351 350 351 350 351 350 350 350 350 348 350 350 347 344 343 343 343 345 349
355 359 361 358 365 367 359 357 353 357 356 350 350 357 353 345 344 346 346 346 345 346 350 348 346 347 349 351 350 351 351 351 351 351 350 344 349 346 348 346 350 350 344 344 343 344 343 343 343
353 364 361 359 363 363 356 359 357 354 355 352 351 350 345 344 345 346 346 346 347 349 349 343 348 351 351 351 351 349 350 350 344 345 344 347 345 346 345 345 350 349 350 348 343 344 344 345 344
358 363 357 354 354 361 359 359 358 355 354 353 352 348 344 344 346 346 346 346 347 348 347 344 349 349 351 351 351 347 346 345 346 347 348 346 347 350 345 347 348 348 345 342 342 342 347 349 348
357 359 354 352 353 353 359 357 355 357 356 354 354 350 345 345 345 345 346 346 346 348 345 348 349 350 351 351 346 344 345 346 348 348 347 348 346 345 344 347 347 346 347 347 347 348 348 349 346
359 354 353 350 348 352 355 356 359 355 356 349 351 347 345 346 345 346 345 346 346 347 345 347 349 350 351 348 344 346 346 347 346 348 348 348 345 345 346 346 347 346 345 346 347 348 350 350 348
354 353 349 346 343 344 349 355 357 358 352 350 348 346 346 345 345 345 345 345 347 346 346 347 349 351 352 348 345 346 346 346 347 347 349 347 347 348 347 348 347 346 346 346 348 348 349 349 348
347 347 346 342 339 341 352 355 356 357 353 351 348 347 346 345 345 345 345 346 347 344 347 347 348 351 352 348 349 348 347 347 347 347 349 351 348 349 348 348 347 347 347 347 348 349 348 346 346
342 345 344 344 343 348 352 360 359 356 353 352 349 347 346 345 344 346 346 345 344 343 345 347 348 349 350 349 349 347 347 347 348 349 351 352 351 351 350 349 349 347 349 350 350 349 348 345 346
340 342 347 347 346 350 356 363 360 355 354 353 351 348 347 347 345 346 346 345 344 342 345 347 346 348 349 347 349 348 349 348 349 349 349 351 350 348 349 348 347 349 349 348 347 348 346 345 345
338 344 344 349 349 353 357 360 361 356 353 353 351 349 349 348 346 347 345 347 346 344 345 347 347 348 348 349 347 349 350 350 350 350 349 351 351 348 348 348 348 351 348 347 346 347 346 345 344
337 342 344 342 353 352 355 357 361 358 356 355 351 351 351 349 348 346 348 349 349 345 345 346 347 348 349 349 350 349 349 350 350 351 351 351 351 349 348 348 349 349 346 346 347 347 346 345 344
335 340 342 338 348 346 343 337 352 357 359 358 352 353 353 350 347 346 349 349 349 346 343 345 346 349 348 349 348 349 350 350 350 351 352 352 352 352 350 349 348 349 346 348 350 347 347 343 344
336 339 340 335 333 338 334 335 349 350 357 359 355 353 354 351 349 347 349 349 348 345 342 345 346 350 349 346 347 348 349 350 351 351 352 351 352 350 351 351 350 348 345 349 349 349 343 343 344
336 337 340 339 334 334 339 342 354 353 353 357 355 354 353 352 350 350 350 349 346 345 343 345 348 350 349 346 349 352 352 352 349 353 352 352 354 352 352 353 348 351 348 345 349 348 349 341 344
336 335 335 336 336 338 336 346 349 358 357 360 357 355 353 352 351 350 349 349 346 345 345 346 349 350 350 351 349 351 349 348 349 350 351 353 353 352 352 353 353 353 348 349 349 349 348 344 340
336 335 335 335 338 335 332 339 350 350 359 360 359 357 353 350 349 351 349 348 347 346 346 347 350 351 351 352 349 351 351 348 350 350 351 353 354 352 352 353 353 353 350 351 351 353 350 344 340
335 333 332 333 335 337 334 335 340 344 340 341 356 358 356 353 350 349 348 348 347 347 347 348 350 353 352 354 354 352 351 351 348 350 351 350 353 352 353 352 354 353 352 352 350 353 351 349 346
334 333 333 332 333 334 333 334 339 335 336 340 342 341 357 354 353 351 350 348 347 346 347 348 350 352 353 353 353 353 353 353 352 351 347 351 352 350 353 351 349 350 349 351 350 354 351 352 348
334 333 332 333 332 332 331 332 333 333 341 349 350 344 344 356 353 352 350 349 348 347 348 349 350 352 352 352 353 354 353 351 351 350 347 350 350 351 352 352 351 352 352 351 351 350 348 349 351
332 334 330 329 330 331 331 334 329 331 344 344 349 349 349 355 354 352 350 349 349 349 349 350 350 353 353 352 352 354 354 352 349 349 351 349 349 350 354 352 351 351 352 353 353 351 351 351 352
325 328 330 328 332 333 332 334 333 335 345 344 344 347 351 351 354 353 351 350 349 349 349 350 350 352 353 352 352 352 353 353 352 352 352 350 349 352 352 355 354 352 352 353 355 350 352 352 350
323 325 326 328 329 331 333 333 325 336 339 339 337 334 338 342 348 347 352 350 350 350 350 350 350 351 353 352 352 352 352 352 353 352 352 352 351 352 354 354 354 354 353 354 356 353 352 355 353
321 324 326 328 331 330 331 328 328 333 332 328 326 325 325 327 329 330 330 330 341 349 349 350 350 350 351 351 352 352 352 351 350 352 351 352 352 352 354 354 353 354 354 355 356 353 351 352 352

GFSSGP_925_thetae_075.txt.gz
Theta_e
340 343 347 350 364 362 370 369 361 358 356 350 348 348 351 356 359 362 346 348 349 348 348 349 349 351 353 342 345 350 351 353 349 349 351 350 350 352 349 350 353 353 353 353 354 353 353 353 352
345 344 349 357 366 371 371 364 364 360 352 348 347 348 355 357 350 346 347 348 346 345 345 345 346 347 351 347 352 349 351 352 350 350 350 351 352 352 351 351 352 352 352 353 353 353 352 352 352
351 349 357 364 365 374 371 359 358 354 349 350 349 353 356 351 347 346 346 347 345 343 345 347 348 347 349 349 352 349 352 350 351 352 352 351 350 350 351 351 350 352 352 353 353 352 351 352 352
349 352 358 370 369 365 364 357 355 358 356 352 353 356 351 346 346 346 346 346 345 348 349 344 349 352 352 353 351 352 351 350 352 352 352 351 351 351 351 351 351 352 352 352 351 350 351 352 351
350 359 370 371 369 365 360 354 353 358 359 355 353 356 352 346 345 345 345 347 347 350 350 351 348 352 351 352 350 351 350 351 352 351 351 351 351 351 350 351 351 352 352 352 351 350 350 352 350
359 358 370 369 370 363 358 354 352 354 357 356 356 354 352 346 345 345 345 346 347 346 349 351 351 352 352 352 348 352 351 350 352 349 351 350 350 351 350 350 351 351 352 351 350 348 346 350 349
361 368 367 365 370 365 359 352 354 355 357 356 352 357 351 347 345 345 345 346 346 349 348 350 351 350 352 348 351 352 351 352 352 351 351 350 351 349 349 351 350 349 349 349 348 343 349 350 346
357 361 362 363 366 369 356 354 352 355 359 352 353 356 353 347 345 346 345 346 346 348 347 349 348 347 350 351 352 352 352 351 352 350 346 341 346 346 347 345 345 348 349 350 349 343 342 341 336
355 366 364 363 364 364 358 358 355 354 355 353 352 352 346 345 345 346 345 345 345 347 345 343 345 349 352 351 350 346 349 343 342 345 345 348 349 347 348 345 346 348 349 349 347 342 341 335 336
359 365 358 356 358 359 359 359 359 357 355 355 352 348 345 346 345 346 345 345 345 346 342 344 348 348 350 348 351 347 348 349 347 347 346 349 348 346 346 347 348 343 342 342 344 347 348 347 345
357 360 353 355 356 358 359 359 357 356 358 354 354 350 346 346 346 345 344 344 344 343 342 348 348 350 350 347 344 344 343 343 344 347 347 343 345 346 344 348 348 350 349 348 348 348 350 349 342
360 354 352 352 353 356 361 356 356 357 358 352 350 348 347 348 346 345 344 343 343 343 343 346 347 350 347 345 344 345 345 344 346 347 346 346 344 345 345 348 346 347 347 347 347 347 348 345 344
358 353 351 348 347 348 353 358 360 357 351 350 351 348 347 347 346 345 344 343 343 342 343 346 348 350 350 345 344 346 343 346 344 347 348 347 347 346 347 347 347 346 346 345 346 349 346 346 345
353 353 349 347 345 344 353 356 357 359 352 352 351 349 347 347 346 345 344 344 343 342 344 346 349 352 350 349 348 344 347 343 346 346 349 350 346 348 347 347 346 346 347 348 348 349 347 345 345
347 353 348 345 343 346 354 360 361 356 354 352 351 349 347 347 346 345 345 344 343 342 345 346 348 350 350 349 347 347 344 346 347 349 351 349 350 351 349 345 347 347 350 350 349 347 346 346 346
345 348 352 346 345 349 356 365 360 357 355 353 350 349 348 347 346 345 345 343 342 341 345 345 345 348 347 347 347 347 346 348 348 348 350 351 350 351 353 347 346 346 347 347 347 347 346 346 347
341 348 347 349 344 349 356 363 359 357 356 354 351 348 348 347 346 346 345 342 342 342 345 346 346 347 347 348 348 348 349 348 349 348 350 352 351 351 350 346 348 350 347 346 345 346 344 344 346
338 342 343 348 346 349 357 365 360 357 355 355 352 351 349 347 347 346 344 345 345 345 345 346 346 348 348 348 349 347 347 349 349 349 350 352 351 351 351 349 349 353 346 346 348 347 346 345 344
334 338 342 342 346 348 350 359 358 359 356 357 353 352 351 349 347 347 344 347 347 346 345 346 347 349 348 348 347 347 348 350 349 350 353 352 353 351 352 349 349 352 347 348 348 347 346 344 343
334 335 341 341 345 346 342 341 353 355 359 359 355 352 353 350 348 347 345 349 348 347 345 346 347 351 349 348 348 347 347 348 349 352 352 352 352 352 351 350 347 348 348 350 348 347 346 342 343
337 338 341 341 337 342 339 341 349 347 352 359 356 353 353 351 349 348 348 349 349 346 344 346 347 351 350 347 349 350 351 351 353 353 350 352 352 352 352 354 350 346 350 346 349 348 348 346 340
336 333 337 338 340 341 339 344 349 350 350 362 357 355 353 352 349 348 348 349 349 345 342 345 347 351 350 348 347 350 349 349 347 350 350 352 353 353 353 351 352 350 348 347 346 345 351 343 341
334 332 335 339 338 338 340 342 350 353 357 362 358 356 355 353 350 350 350 349 348 344 344 347 350 351 349 350 352 351 351 348 349 350 354 354 354 353 352 353 353 353 352 347 351 352 350 343 343
335 336 335 335 337 337 337 336 355 353 358 359 357 356 355 353 352 349 349 349 348 344 344 348 352 353 353 353 353 353 352 352 351 349 353 351 350 351 352 353 354 354 354 351 350 351 351 350 347
337 338 338 338 337 337 334 335 345 341 342 343 353 352 355 354 352 352 350 349 348 347 344 347 353 355 355 354 355 354 354 353 356 353 350 350 351 348 353 354 355 353 353 351 351 352 352 349 347
337 336 334 335 334 333 335 336 341 342 349 350 349 347 355 354 353 351 351 350 349 348 345 346 351 355 356 355 356 356 356 352 350 352 349 349 351 350 354 354 353 353 353 353 352 352 349 348 349
335 337 333 332 332 332 336 336 337 345 347 349 354 351 345 355 353 353 350 351 349 349 346 346 351 355 356 355 356 357 357 355 349 350 352 351 350 350 355 353 353 353 353 353 353 351 348 351 350
329 332 335 334 336 334 335 338 338 346 347 347 346 349 351 349 347 344 348 351 350 349 348 346 349 354 356 355 356 356 356 357 355 351 352 350 350 351 352 354 353 353 352 353 354 351 352 351 350
328 331 333 333 331 334 336 338 338 346 345 343 334 335 336 335 337 339 335 340 345 347 350 349 349 351 355 355 355 355 356 356 356 354 353 353 351 353 353 356 355 355 354 353 354 355 353 353 352
325 327 330 333 334 331 333 334 337 340 338 333 327 326 327 324 322 328 327 329 330 335 340 349 350 350 352 353 355 355 355 355 355 356 354 354 354 352 352 355 355 355 355 355 355 354 350 353 353

GFSSGP_925_thetae_078.txt.gz
Theta_e
338 342 347 352 362 365 373 368 363 363 352 348 348 354 356 353 354 363 348 349 349 350 351 351 350 352 342 342 350 352 352 349 350 352 351 351 352 350 352 353 352 351 352 353 353 354 353 353 352
345 345 348 356 367 373 372 362 362 358 353 348 353 353 353 354 349 350 350 349 349 349 350 349 349 351 345 351 352 353 353 349 352 348 350 352 352 352 351 352 352 351 352 353 353 353 353 352 349
351 348 358 366 365 374 372 361 358 354 352 350 356 353 350 351 349 349 349 349 347 345 345 346 345 350 342 350 348 352 349 348 349 352 351 351 350 352 351 352 352 351 353 352 350 354 352 352 344
352 353 356 371 372 367 363 356 354 357 354 354 352 353 348 346 348 347 347 344 344 347 347 344 343 353 351 352 352 352 352 351 348 350 351 350 348 352 351 352 352 353 352 351 350 352 353 351 340
350 358 369 370 370 365 357 352 349 358 357 356 352 352 349 347 346 347 346 346 349 347 347 350 350 352 353 352 351 351 352 351 351 352 352 352 351 351 352 351 352 353 352 351 352 349 352 342 343
360 361 371 372 370 362 356 354 355 356 356 353 351 351 349 346 346 346 347 349 351 348 347 350 350 350 352 348 352 352 350 352 349 351 350 351 351 350 352 351 351 352 352 352 352 352 347 340 340
362 368 368 369 367 364 358 353 356 359 356 355 350 352 348 346 345 347 348 348 347 350 351 352 351 352 352 352 352 352 352 352 350 348 345 351 349 351 351 351 351 351 351 349 349 351 341 335 338
358 365 366 365 367 363 356 354 352 355 359 352 351 353 351 347 345 346 347 346 348 348 349 349 349 350 350 351 352 352 351 344 346 346 346 348 349 351 343 347 350 350 350 349 341 336 333 335 340
355 365 367 365 363 362 354 356 352 353 357 354 353 348 346 345 344 346 347 349 344 349 350 346 350 350 349 349 351 347 343 342 343 344 346 349 349 348 349 345 351 351 344 339 338 335 333 342 343
363 367 361 357 357 359 358 356 356 357 356 355 353 346 345 345 344 346 346 349 345 347 346 348 352 351 350 346 348 347 349 350 349 350 345 347 347 347 349 346 343 342 342 342 343 338 339 343 342
359 363 355 357 356 356 359 360 359 360 357 354 351 348 346 344 345 344 344 345 341 344 349 349 349 349 348 347 350 347 349 346 346 347 348 344 343 343 345 343 345 344 346 348 348 349 348 349 347
361 356 353 357 356 356 359 357 356 359 359 351 348 346 346 345 345 343 342 343 342 348 348 348 352 345 348 348 347 346 349 344 345 346 346 346 348 349 348 350 350 349 347 338 348 350 346 343 342
360 358 353 349 358 357 355 358 358 356 352 350 348 347 346 346 345 343 341 342 343 347 349 351 348 350 348 346 346 345 345 347 345 347 348 347 344 348 349 347 347 346 348 346 347 348 346 345 344
354 355 351 348 347 350 357 360 358 355 351 353 349 348 347 346 345 344 343 343 342 341 350 351 349 346 347 347 344 345 345 346 347 347 350 349 346 346 344 347 349 349 347 350 347 349 346 347 343
348 358 351 348 346 350 356 362 361 354 352 355 350 348 347 346 345 345 344 344 342 341 348 350 349 348 352 349 347 343 348 347 347 349 351 349 349 353 349 348 346 348 348 349 350 350 345 345 345
345 349 355 348 344 349 356 367 361 356 354 354 351 349 348 346 346 346 344 343 342 342 347 346 349 347 351 347 348 349 347 349 348 350 350 350 351 350 341 349 347 346 346 349 344 349 345 346 344
342 350 349 348 344 351 355 365 359 355 353 353 352 349 348 348 346 346 345 343 341 344 346 344 348 347 348 345 349 348 348 347 351 349 351 351 351 352 351 348 344 348 349 349 345 344 345 348 347
341 344 347 352 347 348 359 355 354 356 354 353 351 350 349 348 346 346 345 343 341 345 346 345 349 347 348 344 350 348 351 348 349 350 348 353 352 350 352 348 348 350 351 347 346 348 345 346 344
337 338 341 349 347 347 361 362 363 357 356 354 351 353 349 348 347 347 344 343 342 346 346 346 351 348 350 347 349 348 350 349 349 350 353 352 349 352 350 352 346 353 348 344 347 346 345 346 345
332 334 337 345 348 357 354 356 359 358 356 354 354 354 352 349 347 347 345 346 346 347 347 348 351 349 349 347 349 348 350 350 349 351 353 354 352 349 351 350 345 350 350 348 349 348 347 345 343
330 331 338 347 347 349 350 361 362 360 356 356 354 352 352 351 349 348 346 349 347 348 347 349 350 351 348 350 347 351 348 350 347 348 352 352 353 351 353 350 351 346 351 346 347 347 347 345 339
331 333 337 344 344 344 344 350 355 356 361 360 354 352 353 353 348 347 350 350 349 347 348 349 351 351 347 350 349 348 351 351 351 353 353 353 351 352 353 352 353 350 348 349 346 347 345 344 346
333 334 335 341 342 339 339 341 348 351 367 365 358 353 353 352 350 349 347 350 350 349 347 350 349 354 348 349 350 350 349 349 349 352 352 352 353 349 351 349 351 351 349 344 348 349 348 349 349
334 335 333 336 341 339 339 339 360 359 354 359 360 355 356 353 351 350 347 349 350 348 343 349 350 354 353 348 351 351 351 349 347 351 343 353 351 352 351 350 351 353 349 352 341 349 350 349 347
334 337 336 337 341 340 336 339 352 354 353 351 354 359 357 357 354 351 349 350 351 346 345 351 354 356 354 350 353 355 354 353 350 347 348 353 352 352 351 352 354 350 351 350 352 349 350 348 346
334 336 337 338 336 335 334 338 348 349 354 353 350 352 356 356 353 354 350 351 350 346 348 353 356 357 356 356 355 352 353 353 353 349 353 350 347 350 351 351 353 353 351 352 351 352 349 350 342
334 337 336 334 334 334 338 346 349 350 353 355 354 350 352 351 347 350 352 352 350 348 348 352 357 358 358 357 357 356 354 352 353 348 347 352 350 350 351 351 353 352 352 352 352 348 349 344 347
332 334 336 336 337 340 340 347 352 351 351 351 347 343 340 340 342 343 345 348 347 351 347 352 357 359 358 358 358 359 358 356 352 353 351 355 353 350 343 349 352 352 353 352 352 353 349 351 349
334 337 333 334 335 339 344 346 347 351 349 344 339 334 330 332 332 337 334 336 343 347 348 348 357 358 359 359 358 358 359 359 356 354 354 349 353 354 349 342 350 353 352 352 353 350 351 350 347
329 331 332 336 340 336 343 346 344 342 339 335 334 331 325 322 325 328 328 327 329 336 340 342 347 350 358 358 358 358 359 358 359 357 355 354 352 353 353 351 353 352 354 354 352 352 354 352 353

GFSSGP_925_thetae_081.txt.gz
Theta_e
342 332 342 348 359 363 365 363 362 360 358 348 351 354 354 352 355 361 349 349 349 346 347 348 348 345 345 350 351 350 349 346 349 349 351 350 349 350 351 352 352 353 353 353 353 353 352 351 349
339 343 344 353 363 369 366 362 361 358 355 353 350 351 353 356 350 350 349 349 349 348 351 348 347 346 350 350 350 351 349 351 347 350 351 351 350 350 352 352 352 350 353 353 353 352 351 348 350
347 351 355 362 365 364 365 362 358 356 355 354 352 349 353 354 350 349 349 350 350 351 347 351 345 346 350 347 349 347 347 347 350 350 351 349 351 351 352 352 350 352 351 349 353 352 345 349 346
351 353 355 368 372 368 363 359 355 359 357 353 348 353 351 349 349 349 349 348 347 346 341 348 347 346 347 349 348 350 349 350 347 349 351 346 352 351 352 352 352 352 352 353 352 347 340 342 346
351 356 366 368 368 361 354 351 352 360 359 354 350 355 352 348 348 349 346 345 346 339 342 350 348 343 350 351 349 351 349 350 347 350 352 351 351 351 352 352 352 352 352 352 353 337 342 346 344
355 357 369 372 366 356 352 351 351 359 356 351 352 351 349 347 346 345 347 347 344 342 343 350 351 349 348 352 351 349 351 346 348 351 350 351 351 352 352 352 352 352 352 352 346 338 341 343 344
359 363 369 369 366 361 356 353 356 358 353 351 349 351 347 346 346 349 348 346 345 345 347 349 350 351 351 352 347 346 350 349 351 351 351 351 351 352 352 352 352 352 352 351 341 335 337 343 345
359 360 366 366 365 362 354 355 356 358 354 347 347 351 349 347 348 350 349 347 348 349 347 346 346 345 347 347 345 344 351 347 350 350 350 351 351 350 351 349 351 350 349 349 338 333 334 342 345
355 363 367 364 361 359 354 356 354 355 356 352 347 347 345 347 348 347 348 350 351 350 351 347 348 347 344 339 343 349 345 340 344 346 345 344 346 348 345 346 349 350 348 339 335 334 337 341 343
356 362 362 357 356 357 356 356 359 355 358 356 348 346 345 347 347 348 346 347 349 350 350 350 349 348 340 340 337 341 344 347 346 343 347 349 345 343 341 343 344 343 342 337 333 337 342 342 343
352 362 358 354 353 354 356 356 357 358 358 351 348 347 345 347 349 348 343 342 348 349 350 349 349 347 346 344 345 346 348 347 346 345 347 346 347 343 341 341 344 345 345 346 343 343 347 347 345
360 358 356 356 356 356 360 359 359 359 358 348 345 344 343 345 348 348 346 344 347 349 351 352 351 347 348 347 347 346 347 347 347 347 346 346 345 343 344 346 345 346 344 345 344 346 349 349 346
356 352 355 356 355 357 357 360 359 358 353 347 345 344 343 342 344 345 342 346 349 350 351 349 344 347 349 349 348 347 348 345 344 347 348 346 346 345 345 347 347 347 344 345 346 347 349 344 344
351 349 350 356 354 354 358 358 354 354 348 348 346 345 343 343 342 341 342 349 349 351 350 347 346 349 346 346 346 346 345 344 345 348 346 348 348 347 342 346 346 344 345 347 347 347 346 343 342
354 349 351 354 357 358 358 362 361 351 352 349 347 345 344 344 343 342 342 347 351 350 348 347 348 350 346 345 344 345 346 346 347 346 345 347 347 348 347 347 348 347 347 344 346 346 346 342 343
351 351 356 349 349 359 356 366 357 349 354 352 348 347 345 344 343 344 342 342 350 351 348 346 348 348 348 347 343 349 346 348 350 351 345 344 348 346 346 346 345 348 349 345 345 346 346 344 345
335 344 350 352 349 357 356 364 360 353 354 352 349 347 346 345 344 344 342 341 350 349 348 349 344 344 346 347 348 347 348 348 348 347 348 350 347 347 348 349 347 350 348 347 345 346 347 347 346
338 340 342 349 346 357 355 354 358 354 354 352 349 348 346 346 345 344 342 341 341 345 345 350 345 347 345 348 350 348 347 348 349 348 347 351 351 352 349 345 348 348 348 346 346 346 346 344 345
333 338 340 347 349 354 353 350 351 353 353 353 350 348 346 345 345 345 342 343 342 345 345 349 349 347 347 344 350 348 350 345 348 349 348 349 348 350 349 349 349 349 347 346 345 348 346 346 343
329 329 335 347 354 356 353 351 346 343 352 351 349 349 347 346 344 345 343 344 344 346 345 347 346 348 347 343 349 349 349 349 349 349 350 350 348 351 350 347 349 344 347 349 347 348 347 346 344
328 328 331 348 348 354 356 362 354 351 356 351 350 351 347 347 346 344 343 343 346 346 345 347 348 348 348 343 347 350 349 349 348 349 350 352 350 349 350 348 349 348 348 348 348 346 345 349 339
326 327 329 347 347 355 356 361 359 362 357 354 351 351 348 347 346 345 345 347 347 347 346 346 350 348 346 350 351 350 349 349 347 346 351 352 352 350 352 351 351 348 350 346 348 350 347 349 348
326 327 332 343 343 344 354 355 359 360 362 358 356 352 349 347 347 346 348 348 348 347 348 346 349 349 344 349 351 350 347 349 351 350 352 352 351 351 352 351 352 348 345 346 347 349 347 347 349
327 329 333 338 340 344 337 343 358 365 360 360 353 348 351 351 349 345 347 348 348 348 349 347 350 351 348 346 350 351 349 348 347 351 350 351 351 348 347 348 351 347 344 344 346 350 349 344 346
327 331 334 333 341 345 338 341 359 358 358 355 353 348 345 350 349 346 347 350 350 348 349 350 349 353 350 346 349 349 351 348 341 348 348 350 351 352 351 349 351 348 348 349 345 350 349 344 343
327 329 333 337 337 338 332 356 355 348 346 346 341 348 347 349 350 350 348 349 349 348 349 350 347 351 352 352 348 348 349 348 351 348 347 350 350 351 351 351 351 351 343 350 348 349 348 348 339
327 329 329 332 329 331 346 353 351 344 346 348 346 348 348 350 349 350 348 348 349 347 347 350 349 349 353 351 348 350 351 351 350 348 347 350 345 348 351 352 350 350 349 350 352 349 344 349 348
323 331 331 332 339 337 357 357 361 356 351 340 335 335 336 337 345 344 341 342 347 348 348 352 352 351 353 354 353 352 351 351 351 353 351 352 350 349 350 348 349 352 352 350 351 350 348 348 344
332 333 334 330 332 334 351 353 348 350 340 334 330 327 330 330 331 335 336 337 343 343 346 350 351 352 349 352 353 353 353 352 349 351 350 353 351 350 349 349 346 349 351 353 351 349 351 350 346
326 332 333 331 333 339 348 349 344 340 335 331 329 325 324 326 327 327 327 329 334 339 342 343 344 346 348 352 352 351 355 355 352 350 349 355 351 352 349 345 348 352 351 353 351 351 347 350 350

GFSSGP_925_thetae_084.txt.gz
Theta_e
344 334 339 345 358 356 363 360 359 359 357 348 336 345 345 347 352 356 347 349 345 345 347 347 346 344 344 349 350 350 350 350 351 350 349 351 350 351 352 352 352 353 353 353 352 352 352 348 348
343 338 344 349 360 366 363 360 362 359 353 351 350 351 353 356 350 349 348 348 344 347 349 347 339 347 349 349 351 351 351 350 350 350 351 350 351 351 352 352 352 352 353 353 352 351 351 348 347
344 346 350 358 364 360 359 359 358 357 353 350 353 351 353 354 349 348 349 346 343 348 348 342 347 350 348 351 348 350 351 350 348 351 350 351 349 352 351 351 352 352 351 353 352 352 351 345 345
346 351 353 366 367 359 357 358 356 356 352 350 351 355 350 349 349 349 348 345 346 347 349 343 350 349 351 347 348 350 351 351 351 351 348 350 352 352 352 353 352 353 353 352 352 352 347 344 346
349 355 364 369 367 358 355 352 353 357 357 354 352 355 352 348 349 349 350 349 346 348 347 345 350 351 351 349 351 351 350 350 351 351 352 352 352 353 352 352 352 352 352 352 350 348 342 345 346
355 356 368 372 364 356 353 353 353 358 353 353 352 352 350 349 349 348 349 346 339 345 349 347 344 346 351 351 351 348 347 351 350 350 351 351 352 352 353 352 352 352 351 349 342 343 343 344 345
356 362 368 367 361 356 354 352 357 353 353 352 348 354 350 348 346 346 346 339 338 345 347 350 349 350 351 351 350 348 350 350 350 350 350 351 352 352 352 353 353 353 351 343 341 341 344 345 347
357 360 366 364 365 361 353 356 357 351 353 347 347 353 353 345 346 346 344 338 342 346 345 346 346 346 349 349 350 350 350 350 350 349 351 352 351 351 352 351 352 353 352 347 340 340 343 346 346
355 364 365 362 358 357 354 358 356 354 350 348 347 347 346 347 346 345 346 346 346 346 345 343 344 344 344 348 350 348 348 347 347 349 350 347 349 350 349 350 351 350 347 341 335 337 342 345 346
358 359 360 357 354 356 356 357 358 357 352 351 347 347 349 349 347 345 348 349 349 349 346 343 343 342 340 342 341 341 343 345 345 345 346 346 346 345 347 350 350 339 334 334 337 338 341 343 344
353 362 358 356 351 352 356 357 354 355 358 350 348 349 348 347 348 349 350 350 350 348 348 348 344 337 335 339 343 345 345 343 345 347 347 344 341 343 343 344 345 344 340 340 340 341 343 343 343
353 354 356 353 351 353 358 356 354 358 356 346 345 347 347 346 347 348 348 348 350 349 348 349 346 342 342 342 345 346 345 346 345 346 343 342 340 341 342 343 346 345 345 341 342 346 345 344 346
357 355 357 354 353 355 357 360 358 358 354 346 345 347 347 346 346 343 343 346 349 349 349 349 347 346 346 345 347 347 347 347 348 348 346 342 342 343 345 345 346 346 341 345 347 348 344 343 343
354 351 360 357 356 358 358 358 356 355 351 346 344 346 347 348 347 343 344 347 349 350 349 349 349 347 350 349 346 347 345 346 346 347 345 345 344 344 345 346 345 346 344 344 346 346 346 342 344
348 351 354 355 357 359 357 360 359 352 351 346 344 343 343 346 347 342 348 348 349 350 350 346 348 348 346 347 346 346 345 346 347 347 347 345 347 343 345 346 345 344 345 345 346 346 343 343 343
354 349 353 355 357 356 354 363 357 352 350 348 346 344 343 341 342 347 347 348 349 349 346 349 347 346 345 345 346 347 346 346 347 342 348 346 347 346 346 347 347 346 347 346 346 345 345 343 343
344 356 355 357 357 359 356 361 359 352 353 348 346 344 345 342 341 347 349 349 348 347 346 349 348 345 344 343 348 345 346 347 347 347 346 344 346 344 346 347 347 346 348 344 344 345 346 346 345
328 337 344 356 359 360 360 359 356 355 356 350 347 345 344 343 340 346 349 349 347 347 346 348 348 346 347 346 348 346 347 348 347 346 346 348 350 347 347 347 348 348 347 347 346 345 346 345 345
327 330 337 351 356 356 360 355 355 355 356 353 349 346 345 345 341 342 348 349 349 347 346 346 345 344 346 349 347 347 347 347 347 347 345 346 345 349 346 345 346 345 346 347 347 345 345 345 343
327 328 330 356 353 352 356 359 354 353 356 354 350 347 345 344 342 340 344 347 347 348 348 345 342 344 344 348 349 348 348 345 347 348 348 346 347 347 349 346 346 346 346 346 348 348 346 345 344
325 326 329 350 354 352 354 357 351 348 348 354 350 346 345 345 345 340 342 343 346 345 349 347 346 346 345 345 348 349 349 348 348 347 348 348 348 347 349 342 347 346 348 348 348 345 345 345 342
323 324 328 349 347 351 351 349 360 352 350 354 349 347 345 345 345 342 342 343 345 344 346 349 347 346 346 344 346 350 349 348 348 348 349 350 350 350 346 349 347 346 345 346 347 350 347 345 346
323 324 327 341 342 355 355 357 352 356 361 356 352 349 346 346 346 344 341 344 345 345 345 347 346 346 346 347 345 349 349 349 348 346 347 350 351 349 351 345 347 348 348 347 348 349 346 347 345
323 327 337 336 339 343 347 353 353 362 359 357 355 352 349 346 346 346 344 345 345 346 346 347 348 347 347 349 350 350 349 347 349 347 349 350 352 349 347 349 349 348 346 346 346 349 348 347 346
323 325 330 331 341 343 337 352 347 355 357 355 356 353 350 347 348 345 346 347 346 347 347 348 349 348 347 345 348 350 350 348 349 350 349 351 350 350 350 349 349 349 342 344 345 347 350 346 342
322 324 330 335 337 338 340 353 351 351 353 351 350 349 344 345 349 346 346 347 347 347 348 348 349 348 348 347 346 349 351 348 345 347 349 349 350 349 351 350 350 349 347 344 347 348 348 347 343
322 325 324 329 328 329 352 351 344 346 342 340 341 342 344 349 348 349 346 348 348 347 349 348 348 348 347 347 346 348 349 348 346 349 348 346 350 349 350 350 349 349 350 347 347 347 348 345 348
320 324 329 325 336 335 356 355 352 349 339 335 334 337 336 336 338 343 343 345 348 347 348 349 348 348 348 348 348 348 348 348 344 347 348 344 349 347 349 350 350 348 346 345 349 348 348 347 345
325 327 328 325 327 332 351 352 350 343 335 332 330 331 330 333 334 333 337 342 346 347 347 349 349 348 348 350 350 349 346 348 348 345 350 350 350 349 349 350 350 348 347 351 352 351 349 347 348
327 328 326 331 332 339 343 354 340 336 333 329 327 326 327 328 329 330 329 334 341 342 345 347 346 346 347 347 349 349 347 346 349 350 352 351 352 350 349 349 348 346 349 350 353 351 349 348 350

GFSSGP_925_thetae_087.txt.gz
Theta_e
348 338 340 345 357 357 363 360 356 358 352 335 329 335 339 342 349 353 345 347 344 347 348 350 349 344 349 350 348 350 348 350 349 350 349 350 351 351 350 351 349 349 350 351 351 350 350 350 348
345 341 344 348 359 363 362 359 360 356 351 333 330 347 352 355 349 345 347 347 344 346 347 346 340 350 351 349 348 349 349 350 350 350 350 350 350 351 351 351 352 351 351 352 351 349 348 348 348
340 344 348 355 356 362 361 359 358 357 347 333 348 351 353 354 347 347 348 345 346 347 346 338 349 350 348 348 348 349 350 350 350 350 350 350 350 351 352 352 352 352 351 352 351 348 348 348 347
347 350 355 363 363 355 355 358 356 357 353 351 351 354 349 348 348 349 346 345 347 348 340 348 350 350 350 349 350 348 349 349 350 351 350 351 352 352 352 352 352 352 352 352 351 349 348 351 349
348 354 365 367 360 356 353 354 354 357 355 354 351 355 352 349 349 348 345 345 346 348 341 348 349 350 349 348 350 350 350 350 348 349 351 351 352 352 353 352 353 352 352 351 351 349 348 344 345
355 357 368 369 365 356 354 353 353 356 354 352 353 352 350 348 348 348 344 345 347 347 344 348 349 350 351 350 349 350 350 350 350 351 350 351 352 351 352 352 353 352 351 351 346 342 343 344 343
357 363 367 365 362 358 354 352 355 354 353 351 349 353 350 348 348 347 346 344 346 347 343 347 349 351 350 350 350 350 350 350 350 349 349 349 351 352 352 351 347 352 351 346 343 343 343 346 345
356 359 366 363 360 358 354 354 352 352 353 347 347 354 353 347 346 347 346 344 349 349 348 346 349 350 348 349 350 350 350 350 350 350 351 351 351 352 349 348 350 352 351 346 342 344 344 344 343
355 364 363 363 358 357 353 357 354 353 350 348 348 348 347 345 346 345 344 347 349 349 348 346 348 348 346 349 350 350 350 349 350 351 350 348 350 348 348 350 351 351 350 341 342 344 346 345 344
357 357 359 356 353 355 357 357 357 352 350 351 349 346 345 346 345 345 345 348 349 347 347 347 346 345 345 348 342 347 349 343 347 347 345 348 347 348 349 350 350 346 344 337 338 341 344 345 343
354 359 358 352 350 354 355 357 354 350 353 350 350 348 345 345 344 345 345 346 343 344 345 346 345 342 341 342 341 344 344 344 345 345 345 344 344 345 344 344 340 340 340 338 339 340 341 343 344
352 353 357 352 353 355 356 355 355 353 354 347 348 346 345 345 344 346 348 346 344 344 344 345 345 340 340 343 344 344 343 345 346 346 346 343 342 343 344 344 344 344 343 342 342 344 344 346 345
354 357 358 351 352 355 354 357 355 357 354 347 348 348 347 346 346 348 349 347 347 346 348 345 342 340 339 344 345 345 345 346 346 341 342 341 341 342 345 345 344 343 342 343 345 346 343 343 342
353 356 356 355 352 357 358 355 356 355 350 348 348 348 347 346 347 347 347 348 348 347 348 345 343 344 344 345 345 346 346 347 346 346 343 341 341 342 344 344 345 346 343 344 345 346 344 342 341
352 358 355 357 357 359 357 359 358 354 348 349 348 347 346 346 344 344 345 347 348 348 347 347 345 348 347 347 346 346 346 346 346 345 344 345 345 341 344 345 345 343 345 345 346 346 343 343 342
352 353 359 355 357 357 353 364 357 352 352 349 349 348 347 347 345 341 345 347 349 348 347 348 347 346 346 347 348 347 345 346 347 346 346 346 345 345 345 345 345 346 345 345 345 345 345 343 343
331 352 353 362 358 358 357 363 358 353 353 345 347 347 348 346 346 345 346 348 349 348 348 348 348 347 345 345 345 346 345 346 347 343 346 345 347 345 346 345 345 344 347 344 344 345 345 344 344
331 344 350 360 361 358 359 359 356 354 354 347 344 344 344 344 344 346 347 348 348 348 346 349 346 345 344 346 346 346 346 346 347 346 346 344 345 344 345 344 345 347 346 346 345 344 345 344 344
327 328 329 353 358 360 360 358 358 355 356 349 346 344 343 342 345 346 347 348 348 348 348 347 344 344 343 347 347 346 346 347 346 346 346 348 346 346 347 345 347 346 346 346 345 344 345 345 344
326 328 338 356 354 357 358 359 355 354 356 352 348 345 343 341 345 348 348 348 347 347 348 348 347 347 346 345 346 346 346 346 347 346 346 346 346 344 347 343 345 344 346 346 345 348 346 345 345
324 326 328 355 354 352 356 357 356 354 351 354 353 348 344 341 344 347 348 348 347 347 347 348 346 345 347 347 347 347 348 346 345 347 348 347 346 346 348 347 344 346 345 345 346 345 345 344 344
323 322 328 355 350 358 350 358 354 352 350 350 354 349 345 341 341 345 347 347 346 346 346 346 344 342 345 347 348 347 347 348 347 348 347 348 349 348 348 344 347 346 346 347 347 348 347 345 346
323 322 325 350 342 348 354 349 346 349 351 350 354 348 346 344 340 343 345 346 345 346 346 345 343 344 343 343 347 347 348 347 347 347 347 348 350 348 347 347 346 347 347 346 345 347 347 346 346
322 323 328 331 335 347 345 346 348 356 351 351 354 349 346 345 343 342 343 343 344 345 348 347 345 345 345 344 344 345 347 348 348 347 345 349 351 349 346 347 342 345 347 345 346 348 346 346 347
321 323 329 343 343 345 338 349 343 349 352 353 353 351 348 346 345 342 343 343 344 345 348 348 348 346 345 346 346 347 349 348 347 348 347 348 350 350 350 349 347 346 346 346 345 347 348 346 343
318 319 326 336 339 339 342 348 349 345 350 350 350 349 347 349 345 345 343 344 344 345 347 347 347 346 347 347 349 348 347 349 348 348 348 348 348 349 350 350 349 348 348 342 345 344 347 347 345
321 324 322 325 325 329 350 348 347 343 338 343 345 344 342 344 347 346 345 345 345 345 346 348 347 347 347 346 345 348 348 350 348 345 347 348 348 348 348 349 350 349 348 348 345 346 347 345 345
319 320 325 323 333 334 353 354 349 351 341 339 341 340 339 339 338 341 344 347 346 346 347 347 349 349 348 347 347 345 347 348 348 346 348 347 345 348 349 349 350 349 348 349 347 348 347 347 345
321 326 325 323 325 334 352 349 345 343 337 334 335 333 335 335 336 336 336 345 347 346 347 348 348 349 349 348 348 348 347 348 347 347 346 348 345 347 348 347 349 350 348 347 344 348 349 349 345
317 320 324 327 332 334 339 346 337 334 331 330 329 330 331 331 331 332 333 336 343 346 347 347 348 346 346 347 349 350 350 349 347 346 347 346 350 350 349 348 349 350 348 348 348 351 350 349 347

GFSSGP_925_thetae_093.txt.gz
Theta_e
342 339 343 348 356 359 364 361 354 339 336 332 329 330 342 348 350 340 343 346 348 349 350 350 344 340 341 349 349 345 345 349 349 350 350 350 347 348 347 349 351 352 348 350 351 351 351 350 350
342 344 344 352 358 364 363 358 344 340 335 331 331 335 350 356 347 345 347 348 349 349 350 346 346 349 349 348 348 350 349 349 346 350 349 349 349 350 352 351 352 351 351 351 350 349 348 346 343
343 346 354 356 354 362 363 358 358 349 333 332 347 350 353 353 345 346 346 349 350 350 346 350 349 347 348 345 345 347 349 349 347 347 347 350 351 348 352 351 350 352 350 350 350 350 350 350 349
346 350 356 356 354 356 355 356 355 340 331 338 351 356 349 347 345 347 348 349 350 347 346 350 347 348 349 349 349 349 349 349 350 350 350 349 349 351 351 352 352 351 348 345 345 345 349 350 349
348 355 356 357 355 355 356 356 355 340 333 344 352 354 351 348 348 347 349 348 346 344 352 352 349 348 345 347 348 347 346 347 347 348 351 350 351 351 351 352 351 351 351 350 349 347 349 351 350
356 356 367 362 355 355 357 354 355 355 350 350 352 351 349 348 347 349 349 348 343 349 349 350 347 346 350 347 346 349 347 347 349 348 350 350 349 348 349 351 352 352 351 349 348 346 350 349 348
356 362 366 358 361 356 358 354 356 355 354 353 349 350 349 348 347 349 350 348 344 348 350 350 349 351 345 345 344 349 349 349 350 350 347 347 345 346 350 350 351 351 350 348 345 344 345 346 344
353 360 364 361 359 362 356 353 353 353 354 347 344 349 351 347 348 350 350 348 345 349 349 351 351 351 349 349 350 349 346 350 350 350 350 347 350 351 350 349 350 350 347 343 347 343 342 343 343
352 364 366 361 358 360 354 356 351 348 349 349 348 344 345 348 348 348 349 347 346 348 349 350 348 348 349 350 348 349 349 350 350 348 348 348 350 350 351 350 351 348 341 342 343 343 343 343 345
355 363 361 355 353 357 356 354 352 350 352 353 351 348 347 347 347 347 347 347 347 348 349 350 348 349 349 348 347 349 350 349 348 347 347 350 350 351 349 349 350 339 341 342 344 344 344 345 345
355 361 358 354 352 354 355 354 349 351 353 351 352 350 348 347 347 346 344 347 347 348 348 349 347 349 346 348 348 347 347 347 346 344 346 345 348 348 346 347 344 343 339 344 344 344 345 344 346
353 354 355 351 353 355 355 352 350 349 351 347 347 347 347 347 346 344 342 346 346 347 348 347 346 347 347 348 347 346 346 346 345 343 341 345 347 346 345 347 343 341 340 342 343 345 343 343 344
354 356 353 352 354 353 353 352 351 353 347 346 347 348 347 344 342 339 339 344 345 346 347 345 345 343 343 346 347 346 346 346 344 342 342 343 346 344 343 343 345 341 342 343 343 344 344 341 343
352 355 354 353 355 353 353 353 350 351 347 348 347 347 346 345 344 340 341 342 344 345 345 344 345 342 343 345 344 346 347 344 345 343 341 343 343 343 344 344 345 344 343 343 344 342 343 343 346
354 357 356 355 355 356 354 356 355 351 348 348 347 347 347 346 346 343 340 341 344 345 344 344 345 344 343 344 345 345 348 347 345 343 341 341 342 343 344 346 344 344 344 344 344 344 344 345 344
355 356 362 357 355 356 356 362 355 352 351 350 348 348 348 347 347 345 343 343 346 346 346 346 344 346 344 344 345 346 345 348 345 344 343 344 344 344 344 347 347 345 343 343 345 345 347 346 346
351 361 360 360 355 357 357 359 356 352 352 350 350 349 348 348 348 348 345 346 347 347 347 347 347 347 347 345 346 345 344 346 345 345 345 344 344 344 344 345 344 346 343 344 347 346 347 348 347
357 355 356 360 358 357 359 360 357 354 353 352 350 350 349 348 349 348 348 346 348 348 348 347 348 348 347 347 347 347 346 346 345 345 345 344 345 344 345 344 345 346 348 347 346 345 344 347 347
348 350 349 349 355 357 358 360 357 354 353 353 352 351 350 349 347 347 347 348 348 349 349 349 349 346 346 347 349 349 348 347 347 343 345 345 344 342 344 345 344 345 349 346 346 346 348 348 345
333 341 339 358 355 357 357 358 354 355 353 352 352 351 350 350 349 346 347 348 348 349 350 350 349 347 346 348 349 349 348 348 348 346 346 346 345 344 345 344 345 344 347 345 345 345 348 347 344
329 332 355 354 355 351 353 355 354 354 355 351 350 350 350 350 349 348 347 348 348 349 350 350 347 346 345 347 346 345 345 346 348 347 347 345 345 345 344 344 344 343 346 349 346 345 345 348 349
331 327 337 357 355 361 352 359 353 354 357 356 350 349 349 349 349 348 348 348 348 348 349 350 346 346 344 346 348 345 348 347 349 350 349 348 346 345 345 347 344 345 346 345 348 348 347 348 351
331 325 333 354 353 356 353 356 350 355 358 359 355 350 346 346 348 349 348 349 348 348 349 349 347 345 344 344 347 348 346 350 349 348 347 347 346 346 346 347 343 346 345 346 346 347 346 349 351
326 331 337 345 348 347 353 351 349 359 358 355 354 353 350 345 346 348 347 348 348 348 348 348 349 345 346 345 345 346 347 345 349 349 350 350 352 352 346 346 346 346 345 345 345 346 345 346 347
324 325 336 340 344 335 343 355 346 352 351 352 352 353 352 345 346 349 348 348 348 348 347 346 349 350 346 347 349 347 347 347 347 347 350 349 351 351 349 345 346 346 346 346 345 346 346 344 347
325 326 332 339 344 342 345 346 347 347 347 350 351 350 352 349 345 348 349 347 345 345 347 346 348 349 349 346 346 346 346 349 350 348 350 350 348 348 346 345 344 346 345 346 345 347 350 348 349
323 324 327 334 333 340 347 349 349 348 351 352 351 350 352 350 345 347 349 348 347 345 346 348 348 349 348 348 347 345 344 344 349 347 347 348 347 351 349 345 345 346 347 347 346 347 347 347 347
324 324 327 328 339 341 352 353 351 354 352 350 350 349 349 349 346 346 347 348 348 345 345 346 346 349 348 347 347 344 344 344 347 347 346 344 346 348 348 348 348 346 347 348 348 349 346 346 350
325 326 327 329 333 336 342 348 349 352 351 348 345 345 343 344 344 344 346 346 346 345 344 344 344 348 348 346 345 345 345 345 346 348 347 347 346 346 346 347 347 348 347 347 347 347 349 347 351
322 328 330 328 337 342 340 343 341 344 348 346 344 344 342 341 340 340 343 346 346 345 344 344 344 348 347 346 345 344 346 345 344 346 347 347 347 347 347 346 346 347 346 347 348 348 350 348 346

GFSSGP_925_thetae_096.txt.gz
Theta_e
341 344 346 352 360 358 359 358 343 341 340 337 334 335 344 350 346 350 343 347 347 346 347 350 346 344 345 348 342 343 348 350 348 349 351 351 351 350 352 352 348 352 352 351 351 351 351 350 346
343 347 349 354 360 361 363 348 343 340 337 334 334 345 349 354 343 344 347 348 346 348 350 344 343 347 350 350 349 350 350 346 348 349 350 350 351 351 352 352 351 349 351 350 349 348 345 347 348
347 348 358 355 358 361 362 344 346 337 334 338 341 350 354 347 343 345 347 348 348 349 344 348 347 347 350 347 349 350 350 345 349 349 350 350 346 352 353 351 350 351 349 346 346 351 351 350 349
348 353 349 358 362 360 356 351 343 336 337 346 349 357 349 342 346 347 349 349 349 346 348 349 346 346 347 351 350 350 350 350 350 351 351 348 352 353 352 352 348 348 348 347 349 351 351 349 350
350 354 357 358 360 358 354 350 340 340 347 354 353 357 348 346 347 348 348 349 346 345 347 350 349 350 350 350 349 349 349 349 350 351 351 350 349 348 352 352 348 348 351 351 351 351 351 351 350
357 358 360 364 358 356 356 353 341 340 340 351 352 349 348 347 348 348 348 345 344 345 347 349 348 349 350 349 350 350 350 350 349 349 347 346 346 350 351 352 352 351 351 350 348 350 349 348 347
359 363 367 361 358 357 357 355 353 343 345 347 348 350 349 347 348 348 347 343 344 344 348 348 348 347 350 347 349 349 350 351 351 345 347 349 351 352 352 353 351 351 350 349 345 346 346 342 341
355 361 362 358 360 357 355 356 353 353 355 349 348 351 352 348 348 348 346 342 343 347 349 347 348 349 347 348 350 350 350 350 350 351 351 350 350 347 348 345 350 350 349 349 344 342 344 344 342
353 366 366 363 356 360 356 358 354 351 354 350 349 342 346 348 349 348 345 342 344 347 347 344 345 348 349 349 348 348 350 349 345 345 346 349 349 349 348 345 350 348 344 343 344 343 344 347 345
358 365 363 358 353 359 357 357 356 355 355 353 345 346 347 347 348 346 344 343 344 346 346 342 345 345 346 343 349 347 348 348 348 349 351 350 350 349 346 345 344 341 343 343 344 344 345 348 348
357 363 359 355 353 355 356 356 353 355 357 353 351 350 348 347 347 345 343 343 343 346 344 343 346 348 346 344 344 346 346 346 348 351 350 348 346 345 344 345 346 346 347 346 347 348 347 349 347
357 356 356 354 354 354 357 354 354 353 351 349 347 347 347 348 346 343 343 343 344 346 343 344 346 349 348 346 344 344 344 345 345 346 347 346 345 345 346 345 346 346 346 348 349 348 350 350 351
357 356 354 353 355 354 353 352 352 352 348 347 345 347 348 347 345 343 342 343 345 345 342 344 347 350 350 347 345 345 345 343 342 345 347 346 347 349 348 350 347 346 346 348 349 347 347 347 347
355 355 354 354 355 353 353 351 351 351 348 347 347 348 347 345 343 342 341 343 344 343 341 345 347 349 349 349 348 347 344 344 344 346 349 349 347 349 348 349 349 347 346 347 348 348 346 345 345
353 358 356 357 355 355 352 355 357 350 348 349 348 346 345 344 342 341 340 344 344 343 343 346 347 348 349 350 349 347 345 345 346 347 349 349 349 351 350 349 348 348 349 351 348 347 346 343 343
359 358 365 358 357 356 354 362 354 350 348 348 347 347 347 346 342 340 342 344 344 343 344 346 345 347 349 350 349 349 349 348 347 347 348 350 351 352 350 348 348 350 349 348 347 346 344 344 344
358 365 363 363 355 357 356 359 358 351 350 347 348 347 348 347 343 343 343 345 345 345 346 346 346 347 349 350 349 349 351 350 349 349 348 352 351 352 349 349 350 351 348 348 346 347 347 346 345
360 362 361 364 359 354 359 353 358 354 352 349 348 347 348 347 346 345 345 346 346 347 348 348 349 350 350 350 351 349 349 350 349 350 350 351 351 352 350 349 351 351 349 348 348 350 348 348 347
351 354 358 358 358 359 359 358 358 355 354 351 349 349 347 347 346 346 346 347 347 346 348 350 350 352 352 351 349 349 349 350 348 350 352 352 352 351 352 349 351 351 351 352 352 348 350 345 345
346 354 355 356 357 357 358 359 357 356 355 353 348 347 347 347 347 347 347 347 348 349 348 349 351 353 352 351 350 349 349 350 350 350 352 352 351 352 352 351 350 351 350 352 353 353 347 345 348
341 349 348 358 356 354 357 358 355 352 354 353 349 347 348 349 349 349 348 348 348 350 351 351 351 353 352 351 351 349 352 351 351 352 352 351 352 351 353 352 351 351 352 349 352 352 352 345 349
339 335 348 358 356 361 351 361 352 350 355 356 352 351 348 350 349 349 348 349 348 349 351 352 352 353 353 353 350 349 350 350 349 351 351 351 352 350 351 353 352 353 350 351 353 351 351 354 348
336 332 340 347 352 356 357 355 354 351 353 358 356 351 348 348 348 349 349 349 349 349 351 352 353 353 351 352 351 349 347 349 348 351 353 353 353 352 351 353 353 354 350 354 354 354 354 350 350
330 332 337 345 349 356 350 349 351 352 353 351 355 353 350 348 348 348 348 349 350 349 350 351 353 354 352 352 352 352 351 348 349 351 351 352 352 353 352 353 353 354 352 352 352 355 354 354 353
332 335 339 342 345 344 349 349 346 345 353 351 355 354 352 349 348 348 350 350 350 350 350 351 353 353 352 352 351 352 351 350 350 350 348 351 351 350 353 353 352 352 353 352 351 350 353 353 351
334 334 339 345 346 342 342 350 347 349 350 351 352 352 353 352 348 348 350 348 350 351 351 350 352 353 353 352 353 353 353 347 349 350 350 349 351 350 352 350 350 352 352 353 354 350 349 350 350
331 334 334 337 339 341 343 342 350 350 352 354 354 352 352 354 351 349 350 350 351 350 350 348 346 351 353 352 352 352 353 352 349 350 349 350 349 353 351 350 349 350 351 352 353 349 352 353 352
326 329 335 334 342 341 342 343 342 356 355 355 355 354 352 353 353 351 349 351 349 347 344 343 351 349 352 351 351 350 348 348 348 350 349 350 353 354 351 351 350 350 350 352 353 350 351 353 352
326 327 327 332 335 337 340 343 350 352 355 356 353 352 354 354 353 351 351 351 351 348 344 343 346 347 352 351 351 349 349 349 349 348 349 350 352 354 351 350 350 351 350 350 351 351 351 353 351
325 326 327 328 336 334 337 346 348 351 353 353 349 349 347 348 347 348 350 350 351 350 346 344 344 344 344 351 349 347 349 349 349 349 349 351 350 350 351 353 351 349 351 352 352 351 351 352 351

GFSSGP_925_thetae_102.txt.gz
Theta_e
333 341 348 352 366 368 353 348 343 342 340 339 346 347 349 348 347 354 346 346 345 348 350 351 347 349 350 350 351 351 351 351 351 350 351 350 348 350 344 349 351 352 351 349 346 346 349 350 343
337 349 351 359 368 365 353 346 344 342 338 349 348 345 349 349 347 347 345 347 347 348 347 343 347 348 348 351 351 350 352 351 351 350 351 352 348 350 352 352 352 348 345 347 349 349 349 350 341
345 350 360 355 357 363 349 345 343 338 338 353 354 345 347 348 346 346 347 349 347 347 347 349 347 349 349 351 351 352 352 352 352 351 351 352 351 352 351 350 346 349 348 351 351 350 350 348 341
349 352 350 360 362 352 346 343 339 342 347 349 348 348 348 346 346 347 347 345 347 349 350 349 351 350 351 351 352 351 349 352 352 352 353 353 349 350 351 350 349 352 352 352 351 352 350 345 339
350 350 362 365 362 346 344 341 341 348 353 347 345 348 351 348 348 348 346 347 347 347 349 350 348 351 352 352 352 352 352 352 353 353 353 351 351 351 351 352 352 352 352 353 352 350 348 337 338
356 350 364 368 354 348 342 340 345 353 353 352 347 348 351 348 345 344 348 348 347 347 348 350 351 351 351 352 352 351 352 352 350 351 349 351 352 351 351 351 352 352 351 350 347 346 341 333 337
357 364 368 360 354 348 343 343 353 352 349 346 346 350 350 347 345 347 345 346 347 346 347 349 350 351 352 352 351 352 352 352 351 349 348 349 353 353 351 351 351 351 351 351 348 338 331 328 339
358 361 366 363 357 356 345 348 350 349 352 345 345 352 353 347 347 346 346 346 346 346 346 348 349 350 350 350 352 352 352 352 352 347 347 350 354 345 346 347 352 351 351 349 341 334 330 331 338
354 363 365 363 354 356 346 346 347 347 349 348 348 348 347 345 342 341 346 346 341 346 348 349 346 348 346 349 351 352 351 349 346 347 346 347 347 350 350 346 350 347 341 342 337 338 337 337 338
362 366 362 354 353 353 352 350 352 353 352 351 348 347 345 345 342 341 341 345 345 347 348 346 346 345 344 346 350 350 348 349 350 350 349 350 349 350 346 342 342 343 344 345 345 347 345 342 347
358 366 360 359 357 351 355 353 352 353 355 350 349 347 345 344 342 341 341 343 343 346 347 345 345 347 344 348 351 349 350 349 348 349 352 349 344 341 344 341 347 342 342 348 348 348 349 344 346
357 356 359 357 357 352 355 353 352 352 350 347 348 346 344 345 342 341 340 342 342 344 348 345 346 342 344 347 350 347 350 348 335 347 348 347 345 344 346 348 342 348 349 340 351 347 344 343 343
357 356 356 356 355 353 354 356 355 353 349 347 347 347 344 344 342 341 342 341 341 343 350 346 347 343 345 347 344 345 347 349 348 347 346 347 346 346 348 346 343 347 346 348 346 347 347 346 343
356 356 356 355 356 355 355 350 352 352 348 347 348 347 344 344 342 342 343 344 341 343 350 347 347 349 348 345 345 345 344 346 347 348 349 348 345 348 346 346 346 348 348 346 345 341 345 344 343
353 359 358 360 360 357 351 352 354 346 347 348 347 346 345 343 342 342 343 343 341 343 348 348 347 346 347 345 347 346 343 348 347 347 350 350 349 345 338 346 346 344 341 344 346 345 344 343 344
358 359 367 361 360 353 354 363 353 346 348 348 347 346 346 344 342 342 344 344 342 344 347 346 348 346 345 347 348 345 347 345 347 348 349 352 351 351 351 349 346 348 350 351 348 347 345 343 345
363 369 366 364 358 358 358 363 356 347 347 347 347 346 346 345 342 341 345 344 343 345 344 346 345 348 348 350 349 349 348 349 347 348 350 351 352 347 347 348 343 345 351 346 347 346 346 345 345
362 366 364 366 363 358 360 358 354 351 348 347 347 346 345 344 343 341 345 345 345 345 344 347 345 349 347 348 348 349 348 348 346 348 352 350 351 352 349 352 348 348 351 348 348 344 344 348 346
351 364 365 355 354 358 359 358 355 355 353 352 347 345 345 345 341 342 345 346 346 346 346 346 346 348 347 351 350 348 347 349 351 348 351 353 351 351 354 351 346 351 350 346 347 350 352 346 345
355 356 360 350 346 357 358 358 354 354 353 350 352 347 346 343 343 343 345 345 346 347 347 345 352 351 350 349 350 350 348 349 350 353 350 350 351 350 353 352 353 348 352 349 351 351 353 344 344
352 354 353 351 346 349 357 361 360 355 352 349 348 349 350 345 345 347 346 344 346 348 350 348 349 353 349 351 350 350 348 350 350 350 352 351 350 351 352 354 349 352 352 352 351 351 355 352 344
359 350 350 352 349 357 357 366 360 353 352 349 349 348 350 347 347 347 345 345 345 348 349 353 350 352 352 351 351 351 350 346 350 350 350 351 351 350 350 352 351 351 342 346 354 351 350 355 351
344 349 351 351 350 354 359 360 358 357 355 353 349 348 349 348 347 345 345 344 346 346 347 349 352 353 351 351 350 350 350 350 352 350 350 350 352 351 351 351 352 352 351 351 347 354 353 354 355
338 346 350 350 353 364 357 358 365 362 358 355 348 349 351 349 343 345 345 344 349 349 350 352 353 352 353 352 352 350 352 351 351 346 349 351 352 352 351 350 352 352 344 345 354 353 352 354 351
340 342 355 363 362 363 358 356 363 355 353 352 350 351 350 350 347 347 347 347 349 352 351 353 355 355 354 352 352 352 352 353 353 347 350 349 350 350 352 352 351 352 352 353 353 353 354 354 353
337 342 342 357 359 363 358 358 359 351 348 347 348 348 350 349 350 348 348 346 352 353 355 356 355 356 355 352 352 350 351 352 351 353 352 347 350 347 351 351 351 352 352 351 351 351 347 353 352
334 336 338 341 345 352 358 356 352 345 346 348 348 350 349 347 348 350 347 348 349 348 352 345 356 355 356 354 353 353 354 351 352 352 355 354 350 347 349 352 352 350 353 349 352 349 350 351 349
331 333 335 345 347 353 352 357 357 351 350 349 351 350 345 345 348 347 347 345 339 340 346 354 355 355 353 354 354 354 354 353 352 353 354 352 351 345 340 345 351 351 350 350 350 352 352 351 346
327 329 331 334 342 346 350 356 353 353 349 350 352 352 351 355 353 350 347 350 343 340 350 357 355 355 355 354 354 353 354 353 352 351 350 351 352 348 350 352 352 351 350 350 351 351 350 351 351
326 327 329 333 338 338 340 351 349 350 353 351 355 353 359 353 352 348 349 350 353 354 355 354 350 348 349 353 354 354 349 350 351 350 350 350 351 352 352 353 352 353 352 352 353 353 352 352 353

GFSSGP_925_thetae_105.txt.gz
Theta_e
330 334 342 349 364 365 349 346 340 350 352 345 346 348 349 348 350 356 346 346 342 341 346 347 345 345 347 349 350 349 351 351 351 351 347 349 350 350 350 351 352 351 348 346 348 350 348 349 345
330 336 347 353 363 363 350 344 346 353 349 346 346 350 351 353 346 345 345 347 346 347 348 341 347 346 348 348 349 350 351 351 351 351 350 352 351 352 351 350 348 348 348 349 348 351 341 341 341
341 347 355 354 356 360 349 342 341 352 345 347 349 345 349 350 347 347 347 348 350 346 341 347 346 344 350 351 350 351 351 351 350 352 351 352 352 353 351 352 351 351 352 350 351 349 339 342 344
343 351 351 357 361 358 344 339 348 352 347 347 348 352 347 347 348 347 346 345 345 343 345 348 350 349 351 350 351 351 351 352 352 351 352 351 351 350 350 351 352 352 352 352 350 347 340 343 345
340 350 361 363 363 346 340 339 351 352 349 349 350 354 353 347 347 346 348 349 348 348 348 348 349 350 349 349 350 351 352 351 350 352 352 351 352 352 352 352 352 353 353 352 347 338 337 344 343
354 349 363 366 360 343 341 343 353 352 347 351 353 353 350 348 347 347 347 348 347 349 346 349 348 349 351 352 351 351 351 350 352 352 352 351 351 352 352 353 353 350 350 347 339 331 334 342 342
357 359 364 362 346 343 342 345 354 353 348 352 351 354 348 345 346 347 346 347 347 346 344 345 350 351 351 351 351 351 351 351 351 353 352 352 353 353 353 351 352 351 348 345 331 328 336 340 344
357 360 365 361 347 345 341 352 350 347 347 348 347 352 350 346 347 346 347 347 347 348 348 346 346 346 348 350 352 349 347 348 349 349 350 349 349 346 346 348 349 346 346 339 331 329 337 341 340
354 355 362 362 351 346 351 354 351 346 347 349 348 346 346 346 346 346 346 346 347 348 349 349 349 349 344 347 352 350 350 348 348 345 343 341 344 347 345 342 343 345 345 334 334 334 337 338 338
359 362 358 355 355 353 347 352 352 352 350 351 349 345 346 346 345 345 346 345 348 348 349 348 348 344 345 344 343 343 344 345 345 346 346 348 349 344 343 343 344 344 346 345 344 341 341 337 338
359 359 356 350 349 355 350 352 351 351 352 351 350 345 345 341 342 344 342 347 348 349 348 347 344 346 343 346 347 349 349 349 347 344 348 349 346 345 342 344 342 340 343 346 344 343 343 346 341
359 356 354 353 356 357 354 352 352 352 351 347 346 344 344 340 338 340 344 346 346 344 343 347 344 347 346 349 350 350 348 345 345 346 347 347 343 345 345 331 338 332 330 342 347 348 349 347 344
359 358 355 353 350 354 351 354 353 353 348 345 344 343 342 340 339 341 343 347 347 344 346 345 347 346 345 348 348 350 349 341 344 348 348 346 347 345 344 335 334 341 344 344 347 346 347 348 342
356 356 360 354 359 358 355 354 350 350 347 347 345 342 341 341 341 341 341 347 348 345 345 343 346 349 348 347 348 349 346 344 347 346 348 346 347 345 344 344 343 344 345 346 338 343 346 345 344
356 361 360 360 359 361 353 356 354 349 348 348 346 344 343 340 342 342 341 348 349 346 346 343 346 348 347 345 346 344 347 348 350 343 343 347 345 341 344 346 346 347 346 347 343 346 346 343 342
356 359 365 362 360 358 356 360 353 348 348 348 346 345 344 341 343 343 340 345 348 346 345 343 343 346 345 346 347 347 348 347 344 345 347 352 347 345 347 348 346 349 349 350 351 349 344 344 344
361 364 363 365 360 360 357 359 354 348 347 347 345 344 343 341 342 344 341 343 347 345 346 347 344 344 347 347 349 349 346 347 348 348 349 349 350 348 349 348 347 352 350 346 348 344 347 342 344
360 361 361 362 354 352 360 359 356 354 347 346 346 344 344 341 342 344 343 345 344 346 347 348 344 346 350 348 348 348 346 348 348 349 351 351 351 351 349 352 350 347 349 347 346 347 349 348 345
356 360 356 356 349 350 359 359 357 354 353 352 346 344 343 340 340 345 345 345 343 345 346 348 347 346 347 348 349 348 348 348 349 349 350 350 350 351 353 351 340 343 350 350 350 351 352 347 346
352 353 356 351 347 346 350 360 355 353 353 350 350 350 345 340 340 344 346 346 343 344 347 348 347 347 348 349 349 348 349 349 349 349 350 353 349 350 353 351 349 349 348 352 349 350 355 350 344
353 355 355 354 349 345 350 361 357 353 352 350 349 347 348 346 342 344 346 346 346 347 347 348 347 346 347 349 349 348 349 349 349 352 350 350 349 349 351 350 349 350 348 350 351 354 354 354 352
355 351 350 350 350 355 351 366 360 356 353 351 349 348 348 347 343 343 345 346 347 346 344 347 348 346 346 349 350 347 348 348 349 348 349 351 350 350 350 350 346 348 345 336 351 353 353 353 353
354 349 348 346 349 354 356 363 360 353 354 351 350 347 347 348 345 343 343 346 347 348 346 345 348 345 347 348 350 350 348 346 349 348 348 347 351 352 350 351 352 351 345 348 351 351 353 352 353
347 349 349 349 352 357 355 358 362 355 350 348 348 347 347 349 348 345 345 345 349 350 351 348 348 347 352 352 350 349 350 350 350 349 349 350 349 349 352 349 351 352 349 348 349 354 354 354 353
348 351 358 356 352 354 351 356 355 353 352 347 348 346 347 349 347 346 344 344 346 348 353 353 350 350 352 351 349 349 352 350 350 345 347 350 350 349 351 350 351 349 348 342 346 351 352 353 353
350 343 348 356 361 359 355 362 357 349 349 349 347 345 348 348 348 348 342 345 347 349 351 351 355 351 352 353 353 352 351 349 351 351 351 346 348 345 348 349 351 349 351 352 351 347 348 350 352
332 338 337 347 349 355 358 354 350 350 350 349 348 348 347 347 348 348 348 347 349 351 354 354 354 353 353 351 352 349 352 351 351 352 351 350 346 340 348 349 350 351 352 351 351 350 348 349 349
327 331 332 341 355 357 359 358 360 348 350 349 347 346 346 344 346 347 349 347 350 350 353 355 354 353 353 353 352 353 353 351 353 352 349 351 349 345 349 348 350 349 350 350 348 351 351 351 350
325 328 329 337 339 349 359 357 349 349 347 347 346 345 344 344 344 347 348 347 344 346 348 350 353 354 354 355 352 351 350 349 352 351 351 351 349 347 339 342 349 349 351 349 351 350 349 348 350
325 324 324 327 334 338 338 361 351 350 348 345 347 348 346 343 342 347 347 345 345 341 345 338 340 352 354 354 353 351 341 352 350 350 350 350 349 350 350 350 351 352 352 351 351 352 352 353 351

GFSSGP_925_thetae_108.txt.gz
Theta_e
327 331 342 351 361 359 353 353 348 351 349 346 343 348 347 347 348 351 345 344 339 341 346 346 347 349 346 345 345 348 351 348 348 351 352 349 351 351 352 351 352 350 349 351 350 351 350 349 346
327 338 345 351 356 354 352 352 353 350 350 348 347 347 349 351 347 346 347 345 340 344 346 347 346 348 348 347 349 349 349 350 350 351 350 351 351 350 352 351 348 347 347 351 351 350 349 350 347
332 346 348 353 353 361 346 353 351 349 348 347 350 347 349 349 346 345 346 340 342 345 342 345 348 348 349 348 349 348 349 350 350 351 349 349 349 352 351 349 352 351 351 352 350 349 349 348 349
342 348 347 352 357 358 342 352 348 349 349 349 349 352 348 347 346 345 345 344 345 339 344 347 349 350 351 350 351 350 351 351 349 349 350 352 351 351 351 351 352 351 351 349 346 343 346 344 346
337 347 356 361 359 348 346 350 348 352 353 351 349 352 351 346 346 347 347 346 341 346 347 349 348 350 350 351 351 350 351 351 350 350 352 351 351 351 352 352 352 351 352 340 339 344 344 344 343
352 349 360 361 355 340 347 350 349 353 352 352 351 351 349 347 347 347 346 343 342 347 349 349 350 350 350 351 350 351 351 351 350 352 352 352 351 350 352 352 352 353 349 331 332 340 342 344 343
356 357 360 360 345 343 346 347 350 353 352 352 348 353 346 347 348 348 347 343 344 345 347 349 350 350 351 351 351 351 351 351 352 352 348 351 352 352 352 351 350 347 346 336 333 337 341 344 346
355 356 360 359 343 344 346 353 348 351 354 347 347 351 349 346 347 348 347 346 345 347 348 347 349 349 348 350 352 352 351 352 352 349 347 349 352 351 348 347 351 350 340 333 329 337 340 343 344
351 356 362 360 347 346 352 354 348 348 351 346 346 345 345 347 346 347 347 347 346 346 346 348 347 347 348 349 351 351 352 351 350 346 344 341 343 345 347 348 351 343 336 331 333 338 340 340 341
358 357 356 354 354 355 354 354 348 351 351 349 345 346 346 347 346 347 345 346 347 349 348 347 345 344 347 351 347 348 345 344 342 341 343 344 345 342 343 343 344 345 340 342 342 341 338 338 338
356 359 354 351 350 349 355 352 350 350 353 347 347 348 346 346 346 346 345 347 348 348 348 348 345 342 342 342 342 345 346 345 344 345 348 348 345 341 340 341 341 343 345 341 342 340 342 344 344
359 355 354 352 351 355 357 354 352 353 350 344 343 345 346 344 344 345 346 348 348 349 347 345 345 343 341 344 347 349 347 346 345 348 348 346 344 342 341 341 339 334 340 345 344 345 346 347 346
358 353 354 353 352 352 353 356 352 352 348 343 344 344 344 344 342 345 347 347 347 347 346 345 345 345 348 348 349 348 347 345 346 345 347 345 342 343 341 332 333 342 340 343 344 345 347 347 343
357 357 355 353 352 353 357 357 350 351 346 344 344 343 341 338 345 346 346 345 343 346 347 346 345 346 348 347 348 348 344 344 346 347 346 346 345 343 339 341 342 343 344 344 343 339 343 346 343
356 360 357 354 357 356 356 358 353 347 345 345 344 341 340 341 345 346 346 344 344 346 347 347 348 349 346 348 347 348 345 346 346 345 345 347 344 343 344 345 345 345 344 344 341 343 345 344 343
359 357 363 357 355 349 359 361 352 346 346 346 343 342 342 341 344 346 346 345 345 345 344 345 346 347 346 348 347 348 347 348 346 343 347 347 342 341 345 346 346 335 339 347 348 349 349 343 342
359 359 360 367 352 358 358 359 352 347 347 346 345 342 342 341 340 346 348 346 345 344 343 345 345 345 347 346 347 347 348 348 347 347 346 347 347 348 349 348 346 346 347 347 349 348 349 345 344
353 358 357 356 352 354 352 358 355 352 347 346 344 343 343 343 339 346 348 346 344 342 341 341 343 345 348 347 347 347 347 346 347 348 350 351 346 348 347 348 347 347 347 350 350 350 350 350 343
354 356 357 353 349 352 352 352 355 353 350 349 343 341 342 343 340 345 347 346 345 345 346 343 345 348 347 348 348 346 347 349 348 350 348 349 350 350 351 348 339 346 347 350 350 351 349 344 346
353 355 356 350 348 349 350 351 349 353 352 350 349 343 342 342 341 345 345 345 346 346 346 344 345 346 346 347 347 347 348 349 348 348 350 349 349 349 349 349 345 345 347 349 351 353 352 352 353
351 355 353 353 348 347 348 352 350 354 352 350 348 347 347 340 344 344 343 343 345 347 347 347 344 345 347 348 348 348 348 348 348 350 350 350 349 350 349 348 348 347 346 348 351 352 353 351 350
353 349 350 351 350 355 348 362 360 356 354 351 351 348 347 345 344 344 343 342 346 346 345 346 345 347 349 348 348 348 348 348 348 348 348 349 347 349 350 349 344 347 344 337 349 350 353 351 350
352 347 347 348 349 352 353 356 359 355 356 353 349 347 347 346 344 344 344 343 346 347 346 346 347 347 347 348 347 347 347 347 348 348 348 349 349 351 349 349 349 348 346 348 348 350 350 352 350
344 346 347 347 348 353 352 355 358 357 355 352 348 348 347 345 343 343 344 344 345 348 348 347 347 346 344 348 349 349 347 346 348 348 348 347 347 350 353 351 351 347 345 347 348 352 352 352 350
345 345 355 357 354 354 352 355 354 352 349 348 347 348 347 347 346 343 342 345 346 347 348 347 348 346 345 349 350 348 348 349 349 349 346 349 348 349 350 350 351 348 346 343 340 351 350 351 349
346 339 347 354 356 358 353 359 356 348 345 345 343 345 347 348 346 345 343 345 347 349 348 347 348 346 350 351 349 349 350 350 348 345 346 350 349 348 348 348 350 350 348 351 350 350 347 350 349
345 341 336 345 346 354 356 354 351 346 350 347 346 345 347 348 348 346 343 346 347 349 351 349 348 348 351 350 348 350 350 349 350 350 351 349 347 346 347 349 347 350 348 349 350 351 349 349 350
337 334 336 335 351 358 354 352 354 346 348 350 350 346 347 347 346 346 346 348 349 350 351 354 350 349 351 350 352 351 349 350 350 351 349 350 348 346 342 349 348 349 349 351 351 350 349 350 350
322 327 326 332 340 352 358 356 343 343 343 349 348 347 346 345 345 347 347 350 350 351 352 351 353 352 351 351 352 350 351 352 352 351 348 347 348 347 346 349 344 348 349 351 351 349 350 349 348
321 321 322 324 328 337 343 353 344 344 342 345 345 344 343 343 344 347 346 346 346 346 341 342 349 352 352 352 351 352 352 351 351 352 351 351 348 348 345 343 349 350 350 351 350 349 350 348 350

GFSSGP_925_thetae_111.txt.gz
Theta_e
336 336 343 350 355 351 354 353 348 346 343 340 341 343 345 347 346 342 342 337 337 337 342 346 348 348 346 348 348 350 346 350 346 351 350 350 351 350 350 350 351 352 351 351 351 351 350 349 349
329 333 344 349 352 356 358 351 352 351 350 344 346 346 349 351 347 346 343 340 337 340 345 344 345 344 345 347 349 351 351 349 351 349 351 350 348 351 352 347 346 347 351 351 351 349 349 350 347
329 346 347 351 351 348 357 352 353 350 348 348 350 348 348 350 346 345 344 343 338 343 346 346 342 347 348 349 350 350 350 350 348 348 347 349 350 348 348 351 350 350 351 350 350 350 348 351 350
339 347 346 354 356 355 349 350 350 352 349 349 349 353 347 345 345 345 345 339 341 345 343 349 344 349 349 348 348 350 350 351 351 351 349 351 352 352 352 351 351 351 350 350 350 347 349 350 349
337 346 353 359 359 349 350 349 350 354 353 350 348 353 350 346 345 345 341 338 344 342 346 346 348 348 347 347 347 350 351 350 350 351 351 351 351 352 352 351 352 352 350 349 346 345 347 346 346
350 347 357 361 355 341 350 348 352 353 351 350 351 351 349 345 345 344 341 344 338 346 348 347 348 348 347 348 348 350 350 349 351 350 351 350 351 352 351 350 352 352 348 345 344 343 344 344 346
354 354 360 358 342 346 352 349 352 353 351 351 347 351 347 346 346 346 346 341 346 348 349 348 349 349 348 350 350 351 350 349 351 351 351 351 352 351 352 349 348 347 344 338 340 342 343 344 344
352 353 360 358 343 345 349 350 350 350 353 346 345 350 350 346 347 347 345 346 345 346 348 348 349 349 349 351 351 351 350 351 351 349 351 353 353 352 351 349 349 347 337 333 336 340 343 344 346
349 356 360 359 349 354 350 352 350 349 349 348 346 346 346 346 347 346 347 348 346 347 348 349 350 348 348 350 352 352 352 352 349 349 346 347 349 345 342 344 347 349 345 333 334 337 340 341 343
356 356 357 355 354 354 353 350 351 350 348 348 347 345 346 346 346 347 347 348 348 349 348 348 345 347 348 349 348 348 351 349 347 342 342 343 343 343 340 340 340 340 341 339 338 340 339 339 339
354 360 353 352 350 349 351 353 350 349 351 347 349 348 346 346 346 346 345 345 344 346 348 346 345 345 346 346 346 346 345 343 342 342 344 345 342 340 340 340 341 342 341 341 341 341 342 344 346
360 355 354 349 349 350 354 354 351 349 349 345 346 346 346 345 345 345 345 346 346 347 347 346 344 345 346 343 343 344 344 342 341 346 348 347 342 339 341 340 338 339 338 342 343 344 345 347 347
357 356 353 352 353 352 352 355 354 350 345 346 346 346 346 345 345 345 346 346 347 348 347 345 344 344 341 343 346 347 347 346 346 347 346 344 343 340 341 333 334 340 341 342 342 344 344 345 342
355 354 355 354 353 352 356 355 353 351 343 346 347 346 344 344 344 345 346 346 348 347 347 344 343 344 345 347 347 346 345 345 346 345 346 343 340 343 342 339 343 343 344 344 342 342 344 345 343
356 360 356 355 354 356 355 357 354 349 344 345 346 345 344 344 344 345 346 345 346 346 345 345 345 346 346 345 346 346 341 345 346 346 345 344 344 343 343 343 342 341 343 345 344 344 344 347 345
359 357 361 356 356 353 356 363 353 348 345 345 346 343 343 341 345 345 345 344 345 345 346 344 346 345 346 347 347 347 342 346 345 344 344 345 343 342 346 343 340 338 344 345 344 346 344 344 343
350 358 359 360 353 354 357 361 353 346 345 346 346 340 342 345 345 345 345 343 345 347 347 348 348 348 346 347 345 346 345 347 345 345 346 344 343 347 346 346 342 344 346 348 347 351 349 344 343
346 358 354 357 355 354 354 357 352 348 347 346 345 341 344 346 345 345 344 343 345 346 346 346 346 346 347 347 345 347 347 347 344 347 345 348 347 347 348 345 343 344 348 350 350 351 349 349 344
353 356 356 352 351 351 352 352 351 351 350 345 342 342 342 343 344 346 346 344 345 344 344 345 345 346 346 347 347 347 347 347 347 348 348 349 348 346 347 347 342 347 349 349 352 350 348 347 347
353 354 353 350 349 349 351 351 347 348 352 350 343 342 342 341 344 347 346 345 345 343 343 343 344 347 346 346 346 347 347 348 347 349 348 349 347 349 347 347 346 345 348 348 350 351 349 351 350
350 352 351 352 348 347 349 353 353 350 352 350 348 343 342 340 345 347 345 345 344 342 342 343 346 346 346 347 346 346 348 348 348 347 348 348 348 348 349 346 347 345 346 348 349 351 349 351 350
350 350 350 350 350 354 349 359 355 352 353 352 351 348 342 340 344 346 344 344 344 344 345 342 347 345 346 346 347 346 347 348 348 348 348 349 350 344 349 348 346 345 344 347 349 348 350 349 350
348 347 348 348 347 351 354 354 356 354 354 352 351 347 344 341 344 345 343 343 344 346 346 344 345 346 347 347 347 346 347 347 347 346 347 348 349 347 347 347 343 348 345 347 349 349 348 349 348
343 345 345 344 346 354 353 354 354 357 352 349 351 349 347 344 343 343 342 342 345 346 347 346 345 346 348 347 347 347 346 347 347 347 348 347 348 349 349 349 349 349 346 347 347 350 351 349 349
342 339 342 348 349 355 349 353 349 349 352 350 351 350 347 346 344 343 341 341 346 347 347 346 346 346 348 347 346 347 347 347 346 347 347 347 347 347 349 351 350 349 347 345 342 350 349 350 349
343 336 339 347 352 353 352 357 353 347 347 349 347 347 347 348 343 343 343 342 345 347 347 347 347 347 346 345 347 348 348 346 346 348 348 346 348 346 348 349 350 349 347 347 345 349 347 349 350
345 341 334 343 343 349 354 353 348 345 344 345 346 345 348 347 347 344 343 343 344 345 347 347 346 346 346 345 348 349 348 348 349 348 345 346 349 349 347 348 348 350 348 349 350 350 348 348 348
337 334 340 337 351 357 351 353 352 350 349 350 346 345 346 347 348 345 342 344 345 346 346 346 346 346 345 345 350 348 348 350 349 349 349 349 348 346 345 347 348 349 349 348 349 351 350 349 349
325 331 326 331 338 349 352 351 344 341 341 350 346 344 345 347 348 347 344 346 346 347 348 347 347 347 347 348 350 348 349 349 350 350 350 348 349 347 345 344 349 348 349 349 350 349 349 350 348
321 324 324 328 328 339 342 345 345 341 340 345 348 344 343 345 346 346 347 348 347 348 349 350 350 349 348 349 350 351 351 350 351 351 350 347 347 347 344 344 348 342 347 350 350 350 350 350 348

GFSSGP_925_thetae_114.txt.gz
Theta_e
338 343 344 349 349 348 352 353 344 342 341 339 340 342 345 348 347 338 340 336 336 337 342 343 342 343 346 349 347 349 348 349 348 349 350 351 350 351 347 349 350 349 351 351 351 350 351 351 351
333 335 344 346 348 354 356 351 349 348 344 339 345 347 348 350 347 343 340 338 337 338 342 341 342 342 349 349 349 348 350 348 351 350 348 349 347 349 348 347 349 349 350 350 347 350 349 347 348
329 339 346 346 347 353 355 351 352 348 346 347 350 347 347 349 344 342 340 338 337 341 343 345 341 343 347 347 349 350 350 349 350 350 348 348 348 349 348 348 349 350 349 351 350 345 346 344 348
339 345 344 352 354 350 351 351 351 351 350 348 348 352 346 345 343 344 339 339 337 342 343 341 343 342 346 348 348 349 351 350 350 350 349 352 351 352 351 350 351 350 349 347 351 347 346 343 350
337 346 353 358 357 348 349 348 350 353 352 350 348 353 349 345 345 344 341 339 339 343 343 344 348 346 347 348 350 349 349 348 348 349 351 351 349 351 347 347 350 350 349 349 349 347 344 346 350
349 346 355 360 347 350 349 350 352 352 351 350 350 350 348 346 346 344 340 339 342 340 345 345 346 344 347 349 349 349 350 350 349 351 351 351 348 346 349 351 349 348 347 347 344 344 342 343 351
353 353 359 348 349 352 350 349 352 350 350 351 347 351 347 344 345 342 340 343 341 345 345 346 346 347 346 350 350 351 350 351 350 349 349 346 347 346 349 348 347 345 346 346 342 343 343 344 345
350 352 358 354 352 351 351 351 350 349 350 345 344 351 349 345 345 344 344 341 347 346 345 346 347 348 348 350 350 350 351 351 350 348 346 348 350 351 346 346 348 346 344 340 340 342 343 345 347
349 353 358 359 345 356 351 353 349 346 347 347 346 345 345 346 347 346 345 348 349 348 348 347 348 347 347 348 349 351 351 351 350 350 349 347 346 343 345 349 349 348 345 336 337 340 340 342 343
355 356 357 355 352 353 353 351 351 350 349 348 348 346 346 347 347 346 347 347 348 348 348 349 350 348 348 348 347 349 350 348 346 345 344 344 343 343 344 345 342 342 341 338 339 338 339 339 340
354 358 353 351 351 349 351 352 349 349 349 347 349 348 347 346 346 346 346 346 346 346 347 348 347 347 346 348 348 349 348 344 342 341 343 343 341 341 341 341 342 342 341 341 340 340 341 345 346
357 355 353 350 348 350 353 354 350 347 348 344 346 346 347 346 345 344 344 345 343 345 347 345 345 346 345 345 346 345 344 341 341 344 345 343 340 340 340 337 337 338 339 341 343 344 345 345 344
355 355 354 353 352 351 351 354 353 347 345 345 346 346 346 345 345 344 343 344 343 345 346 344 344 344 344 344 344 343 341 339 344 346 345 342 343 340 340 333 337 339 341 341 342 341 343 343 341
354 355 355 354 353 352 355 354 352 349 346 347 347 346 345 345 344 344 345 345 345 345 346 345 341 342 341 343 345 346 345 345 345 344 343 342 343 342 340 341 343 342 343 341 341 343 344 344 340
353 358 354 356 354 356 353 355 355 349 347 348 347 346 345 344 344 345 345 345 345 345 345 344 342 341 343 345 346 345 344 344 344 344 345 344 341 342 341 342 342 342 345 345 343 343 344 344 341
358 355 359 355 357 354 353 359 356 350 348 349 347 346 345 343 344 344 345 346 346 345 345 343 344 345 346 345 345 344 342 344 345 345 345 345 344 342 344 342 339 342 345 345 345 345 343 341 342
343 356 360 357 351 355 354 359 354 347 346 348 348 346 345 343 343 344 346 346 345 345 344 344 345 345 346 346 347 345 344 344 344 344 345 343 343 345 344 343 341 344 347 346 348 348 344 342 342
350 356 355 357 354 351 349 351 354 349 347 346 347 344 345 342 344 344 345 346 345 345 344 344 344 345 345 346 346 346 346 346 346 345 345 344 346 346 346 343 344 345 348 349 349 347 349 345 343
350 354 354 353 351 352 350 350 352 347 350 347 343 341 342 343 343 344 344 343 344 344 346 347 348 348 346 346 345 346 346 346 344 346 346 346 347 344 347 344 344 347 348 351 349 347 349 348 346
351 353 354 350 349 348 351 351 350 347 348 350 346 341 343 344 343 344 344 343 344 346 346 346 346 347 346 345 345 346 345 346 346 347 347 347 347 346 346 345 344 347 346 350 350 349 349 349 347
349 349 350 351 350 347 350 351 351 350 348 350 348 341 341 344 345 344 344 344 344 344 345 345 346 345 345 345 345 346 346 346 347 348 347 348 347 346 348 347 346 345 346 348 349 349 349 349 349
348 346 348 351 350 352 349 356 353 351 351 351 350 344 340 341 344 345 345 343 343 344 343 344 346 346 345 345 345 346 347 347 347 346 345 347 348 347 348 348 346 345 344 348 348 349 348 348 348
337 346 346 347 345 350 353 354 354 350 350 349 350 347 342 339 343 346 344 344 344 343 343 343 344 345 346 346 345 345 346 347 346 347 347 348 349 346 348 348 345 346 341 347 349 347 347 347 345
343 344 342 341 343 350 352 352 352 352 347 348 348 348 344 340 342 345 345 344 343 343 343 343 343 346 346 346 346 346 345 346 347 347 346 347 347 348 347 348 346 348 345 346 348 349 349 347 347
340 335 341 345 347 349 348 351 349 351 350 347 350 349 346 340 342 344 344 342 342 344 344 345 344 346 346 347 347 346 346 346 346 346 346 347 347 347 348 349 348 349 347 346 344 349 349 350 348
340 333 337 341 346 348 351 352 350 343 346 345 346 347 347 344 342 344 343 341 343 344 345 346 344 345 346 347 347 346 346 346 346 346 346 347 347 347 346 348 350 349 349 345 343 348 347 348 349
342 341 333 340 341 346 350 349 346 345 347 349 349 348 348 348 344 343 341 341 343 344 345 346 345 345 345 346 347 347 348 347 346 346 348 346 345 347 347 347 349 350 349 348 348 350 347 347 347
338 336 340 337 346 350 348 350 350 349 347 350 350 349 347 347 345 343 342 341 342 345 344 345 345 345 345 346 345 345 347 348 348 348 348 347 347 348 347 346 347 349 349 348 348 349 350 349 348
327 335 330 331 337 345 346 343 341 344 345 350 349 348 346 346 347 344 343 342 342 343 345 345 346 345 345 345 345 346 349 347 349 348 348 348 348 347 346 346 344 348 348 348 348 349 349 349 348
323 330 326 331 329 337 338 341 343 341 340 345 345 344 344 344 344 345 343 344 343 344 345 346 346 346 345 345 345 347 348 348 349 349 350 348 347 346 346 345 346 348 344 347 348 349 349 349 349

GFSSGP_925_thetae_117.txt.gz
Theta_e
337 346 345 351 356 353 354 346 345 342 343 341 341 343 344 348 344 346 339 339 339 340 338 338 340 340 345 347 348 348 350 349 349 350 350 350 350 346 347 351 351 351 351 352 351 351 351 352 351
341 343 346 349 357 353 356 351 347 341 341 342 345 346 348 351 346 342 341 339 339 342 339 340 341 342 343 346 347 350 350 349 349 349 348 349 349 349 350 350 350 350 350 345 349 348 348 351 352
333 339 350 353 352 356 356 351 349 346 341 345 350 346 345 347 342 340 341 340 341 344 345 345 342 343 344 348 349 351 351 350 349 347 344 345 348 347 347 350 352 349 349 344 345 347 344 346 351
339 348 347 356 357 352 353 352 350 349 347 348 346 345 346 342 341 344 342 342 343 346 345 343 347 348 348 349 348 350 347 348 349 349 350 349 351 351 351 350 350 351 346 346 350 345 350 351 350
339 350 358 358 354 352 352 350 349 352 351 349 344 346 345 347 347 344 343 343 345 346 345 344 348 344 346 349 349 349 346 347 346 346 349 348 350 350 350 351 350 349 349 344 348 347 351 350 348
354 349 357 358 352 352 351 350 351 352 351 349 346 348 350 347 347 344 344 344 344 343 348 348 346 349 349 349 348 349 346 345 347 351 346 345 347 348 350 350 348 349 350 348 342 343 350 352 346
356 357 359 351 355 353 352 350 351 351 350 350 346 348 350 347 346 345 344 345 344 345 345 349 348 349 349 350 350 350 350 349 347 349 346 346 349 349 349 347 347 348 348 345 345 343 347 348 345
353 356 355 350 354 353 352 351 349 348 350 345 344 348 349 346 346 344 345 344 348 348 347 350 348 350 350 350 351 350 349 349 346 345 348 349 350 350 349 346 346 346 344 341 343 343 345 345 346
349 359 358 353 352 354 351 352 348 347 347 346 347 345 345 346 345 345 345 346 348 349 347 348 349 350 347 351 350 349 347 350 348 348 346 345 347 347 347 349 348 347 345 339 341 341 341 342 343
356 359 358 355 352 354 351 350 351 348 348 350 350 347 347 347 346 347 345 346 348 347 348 347 349 349 349 350 349 350 350 351 349 346 344 346 347 349 349 346 341 338 338 339 339 339 339 341 346
355 359 351 352 352 351 353 351 349 347 349 349 349 350 349 348 348 346 343 344 345 346 347 349 350 350 349 350 349 348 349 349 347 342 343 343 346 343 342 341 342 341 340 340 339 341 345 345 347
355 353 351 348 346 350 353 351 350 347 347 344 345 348 349 349 347 344 344 344 344 346 347 348 348 350 347 349 350 349 347 346 346 343 344 343 344 340 339 333 338 339 340 341 342 344 343 343 342
353 355 352 349 345 345 350 352 352 348 346 345 347 348 348 348 346 344 344 343 343 345 346 347 348 349 348 346 348 345 346 344 345 345 345 342 341 340 337 336 338 340 341 342 342 342 345 344 343
354 356 356 354 353 350 354 352 353 347 346 348 348 348 348 348 347 344 344 344 343 343 345 346 347 348 348 346 342 342 344 345 345 345 343 342 342 341 339 342 343 342 342 341 342 344 344 346 344
354 359 357 356 354 353 351 355 355 349 347 349 349 349 348 348 347 345 345 344 344 344 345 346 346 347 345 343 345 345 345 344 344 344 344 342 341 342 341 341 341 342 344 344 343 343 343 348 344
356 355 360 356 355 354 351 359 353 349 349 351 350 349 349 348 347 346 346 345 344 344 346 346 343 345 346 347 346 347 345 343 346 345 345 344 343 343 343 342 340 343 346 345 346 345 348 347 346
353 353 361 358 353 355 353 357 352 350 350 348 350 350 349 349 347 346 346 346 345 345 345 346 346 346 347 346 346 346 343 343 345 344 344 344 341 343 343 338 342 346 348 349 353 346 346 348 346
350 355 359 360 354 350 356 356 350 349 350 350 349 349 349 348 348 346 346 346 345 346 346 347 347 348 346 348 346 346 348 344 344 344 345 342 345 346 346 342 344 347 351 354 351 349 347 348 348
339 350 354 355 352 354 350 352 351 349 349 349 350 349 349 348 346 346 347 346 346 346 346 346 347 346 347 349 349 349 346 349 347 344 345 344 346 346 346 344 344 346 350 350 348 350 354 353 348
341 347 355 352 350 351 351 350 351 349 350 348 347 347 348 348 347 346 346 346 346 346 347 347 346 347 346 348 348 348 349 349 348 347 346 346 345 344 346 345 343 346 347 350 348 349 353 353 351
343 338 352 352 351 348 350 352 351 351 348 349 349 346 344 346 348 348 347 346 346 346 347 347 348 348 348 347 346 345 346 345 348 349 348 346 345 347 347 346 345 345 345 352 349 349 350 353 350
333 343 347 353 353 355 350 359 353 352 353 351 350 349 346 345 346 348 347 346 346 346 347 348 348 348 346 346 348 346 348 349 348 346 348 349 347 345 346 346 346 345 344 348 351 351 350 351 353
327 346 349 351 350 351 353 359 354 351 354 353 349 347 349 344 345 347 347 346 346 346 346 347 348 347 348 346 347 346 345 349 347 348 345 348 347 347 347 348 346 346 342 347 348 348 347 350 349
344 346 346 347 350 357 350 354 354 356 351 349 349 345 347 346 344 345 345 346 346 346 346 345 347 347 346 346 345 345 344 345 349 346 350 349 350 349 345 347 346 345 346 344 350 348 348 349 346
344 345 345 349 355 349 352 356 353 350 347 347 345 345 347 345 344 346 348 347 346 346 346 346 346 348 348 348 348 346 345 345 345 345 347 348 347 347 348 346 347 347 347 345 346 348 349 351 353
343 336 331 336 344 350 352 358 350 345 345 343 342 344 349 345 343 345 347 346 346 346 347 346 346 347 349 349 348 346 346 349 349 349 348 350 350 350 347 347 347 347 348 347 345 347 352 350 353
345 344 336 345 347 353 354 351 346 346 347 348 346 347 350 345 344 345 346 346 346 346 346 346 346 347 349 349 350 349 347 347 349 346 346 349 347 350 346 347 347 348 350 348 347 349 349 348 349
342 339 345 347 343 344 348 352 352 352 351 348 348 350 349 346 344 345 346 345 346 347 347 347 347 347 348 349 350 349 350 347 347 346 347 347 346 345 348 348 346 348 350 350 349 350 352 350 351
340 341 340 342 346 342 344 340 344 347 349 351 349 349 349 348 345 345 345 344 345 347 347 348 349 349 348 349 349 349 349 348 348 348 349 348 347 348 347 346 346 347 349 349 349 348 349 351 352
335 337 338 340 340 344 346 338 347 344 344 349 350 349 347 347 346 345 344 343 344 346 347 348 349 349 349 349 350 346 345 348 349 349 350 348 348 347 348 346 345 347 349 348 349 351 350 350 350

GFSSGP_925_thetae_120.txt.gz
Theta_e
339 348 347 355 359 348 349 349 347 346 347 343 343 343 345 348 348 351 340 340 337 337 338 340 341 345 343 344 347 350 350 350 351 351 351 351 348 351 352 352 352 351 352 352 352 352 353 352 352
345 347 349 352 354 350 353 349 349 346 345 345 345 344 346 350 343 342 340 340 337 340 341 343 341 343 344 346 350 351 352 351 352 351 350 351 351 352 353 351 350 344 349 351 350 352 352 353 352
343 345 350 354 352 351 352 349 347 346 345 349 350 347 346 347 341 340 339 340 340 341 343 346 340 343 346 350 350 351 350 349 349 347 349 348 347 348 352 348 346 344 344 349 350 351 351 353 352
343 352 350 356 353 354 350 350 348 346 345 348 348 348 344 341 342 342 340 340 343 345 344 342 340 344 346 350 351 350 351 349 350 349 351 350 352 352 350 352 346 350 349 350 351 352 352 352 351
344 353 356 358 354 352 350 349 349 351 350 349 344 344 348 346 343 342 341 342 343 343 344 343 349 347 347 347 351 349 346 350 348 351 351 351 351 351 352 350 351 351 350 351 351 351 350 348 348
356 352 357 359 355 352 352 351 351 352 351 347 344 346 350 346 343 342 341 342 341 342 342 345 346 349 349 345 347 346 347 344 346 351 349 350 351 351 351 349 351 351 350 350 352 352 352 348 343
356 356 357 353 355 354 354 350 351 351 350 347 345 349 348 345 343 343 342 342 341 344 345 346 347 347 350 347 346 346 344 344 347 350 350 351 351 351 348 348 350 350 349 350 350 349 351 346 343
354 354 354 352 354 355 352 351 349 349 351 346 343 346 351 346 343 343 343 342 344 344 346 347 346 347 348 348 346 347 346 347 351 351 351 349 349 347 345 342 348 349 347 346 344 345 345 345 345
352 360 356 353 352 355 351 351 349 347 347 344 346 342 344 344 344 344 343 344 345 344 345 346 347 349 350 349 348 345 349 350 348 345 345 346 343 344 346 344 347 347 346 343 342 341 341 343 343
357 359 360 355 354 355 351 350 350 347 347 349 347 345 344 344 345 344 343 344 344 343 342 345 346 346 348 348 350 350 348 347 346 346 345 343 344 347 344 343 340 344 340 340 339 338 342 347 345
355 361 356 354 352 352 354 351 349 347 349 348 349 348 345 344 345 344 343 343 343 342 343 346 346 348 348 348 347 348 346 346 346 347 344 345 344 344 343 343 343 344 343 343 344 346 346 348 346
356 351 350 353 351 350 351 351 352 348 349 345 343 345 346 347 346 344 343 342 343 343 344 346 346 349 349 348 346 346 346 345 343 345 347 347 343 344 343 341 343 345 344 346 347 346 349 348 346
353 352 351 350 348 349 348 354 353 350 346 343 344 346 347 346 345 343 342 342 343 343 344 345 347 350 350 349 347 345 345 345 345 347 349 347 344 343 343 345 345 347 347 348 348 348 348 347 344
353 355 357 354 354 350 350 353 353 349 345 345 347 347 347 346 345 344 342 342 342 343 345 345 347 349 350 348 347 345 344 345 346 347 348 349 345 346 345 347 347 348 349 348 348 348 348 344 344
355 360 358 357 354 354 353 357 356 349 348 348 347 347 346 346 345 345 342 341 341 343 344 345 347 349 349 349 349 347 345 345 346 347 350 349 348 348 350 347 348 347 349 353 350 349 347 344 343
355 353 358 358 356 355 355 359 355 350 350 349 346 346 347 348 347 346 345 340 341 342 344 345 345 348 350 350 350 347 346 347 348 349 349 351 350 350 350 348 348 349 353 350 348 346 345 345 345
346 347 354 361 356 356 356 359 354 351 352 352 349 347 347 349 348 348 346 343 341 343 344 345 344 347 350 351 349 349 350 348 349 348 349 351 350 350 350 347 350 355 353 354 351 349 347 346 344
340 345 349 353 359 357 355 358 352 352 354 353 351 347 345 348 349 348 347 345 343 343 345 345 347 348 350 350 351 349 348 348 348 349 349 349 349 351 353 349 352 355 353 353 353 353 351 349 348
336 340 343 356 355 357 357 357 355 352 352 355 352 348 346 346 346 347 347 346 345 345 346 348 349 350 350 350 349 348 348 349 348 348 351 351 352 353 354 349 350 353 353 355 356 354 355 351 353
336 338 343 355 354 354 355 356 351 354 351 353 353 351 348 346 347 347 348 347 346 346 347 349 349 350 352 350 350 349 347 348 348 348 350 350 353 353 353 353 350 354 352 357 357 356 351 351 353
335 336 337 347 354 352 353 356 355 353 352 351 351 351 347 346 347 348 348 348 347 347 347 348 350 350 350 350 350 350 351 349 350 350 349 350 351 352 354 353 352 354 351 352 357 357 355 350 354
331 334 335 351 351 352 352 350 357 355 358 354 351 351 347 345 346 347 348 348 347 347 348 347 349 351 349 350 350 350 347 347 349 350 349 350 351 351 353 353 353 354 351 353 354 355 357 354 352
327 332 336 347 348 349 352 355 346 353 360 356 353 352 346 345 345 347 347 347 347 348 348 348 350 352 351 353 351 348 347 347 348 349 351 350 352 352 350 354 354 353 349 352 356 356 358 354 351
331 336 344 348 347 348 342 352 348 357 354 352 350 350 349 349 346 346 346 347 347 347 348 348 350 352 350 353 348 350 348 349 349 349 349 349 349 350 353 353 354 353 352 352 353 356 356 357 355
334 335 339 342 344 341 349 348 348 347 349 349 350 350 350 349 347 347 348 347 348 348 348 349 349 351 351 353 351 348 348 349 348 348 348 349 349 350 351 353 353 352 354 353 352 356 356 355 355
334 332 332 336 335 337 350 348 346 347 345 346 349 349 350 349 348 347 347 347 348 348 348 349 349 350 350 351 349 350 349 349 348 348 349 348 349 349 349 350 351 351 353 353 354 350 351 351 353
334 340 332 333 333 337 338 345 345 345 345 346 346 345 345 345 347 348 346 347 348 349 349 349 349 350 349 349 351 352 352 351 350 351 351 349 350 350 351 352 352 351 351 351 352 350 351 353 354
341 339 337 334 338 339 336 342 344 344 347 347 348 347 346 346 347 349 347 348 349 349 349 349 349 349 349 349 350 351 351 352 352 352 353 352 352 352 353 354 353 353 353 353 354 351 352 353 351
339 341 339 337 339 338 342 341 341 344 347 349 348 348 347 350 348 348 347 348 349 349 349 350 350 349 349 349 350 350 350 351 352 352 354 354 355 355 355 355 355 354 353 354 355 354 352 353 352
328 335 335 338 337 339 339 348 344 346 347 347 348 348 347 350 348 346 348 348 349 349 349 351 350 350 350 349 350 352 351 352 351 352 352 354 354 354 355 355 354 353 354 354 354 354 351 352 352

GFSSGP_925_thetae_123.txt.gz
Theta_e
331 349 349 354 370 355 348 347 344 345 347 345 344 344 346 347 349 352 341 343 339 342 344 344 340 341 338 342 345 349 350 351 351 351 351 351 352 352 352 352 352 353 353 354 353 353 352 352 352
344 350 350 355 364 352 351 346 346 347 347 346 346 347 344 347 343 343 341 340 340 341 343 344 344 343 340 344 348 350 350 351 351 351 351 351 352 353 352 346 347 352 353 353 353 353 353 352 352
347 348 356 357 355 353 351 347 348 347 348 349 348 346 345 345 342 342 340 340 341 341 343 346 347 350 345 345 346 352 351 351 351 351 347 349 352 352 349 346 349 351 351 352 352 353 353 352 352
346 351 354 360 354 350 347 347 348 348 348 347 346 347 343 341 342 341 340 340 341 345 347 344 350 352 352 349 351 347 351 347 347 352 352 352 352 353 351 350 352 352 351 350 352 352 352 351 350
345 354 359 356 352 348 348 348 348 348 349 348 344 348 346 343 341 341 341 342 344 345 345 345 347 352 349 351 351 350 352 352 352 352 352 351 353 351 352 352 352 352 352 352 350 349 348 350 350
353 355 364 359 353 350 350 349 348 350 348 346 346 348 348 342 341 341 341 342 342 342 345 345 344 351 349 351 345 344 346 345 351 351 352 351 352 353 350 352 352 351 352 353 353 351 347 345 340
354 355 363 353 353 353 352 348 351 348 347 345 344 348 347 342 341 341 341 341 341 341 344 343 346 348 351 349 347 349 349 352 350 352 352 351 352 350 350 352 351 349 350 352 351 351 345 343 339
355 355 354 355 350 354 351 350 347 346 348 343 345 348 348 343 341 341 341 341 343 344 345 345 343 345 347 347 349 350 349 352 352 351 351 349 347 343 347 345 351 350 350 348 345 344 344 341 340
351 362 363 357 354 355 350 351 349 345 345 344 343 344 344 342 341 341 342 342 342 344 345 345 345 349 349 347 346 350 350 348 343 343 346 345 344 346 349 346 349 349 346 343 341 339 343 344 341
357 363 360 357 353 353 351 350 350 347 346 346 345 346 343 342 342 342 342 343 342 342 345 346 346 345 347 346 349 348 350 350 346 344 345 343 348 345 345 347 344 342 340 339 338 345 347 347 352
355 361 356 352 351 353 354 351 349 347 349 346 347 346 344 343 343 341 342 342 342 341 345 344 344 347 347 347 348 348 343 343 344 345 344 342 343 345 341 344 346 344 346 346 346 348 350 346 346
357 353 353 352 351 347 347 350 350 348 351 345 344 344 344 345 344 342 342 342 341 342 344 345 345 346 347 347 345 345 345 342 342 344 344 345 342 344 343 344 346 345 342 345 348 344 346 346 345
355 353 350 353 350 345 344 349 355 350 347 343 344 345 345 345 344 342 342 342 341 342 345 344 348 348 349 346 345 345 344 343 343 345 346 344 342 345 345 346 345 346 342 344 344 346 347 346 346
352 352 355 353 350 351 346 351 357 349 346 344 345 345 345 345 343 342 341 342 342 343 344 345 348 349 347 349 348 345 344 345 345 345 346 349 345 347 346 347 345 345 346 344 345 348 348 344 344
350 355 358 357 356 356 349 355 357 350 346 348 345 345 344 344 343 342 342 342 342 344 345 345 348 349 349 348 346 345 343 343 344 349 349 348 347 350 347 346 347 344 348 349 347 348 347 344 342
348 351 358 358 356 354 355 362 357 352 350 349 346 345 344 344 343 343 341 341 343 344 345 346 346 348 349 349 349 344 345 344 346 347 347 349 350 350 351 346 345 347 349 346 345 346 346 344 342
344 348 352 359 357 357 357 361 356 354 351 350 348 345 344 346 345 344 342 340 342 344 345 346 347 349 350 350 348 346 346 346 348 346 347 349 350 351 351 347 349 354 347 347 347 346 345 345 343
340 341 342 352 360 359 357 358 358 352 354 355 348 348 344 347 347 345 343 341 341 345 345 346 346 349 350 348 350 348 347 347 346 347 350 349 349 351 353 348 351 358 347 349 355 353 349 348 345
337 341 340 350 356 358 357 356 358 352 351 353 353 350 344 345 345 345 344 343 342 344 345 346 347 350 350 349 347 348 347 347 346 348 351 351 350 352 355 349 352 351 354 354 352 352 354 349 348
334 336 339 349 353 355 352 355 354 357 352 349 354 352 346 344 345 346 344 343 343 344 346 347 348 351 351 349 349 348 346 348 347 348 349 350 351 353 352 354 350 351 351 354 355 355 354 349 350
333 335 337 341 353 352 352 353 354 353 356 350 351 352 348 345 346 347 345 344 344 345 346 348 349 352 352 351 350 352 351 352 348 348 349 350 352 353 354 354 354 354 352 355 355 357 354 353 349
331 332 333 335 347 349 353 349 355 355 355 356 351 354 351 346 345 345 346 346 344 346 346 348 350 351 352 353 350 349 350 347 345 348 351 350 351 352 352 353 354 355 354 353 353 352 356 351 354
328 330 332 334 341 344 345 353 344 351 359 357 353 351 353 347 346 346 345 346 345 346 348 347 350 352 351 351 351 352 349 348 350 348 352 351 352 352 350 353 354 355 351 352 357 356 355 356 351
326 329 333 338 341 346 340 344 344 353 356 356 354 353 351 348 346 345 345 346 347 346 348 348 350 352 353 352 351 352 349 350 349 349 352 350 350 351 351 352 354 355 353 354 354 355 356 357 358
326 331 336 340 340 341 342 344 341 345 352 349 353 354 351 351 346 345 346 346 348 348 348 348 350 352 352 354 351 352 352 351 352 353 349 349 348 349 352 353 355 354 355 355 354 356 356 356 355
329 330 335 339 338 351 344 343 346 346 345 344 347 350 351 350 347 346 347 346 350 349 348 349 350 351 351 352 351 352 351 351 350 352 349 349 349 348 352 355 353 353 355 354 355 353 352 348 351
332 333 331 333 333 334 344 343 341 343 340 344 346 349 348 349 349 348 346 345 349 349 349 350 350 351 351 351 351 352 352 351 349 350 352 352 352 351 353 353 354 354 353 353 353 353 351 352 354
332 340 338 332 336 339 337 338 345 344 338 342 346 349 350 349 351 350 347 346 347 348 350 350 351 352 351 349 350 351 351 352 352 353 354 352 351 355 354 355 354 355 354 354 354 352 352 352 352
334 333 337 339 341 342 342 347 346 340 342 349 347 346 347 346 346 348 349 346 347 349 349 351 351 351 351 350 350 350 351 352 353 352 354 354 355 355 355 355 354 356 355 355 355 353 355 354 354
333 337 337 336 340 341 341 347 343 341 337 347 347 345 348 347 347 350 349 348 348 350 350 351 351 351 351 349 350 351 351 351 351 352 351 355 355 354 354 357 356 356 356 355 355 356 353 353 353